<?xml version="1.0" encoding="UTF-8" standalone="no" ?>
<gpx xmlns="http://www.topografix.com/GPX/1/1" xmlns:xsi="http://www.w3.org/2001/XMLSchema-instance" xsi:schemaLocation="http://www.topografix.com/GPX/1/1 http://www.topografix.com/GPX/1/1/gpx.xsd" version="1.1" creator="VisuGPX - https://www.visugpx.com">
  <metadata>
    <name>Lac du Petarel</name>
    <desc><![CDATA[Démarrage du village des Portes. Montée au lac du Pétarel. retour au village des Andrieu.]]></desc>
  </metadata>
  <trk>
    <name><![CDATA[Lac du Petarel_1]]></name>
    <trkseg>
      <trkpt lat="44.81177" lon="6.19617">
        <ele>1262</ele>
        <time>2015-07-12T08:14:54Z</time>
      </trkpt>
      <trkpt lat="44.81155" lon="6.19594">
        <ele>1265</ele>
        <time>2015-07-12T08:15:21Z</time>
      </trkpt>
      <trkpt lat="44.81149" lon="6.19579">
        <ele>1263</ele>
        <time>2015-07-12T08:15:30Z</time>
      </trkpt>
      <trkpt lat="44.81138" lon="6.19569">
        <ele>1259</ele>
        <time>2015-07-12T08:15:39Z</time>
      </trkpt>
      <trkpt lat="44.81134" lon="6.19551">
        <ele>1256</ele>
        <time>2015-07-12T08:15:48Z</time>
      </trkpt>
      <trkpt lat="44.81123" lon="6.19543">
        <ele>1253</ele>
        <time>2015-07-12T08:15:57Z</time>
      </trkpt>
      <trkpt lat="44.81104" lon="6.19547">
        <ele>1252</ele>
        <time>2015-07-12T08:16:06Z</time>
      </trkpt>
      <trkpt lat="44.81089" lon="6.19551">
        <ele>1256</ele>
        <time>2015-07-12T08:16:15Z</time>
      </trkpt>
      <trkpt lat="44.81075" lon="6.19555">
        <ele>1259</ele>
        <time>2015-07-12T08:16:24Z</time>
      </trkpt>
      <trkpt lat="44.81065" lon="6.19551">
        <ele>1262</ele>
        <time>2015-07-12T08:16:33Z</time>
      </trkpt>
      <trkpt lat="44.81051" lon="6.19564">
        <ele>1263</ele>
        <time>2015-07-12T08:16:42Z</time>
      </trkpt>
      <trkpt lat="44.81039" lon="6.19561">
        <ele>1265</ele>
        <time>2015-07-12T08:16:51Z</time>
      </trkpt>
      <trkpt lat="44.81025" lon="6.19565">
        <ele>1265</ele>
        <time>2015-07-12T08:17:00Z</time>
      </trkpt>
      <trkpt lat="44.81016" lon="6.19556">
        <ele>1262</ele>
        <time>2015-07-12T08:17:09Z</time>
      </trkpt>
      <trkpt lat="44.81004" lon="6.19553">
        <ele>1262</ele>
        <time>2015-07-12T08:17:18Z</time>
      </trkpt>
      <trkpt lat="44.80988" lon="6.19551">
        <ele>1267</ele>
        <time>2015-07-12T08:17:27Z</time>
      </trkpt>
      <trkpt lat="44.80977" lon="6.19555">
        <ele>1270</ele>
        <time>2015-07-12T08:17:37Z</time>
      </trkpt>
      <trkpt lat="44.80968" lon="6.19561">
        <ele>1262</ele>
        <time>2015-07-12T08:17:46Z</time>
      </trkpt>
      <trkpt lat="44.80958" lon="6.19562">
        <ele>1261</ele>
        <time>2015-07-12T08:17:55Z</time>
      </trkpt>
      <trkpt lat="44.80954" lon="6.19547">
        <ele>1261</ele>
        <time>2015-07-12T08:18:06Z</time>
      </trkpt>
      <trkpt lat="44.80947" lon="6.19538">
        <ele>1260</ele>
        <time>2015-07-12T08:18:15Z</time>
      </trkpt>
      <trkpt lat="44.80934" lon="6.19539">
        <ele>1260</ele>
        <time>2015-07-12T08:18:24Z</time>
      </trkpt>
      <trkpt lat="44.80927" lon="6.19535">
        <ele>1260</ele>
        <time>2015-07-12T08:18:34Z</time>
      </trkpt>
      <trkpt lat="44.80916" lon="6.19534">
        <ele>1260</ele>
        <time>2015-07-12T08:18:43Z</time>
      </trkpt>
      <trkpt lat="44.80913" lon="6.19526">
        <ele>1258</ele>
        <time>2015-07-12T08:18:54Z</time>
      </trkpt>
      <trkpt lat="44.809" lon="6.19521">
        <ele>1258</ele>
        <time>2015-07-12T08:19:04Z</time>
      </trkpt>
      <trkpt lat="44.8089" lon="6.19517">
        <ele>1258</ele>
        <time>2015-07-12T08:19:13Z</time>
      </trkpt>
      <trkpt lat="44.8088" lon="6.19513">
        <ele>1262</ele>
        <time>2015-07-12T08:19:24Z</time>
      </trkpt>
      <trkpt lat="44.80876" lon="6.19512">
        <ele>1266</ele>
        <time>2015-07-12T08:19:33Z</time>
      </trkpt>
      <trkpt lat="44.8088" lon="6.19522">
        <ele>1268</ele>
        <time>2015-07-12T08:19:44Z</time>
      </trkpt>
      <trkpt lat="44.80884" lon="6.19528">
        <ele>1269</ele>
        <time>2015-07-12T08:19:54Z</time>
      </trkpt>
      <trkpt lat="44.80887" lon="6.19526">
        <ele>1269</ele>
        <time>2015-07-12T08:20:05Z</time>
      </trkpt>
      <trkpt lat="44.80887" lon="6.19526">
        <ele>1270</ele>
        <time>2015-07-12T08:20:19Z</time>
      </trkpt>
      <trkpt lat="44.80885" lon="6.19525">
        <ele>1270</ele>
        <time>2015-07-12T08:21:08Z</time>
      </trkpt>
      <trkpt lat="44.80883" lon="6.19527">
        <ele>1266</ele>
        <time>2015-07-12T08:21:18Z</time>
      </trkpt>
      <trkpt lat="44.80884" lon="6.1951">
        <ele>1250</ele>
        <time>2015-07-12T08:21:30Z</time>
      </trkpt>
      <trkpt lat="44.80883" lon="6.19511">
        <ele>1242</ele>
        <time>2015-07-12T08:21:40Z</time>
      </trkpt>
      <trkpt lat="44.8088" lon="6.19515">
        <ele>1251</ele>
        <time>2015-07-12T08:21:51Z</time>
      </trkpt>
      <trkpt lat="44.80873" lon="6.19519">
        <ele>1267</ele>
        <time>2015-07-12T08:22:00Z</time>
      </trkpt>
      <trkpt lat="44.80868" lon="6.19523">
        <ele>1294</ele>
        <time>2015-07-12T08:22:10Z</time>
      </trkpt>
      <trkpt lat="44.80869" lon="6.19525">
        <ele>1307</ele>
        <time>2015-07-12T08:22:22Z</time>
      </trkpt>
      <trkpt lat="44.80872" lon="6.19525">
        <ele>1297</ele>
        <time>2015-07-12T08:22:34Z</time>
      </trkpt>
      <trkpt lat="44.80876" lon="6.19526">
        <ele>1295</ele>
        <time>2015-07-12T08:22:45Z</time>
      </trkpt>
      <trkpt lat="44.80877" lon="6.19527">
        <ele>1287</ele>
        <time>2015-07-12T08:22:54Z</time>
      </trkpt>
      <trkpt lat="44.80875" lon="6.19522">
        <ele>1283</ele>
        <time>2015-07-12T08:23:05Z</time>
      </trkpt>
      <trkpt lat="44.80878" lon="6.19525">
        <ele>1281</ele>
        <time>2015-07-12T08:23:28Z</time>
      </trkpt>
      <trkpt lat="44.80892" lon="6.19526">
        <ele>1275</ele>
        <time>2015-07-12T08:23:37Z</time>
      </trkpt>
      <trkpt lat="44.80904" lon="6.19532">
        <ele>1266</ele>
        <time>2015-07-12T08:23:46Z</time>
      </trkpt>
      <trkpt lat="44.80914" lon="6.19523">
        <ele>1258</ele>
        <time>2015-07-12T08:23:55Z</time>
      </trkpt>
      <trkpt lat="44.80919" lon="6.19538">
        <ele>1246</ele>
        <time>2015-07-12T08:24:05Z</time>
      </trkpt>
      <trkpt lat="44.80927" lon="6.1955">
        <ele>1252</ele>
        <time>2015-07-12T08:24:14Z</time>
      </trkpt>
      <trkpt lat="44.80931" lon="6.19559">
        <ele>1258</ele>
        <time>2015-07-12T08:24:23Z</time>
      </trkpt>
      <trkpt lat="44.80939" lon="6.19555">
        <ele>1264</ele>
        <time>2015-07-12T08:24:32Z</time>
      </trkpt>
      <trkpt lat="44.80951" lon="6.19556">
        <ele>1264</ele>
        <time>2015-07-12T08:24:41Z</time>
      </trkpt>
      <trkpt lat="44.8096" lon="6.19564">
        <ele>1264</ele>
        <time>2015-07-12T08:24:50Z</time>
      </trkpt>
      <trkpt lat="44.80965" lon="6.19581">
        <ele>1270</ele>
        <time>2015-07-12T08:25:00Z</time>
      </trkpt>
      <trkpt lat="44.80975" lon="6.19577">
        <ele>1275</ele>
        <time>2015-07-12T08:25:10Z</time>
      </trkpt>
      <trkpt lat="44.80985" lon="6.19564">
        <ele>1269</ele>
        <time>2015-07-12T08:25:19Z</time>
      </trkpt>
      <trkpt lat="44.80992" lon="6.19558">
        <ele>1265</ele>
        <time>2015-07-12T08:25:29Z</time>
      </trkpt>
      <trkpt lat="44.81001" lon="6.19556">
        <ele>1265</ele>
        <time>2015-07-12T08:25:38Z</time>
      </trkpt>
      <trkpt lat="44.81011" lon="6.19559">
        <ele>1265</ele>
        <time>2015-07-12T08:25:47Z</time>
      </trkpt>
      <trkpt lat="44.81019" lon="6.19562">
        <ele>1269</ele>
        <time>2015-07-12T08:25:56Z</time>
      </trkpt>
      <trkpt lat="44.8103" lon="6.19558">
        <ele>1276</ele>
        <time>2015-07-12T08:26:07Z</time>
      </trkpt>
      <trkpt lat="44.81026" lon="6.19563">
        <ele>1276</ele>
        <time>2015-07-12T08:26:17Z</time>
      </trkpt>
      <trkpt lat="44.81065" lon="6.19531">
        <ele>1275</ele>
        <time>2015-07-12T08:26:26Z</time>
      </trkpt>
      <trkpt lat="44.81085" lon="6.19502">
        <ele>1274</ele>
        <time>2015-07-12T08:26:43Z</time>
      </trkpt>
      <trkpt lat="44.81042" lon="6.19541">
        <ele>1271</ele>
        <time>2015-07-12T08:26:53Z</time>
      </trkpt>
      <trkpt lat="44.81033" lon="6.19547">
        <ele>1278</ele>
        <time>2015-07-12T08:27:03Z</time>
      </trkpt>
      <trkpt lat="44.81036" lon="6.19538">
        <ele>1275</ele>
        <time>2015-07-12T08:27:17Z</time>
      </trkpt>
      <trkpt lat="44.81032" lon="6.19542">
        <ele>1267</ele>
        <time>2015-07-12T08:27:26Z</time>
      </trkpt>
      <trkpt lat="44.81028" lon="6.1955">
        <ele>1265</ele>
        <time>2015-07-12T08:27:38Z</time>
      </trkpt>
      <trkpt lat="44.81028" lon="6.1955">
        <ele>1265</ele>
        <time>2015-07-12T08:27:47Z</time>
      </trkpt>
      <trkpt lat="44.81027" lon="6.19548">
        <ele>1265</ele>
        <time>2015-07-12T08:27:56Z</time>
      </trkpt>
      <trkpt lat="44.81027" lon="6.19548">
        <ele>1265</ele>
        <time>2015-07-12T08:28:05Z</time>
      </trkpt>
      <trkpt lat="44.81024" lon="6.1955">
        <ele>1264</ele>
        <time>2015-07-12T08:28:14Z</time>
      </trkpt>
      <trkpt lat="44.81023" lon="6.19555">
        <ele>1266</ele>
        <time>2015-07-12T08:28:23Z</time>
      </trkpt>
      <trkpt lat="44.81018" lon="6.19558">
        <ele>1272</ele>
        <time>2015-07-12T08:28:32Z</time>
      </trkpt>
      <trkpt lat="44.81013" lon="6.19565">
        <ele>1281</ele>
        <time>2015-07-12T08:28:43Z</time>
      </trkpt>
      <trkpt lat="44.81015" lon="6.19563">
        <ele>1284</ele>
        <time>2015-07-12T08:28:53Z</time>
      </trkpt>
      <trkpt lat="44.81018" lon="6.19561">
        <ele>1278</ele>
        <time>2015-07-12T08:29:04Z</time>
      </trkpt>
      <trkpt lat="44.8102" lon="6.19561">
        <ele>1268</ele>
        <time>2015-07-12T08:29:14Z</time>
      </trkpt>
      <trkpt lat="44.81018" lon="6.19557">
        <ele>1268</ele>
        <time>2015-07-12T08:29:24Z</time>
      </trkpt>
      <trkpt lat="44.81018" lon="6.1956">
        <ele>1268</ele>
        <time>2015-07-12T08:29:34Z</time>
      </trkpt>
      <trkpt lat="44.81017" lon="6.1956">
        <ele>1269</ele>
        <time>2015-07-12T08:29:50Z</time>
      </trkpt>
      <trkpt lat="44.81015" lon="6.19559">
        <ele>1273</ele>
        <time>2015-07-12T08:29:59Z</time>
      </trkpt>
      <trkpt lat="44.8102" lon="6.19558">
        <ele>1272</ele>
        <time>2015-07-12T08:30:09Z</time>
      </trkpt>
      <trkpt lat="44.81018" lon="6.19568">
        <ele>1272</ele>
        <time>2015-07-12T08:30:19Z</time>
      </trkpt>
      <trkpt lat="44.81015" lon="6.19581">
        <ele>1275</ele>
        <time>2015-07-12T08:30:36Z</time>
      </trkpt>
      <trkpt lat="44.81016" lon="6.19576">
        <ele>1287</ele>
        <time>2015-07-12T08:30:45Z</time>
      </trkpt>
      <trkpt lat="44.81018" lon="6.19569">
        <ele>1283</ele>
        <time>2015-07-12T08:30:55Z</time>
      </trkpt>
      <trkpt lat="44.81015" lon="6.1956">
        <ele>1277</ele>
        <time>2015-07-12T08:31:10Z</time>
      </trkpt>
      <trkpt lat="44.81014" lon="6.19561">
        <ele>1287</ele>
        <time>2015-07-12T08:31:31Z</time>
      </trkpt>
      <trkpt lat="44.81022" lon="6.19563">
        <ele>1281</ele>
        <time>2015-07-12T08:31:41Z</time>
      </trkpt>
      <trkpt lat="44.81025" lon="6.19559">
        <ele>1275</ele>
        <time>2015-07-12T08:31:50Z</time>
      </trkpt>
      <trkpt lat="44.81028" lon="6.19558">
        <ele>1278</ele>
        <time>2015-07-12T08:32:03Z</time>
      </trkpt>
      <trkpt lat="44.8103" lon="6.19538">
        <ele>1278</ele>
        <time>2015-07-12T08:32:12Z</time>
      </trkpt>
      <trkpt lat="44.81032" lon="6.19524">
        <ele>1274</ele>
        <time>2015-07-12T08:32:21Z</time>
      </trkpt>
      <trkpt lat="44.81037" lon="6.19502">
        <ele>1254</ele>
        <time>2015-07-12T08:32:31Z</time>
      </trkpt>
      <trkpt lat="44.81039" lon="6.19488">
        <ele>1238</ele>
        <time>2015-07-12T08:32:41Z</time>
      </trkpt>
      <trkpt lat="44.81058" lon="6.19452">
        <ele>1226</ele>
        <time>2015-07-12T08:32:50Z</time>
      </trkpt>
      <trkpt lat="44.81065" lon="6.19465">
        <ele>1213</ele>
        <time>2015-07-12T08:32:59Z</time>
      </trkpt>
      <trkpt lat="44.81067" lon="6.19487">
        <ele>1231</ele>
        <time>2015-07-12T08:33:08Z</time>
      </trkpt>
      <trkpt lat="44.8107" lon="6.19507">
        <ele>1249</ele>
        <time>2015-07-12T08:33:17Z</time>
      </trkpt>
      <trkpt lat="44.81075" lon="6.19509">
        <ele>1278</ele>
        <time>2015-07-12T08:33:28Z</time>
      </trkpt>
      <trkpt lat="44.81079" lon="6.19504">
        <ele>1286</ele>
        <time>2015-07-12T08:33:37Z</time>
      </trkpt>
      <trkpt lat="44.81086" lon="6.19497">
        <ele>1287</ele>
        <time>2015-07-12T08:33:48Z</time>
      </trkpt>
      <trkpt lat="44.81088" lon="6.19495">
        <ele>1287</ele>
        <time>2015-07-12T08:33:57Z</time>
      </trkpt>
      <trkpt lat="44.81093" lon="6.19497">
        <ele>1294</ele>
        <time>2015-07-12T08:34:07Z</time>
      </trkpt>
      <trkpt lat="44.81099" lon="6.195">
        <ele>1295</ele>
        <time>2015-07-12T08:34:16Z</time>
      </trkpt>
      <trkpt lat="44.81109" lon="6.19495">
        <ele>1292</ele>
        <time>2015-07-12T08:34:26Z</time>
      </trkpt>
      <trkpt lat="44.81113" lon="6.195">
        <ele>1292</ele>
        <time>2015-07-12T08:34:35Z</time>
      </trkpt>
      <trkpt lat="44.81121" lon="6.19499">
        <ele>1292</ele>
        <time>2015-07-12T08:34:44Z</time>
      </trkpt>
      <trkpt lat="44.81129" lon="6.19501">
        <ele>1290</ele>
        <time>2015-07-12T08:34:53Z</time>
      </trkpt>
      <trkpt lat="44.81134" lon="6.19495">
        <ele>1290</ele>
        <time>2015-07-12T08:35:02Z</time>
      </trkpt>
      <trkpt lat="44.81133" lon="6.19486">
        <ele>1290</ele>
        <time>2015-07-12T08:35:12Z</time>
      </trkpt>
      <trkpt lat="44.81128" lon="6.1948">
        <ele>1292</ele>
        <time>2015-07-12T08:35:23Z</time>
      </trkpt>
      <trkpt lat="44.81123" lon="6.19476">
        <ele>1297</ele>
        <time>2015-07-12T08:35:32Z</time>
      </trkpt>
      <trkpt lat="44.8112" lon="6.19465">
        <ele>1299</ele>
        <time>2015-07-12T08:35:45Z</time>
      </trkpt>
      <trkpt lat="44.8112" lon="6.19458">
        <ele>1299</ele>
        <time>2015-07-12T08:35:55Z</time>
      </trkpt>
      <trkpt lat="44.81115" lon="6.19457">
        <ele>1305</ele>
        <time>2015-07-12T08:36:04Z</time>
      </trkpt>
      <trkpt lat="44.81116" lon="6.19452">
        <ele>1308</ele>
        <time>2015-07-12T08:36:14Z</time>
      </trkpt>
      <trkpt lat="44.81118" lon="6.19439">
        <ele>1308</ele>
        <time>2015-07-12T08:36:29Z</time>
      </trkpt>
      <trkpt lat="44.8112" lon="6.19436">
        <ele>1308</ele>
        <time>2015-07-12T08:36:42Z</time>
      </trkpt>
      <trkpt lat="44.81116" lon="6.19437">
        <ele>1315</ele>
        <time>2015-07-12T08:36:51Z</time>
      </trkpt>
      <trkpt lat="44.8112" lon="6.19425">
        <ele>1317</ele>
        <time>2015-07-12T08:37:01Z</time>
      </trkpt>
      <trkpt lat="44.8112" lon="6.19419">
        <ele>1317</ele>
        <time>2015-07-12T08:37:12Z</time>
      </trkpt>
      <trkpt lat="44.81123" lon="6.19403">
        <ele>1316</ele>
        <time>2015-07-12T08:37:23Z</time>
      </trkpt>
      <trkpt lat="44.81123" lon="6.19398">
        <ele>1316</ele>
        <time>2015-07-12T08:37:32Z</time>
      </trkpt>
      <trkpt lat="44.81124" lon="6.19388">
        <ele>1316</ele>
        <time>2015-07-12T08:37:42Z</time>
      </trkpt>
      <trkpt lat="44.81121" lon="6.19384">
        <ele>1317</ele>
        <time>2015-07-12T08:37:54Z</time>
      </trkpt>
      <trkpt lat="44.8112" lon="6.19379">
        <ele>1319</ele>
        <time>2015-07-12T08:38:03Z</time>
      </trkpt>
      <trkpt lat="44.81119" lon="6.19376">
        <ele>1322</ele>
        <time>2015-07-12T08:38:12Z</time>
      </trkpt>
      <trkpt lat="44.81117" lon="6.19376">
        <ele>1325</ele>
        <time>2015-07-12T08:38:21Z</time>
      </trkpt>
      <trkpt lat="44.81117" lon="6.19378">
        <ele>1326</ele>
        <time>2015-07-12T08:38:30Z</time>
      </trkpt>
      <trkpt lat="44.81119" lon="6.19372">
        <ele>1332</ele>
        <time>2015-07-12T08:38:41Z</time>
      </trkpt>
      <trkpt lat="44.8112" lon="6.19366">
        <ele>1334</ele>
        <time>2015-07-12T08:38:52Z</time>
      </trkpt>
      <trkpt lat="44.81125" lon="6.19362">
        <ele>1339</ele>
        <time>2015-07-12T08:39:01Z</time>
      </trkpt>
      <trkpt lat="44.81125" lon="6.19357">
        <ele>1341</ele>
        <time>2015-07-12T08:39:10Z</time>
      </trkpt>
      <trkpt lat="44.81133" lon="6.1934">
        <ele>1340</ele>
        <time>2015-07-12T08:39:20Z</time>
      </trkpt>
      <trkpt lat="44.81137" lon="6.19344">
        <ele>1340</ele>
        <time>2015-07-12T08:39:30Z</time>
      </trkpt>
      <trkpt lat="44.81143" lon="6.19341">
        <ele>1340</ele>
        <time>2015-07-12T08:39:40Z</time>
      </trkpt>
      <trkpt lat="44.81148" lon="6.19336">
        <ele>1340</ele>
        <time>2015-07-12T08:39:50Z</time>
      </trkpt>
      <trkpt lat="44.81152" lon="6.19327">
        <ele>1340</ele>
        <time>2015-07-12T08:40:02Z</time>
      </trkpt>
      <trkpt lat="44.81153" lon="6.19326">
        <ele>1340</ele>
        <time>2015-07-12T08:40:15Z</time>
      </trkpt>
      <trkpt lat="44.81155" lon="6.19327">
        <ele>1343</ele>
        <time>2015-07-12T08:40:25Z</time>
      </trkpt>
      <trkpt lat="44.81159" lon="6.19315">
        <ele>1343</ele>
        <time>2015-07-12T08:40:34Z</time>
      </trkpt>
      <trkpt lat="44.81163" lon="6.19312">
        <ele>1347</ele>
        <time>2015-07-12T08:40:44Z</time>
      </trkpt>
      <trkpt lat="44.81166" lon="6.19304">
        <ele>1350</ele>
        <time>2015-07-12T08:40:54Z</time>
      </trkpt>
      <trkpt lat="44.81167" lon="6.193">
        <ele>1350</ele>
        <time>2015-07-12T08:41:03Z</time>
      </trkpt>
      <trkpt lat="44.81168" lon="6.19298">
        <ele>1350</ele>
        <time>2015-07-12T08:41:12Z</time>
      </trkpt>
      <trkpt lat="44.81172" lon="6.19293">
        <ele>1354</ele>
        <time>2015-07-12T08:41:21Z</time>
      </trkpt>
      <trkpt lat="44.81171" lon="6.19298">
        <ele>1361</ele>
        <time>2015-07-12T08:41:31Z</time>
      </trkpt>
      <trkpt lat="44.81174" lon="6.19291">
        <ele>1362</ele>
        <time>2015-07-12T08:41:40Z</time>
      </trkpt>
      <trkpt lat="44.81178" lon="6.19284">
        <ele>1364</ele>
        <time>2015-07-12T08:41:50Z</time>
      </trkpt>
      <trkpt lat="44.81181" lon="6.19283">
        <ele>1368</ele>
        <time>2015-07-12T08:41:59Z</time>
      </trkpt>
      <trkpt lat="44.81183" lon="6.19287">
        <ele>1372</ele>
        <time>2015-07-12T08:42:09Z</time>
      </trkpt>
      <trkpt lat="44.81186" lon="6.19284">
        <ele>1374</ele>
        <time>2015-07-12T08:42:18Z</time>
      </trkpt>
      <trkpt lat="44.81191" lon="6.19274">
        <ele>1374</ele>
        <time>2015-07-12T08:42:27Z</time>
      </trkpt>
      <trkpt lat="44.81195" lon="6.19265">
        <ele>1370</ele>
        <time>2015-07-12T08:42:36Z</time>
      </trkpt>
      <trkpt lat="44.81201" lon="6.19256">
        <ele>1370</ele>
        <time>2015-07-12T08:42:45Z</time>
      </trkpt>
      <trkpt lat="44.81203" lon="6.1926">
        <ele>1370</ele>
        <time>2015-07-12T08:42:55Z</time>
      </trkpt>
      <trkpt lat="44.81211" lon="6.19249">
        <ele>1371</ele>
        <time>2015-07-12T08:43:06Z</time>
      </trkpt>
      <trkpt lat="44.81216" lon="6.1924">
        <ele>1371</ele>
        <time>2015-07-12T08:43:16Z</time>
      </trkpt>
      <trkpt lat="44.81217" lon="6.19231">
        <ele>1371</ele>
        <time>2015-07-12T08:43:26Z</time>
      </trkpt>
      <trkpt lat="44.81204" lon="6.19237">
        <ele>1371</ele>
        <time>2015-07-12T08:43:36Z</time>
      </trkpt>
      <trkpt lat="44.81203" lon="6.19239">
        <ele>1367</ele>
        <time>2015-07-12T08:43:45Z</time>
      </trkpt>
      <trkpt lat="44.81206" lon="6.1924">
        <ele>1367</ele>
        <time>2015-07-12T08:43:59Z</time>
      </trkpt>
      <trkpt lat="44.81211" lon="6.19234">
        <ele>1369</ele>
        <time>2015-07-12T08:44:08Z</time>
      </trkpt>
      <trkpt lat="44.81221" lon="6.19233">
        <ele>1373</ele>
        <time>2015-07-12T08:44:18Z</time>
      </trkpt>
      <trkpt lat="44.81224" lon="6.1924">
        <ele>1380</ele>
        <time>2015-07-12T08:44:27Z</time>
      </trkpt>
      <trkpt lat="44.81231" lon="6.19229">
        <ele>1385</ele>
        <time>2015-07-12T08:44:37Z</time>
      </trkpt>
      <trkpt lat="44.8124" lon="6.19214">
        <ele>1385</ele>
        <time>2015-07-12T08:44:46Z</time>
      </trkpt>
      <trkpt lat="44.81245" lon="6.19209">
        <ele>1385</ele>
        <time>2015-07-12T08:44:57Z</time>
      </trkpt>
      <trkpt lat="44.81247" lon="6.19204">
        <ele>1389</ele>
        <time>2015-07-12T08:45:07Z</time>
      </trkpt>
      <trkpt lat="44.81251" lon="6.19195">
        <ele>1387</ele>
        <time>2015-07-12T08:45:17Z</time>
      </trkpt>
      <trkpt lat="44.81256" lon="6.19187">
        <ele>1387</ele>
        <time>2015-07-12T08:45:26Z</time>
      </trkpt>
      <trkpt lat="44.81262" lon="6.19179">
        <ele>1387</ele>
        <time>2015-07-12T08:45:36Z</time>
      </trkpt>
      <trkpt lat="44.81269" lon="6.19166">
        <ele>1389</ele>
        <time>2015-07-12T08:45:46Z</time>
      </trkpt>
      <trkpt lat="44.81275" lon="6.1916">
        <ele>1395</ele>
        <time>2015-07-12T08:45:57Z</time>
      </trkpt>
      <trkpt lat="44.81285" lon="6.19132">
        <ele>1397</ele>
        <time>2015-07-12T08:46:07Z</time>
      </trkpt>
      <trkpt lat="44.8094" lon="6.18897">
        <ele>1385</ele>
        <time>2015-07-12T08:53:35Z</time>
      </trkpt>
      <trkpt lat="44.81031" lon="6.18888">
        <ele>1142</ele>
        <time>2015-07-12T08:53:44Z</time>
      </trkpt>
      <trkpt lat="44.81076" lon="6.1888">
        <ele>1124</ele>
        <time>2015-07-12T08:53:53Z</time>
      </trkpt>
      <trkpt lat="44.81132" lon="6.18886">
        <ele>1162</ele>
        <time>2015-07-12T08:54:02Z</time>
      </trkpt>
      <trkpt lat="44.8117" lon="6.18883">
        <ele>1232</ele>
        <time>2015-07-12T08:54:11Z</time>
      </trkpt>
      <trkpt lat="44.81199" lon="6.18883">
        <ele>1282</ele>
        <time>2015-07-12T08:54:22Z</time>
      </trkpt>
      <trkpt lat="44.81208" lon="6.1887">
        <ele>1308</ele>
        <time>2015-07-12T08:54:31Z</time>
      </trkpt>
      <trkpt lat="44.81219" lon="6.1886">
        <ele>1319</ele>
        <time>2015-07-12T08:54:41Z</time>
      </trkpt>
      <trkpt lat="44.81226" lon="6.18855">
        <ele>1329</ele>
        <time>2015-07-12T08:54:50Z</time>
      </trkpt>
      <trkpt lat="44.81232" lon="6.18851">
        <ele>1345</ele>
        <time>2015-07-12T08:54:59Z</time>
      </trkpt>
      <trkpt lat="44.81243" lon="6.18852">
        <ele>1365</ele>
        <time>2015-07-12T08:55:09Z</time>
      </trkpt>
      <trkpt lat="44.81268" lon="6.1885">
        <ele>1391</ele>
        <time>2015-07-12T08:55:18Z</time>
      </trkpt>
      <trkpt lat="44.81283" lon="6.18847">
        <ele>1426</ele>
        <time>2015-07-12T08:55:29Z</time>
      </trkpt>
      <trkpt lat="44.81289" lon="6.18853">
        <ele>1456</ele>
        <time>2015-07-12T08:55:41Z</time>
      </trkpt>
      <trkpt lat="44.81289" lon="6.18855">
        <ele>1464</ele>
        <time>2015-07-12T08:55:51Z</time>
      </trkpt>
      <trkpt lat="44.81293" lon="6.18863">
        <ele>1474</ele>
        <time>2015-07-12T08:56:03Z</time>
      </trkpt>
      <trkpt lat="44.81287" lon="6.18861">
        <ele>1472</ele>
        <time>2015-07-12T08:56:15Z</time>
      </trkpt>
      <trkpt lat="44.81289" lon="6.18854">
        <ele>1468</ele>
        <time>2015-07-12T08:56:25Z</time>
      </trkpt>
      <trkpt lat="44.8129" lon="6.18846">
        <ele>1463</ele>
        <time>2015-07-12T08:56:35Z</time>
      </trkpt>
      <trkpt lat="44.81283" lon="6.18859">
        <ele>1462</ele>
        <time>2015-07-12T08:56:44Z</time>
      </trkpt>
      <trkpt lat="44.81282" lon="6.18859">
        <ele>1467</ele>
        <time>2015-07-12T08:56:54Z</time>
      </trkpt>
      <trkpt lat="44.81278" lon="6.18839">
        <ele>1464</ele>
        <time>2015-07-12T08:57:04Z</time>
      </trkpt>
      <trkpt lat="44.81278" lon="6.18837">
        <ele>1459</ele>
        <time>2015-07-12T08:57:14Z</time>
      </trkpt>
      <trkpt lat="44.81281" lon="6.18845">
        <ele>1467</ele>
        <time>2015-07-12T08:57:24Z</time>
      </trkpt>
      <trkpt lat="44.81272" lon="6.1883">
        <ele>1466</ele>
        <time>2015-07-12T08:57:34Z</time>
      </trkpt>
      <trkpt lat="44.81275" lon="6.18831">
        <ele>1466</ele>
        <time>2015-07-12T08:57:43Z</time>
      </trkpt>
      <trkpt lat="44.81271" lon="6.1883">
        <ele>1462</ele>
        <time>2015-07-12T08:57:56Z</time>
      </trkpt>
      <trkpt lat="44.81268" lon="6.18827">
        <ele>1461</ele>
        <time>2015-07-12T08:58:05Z</time>
      </trkpt>
      <trkpt lat="44.81276" lon="6.18822">
        <ele>1462</ele>
        <time>2015-07-12T08:58:14Z</time>
      </trkpt>
      <trkpt lat="44.81271" lon="6.1881">
        <ele>1464</ele>
        <time>2015-07-12T08:58:23Z</time>
      </trkpt>
      <trkpt lat="44.81269" lon="6.18797">
        <ele>1464</ele>
        <time>2015-07-12T08:58:32Z</time>
      </trkpt>
      <trkpt lat="44.81266" lon="6.18785">
        <ele>1464</ele>
        <time>2015-07-12T08:58:41Z</time>
      </trkpt>
      <trkpt lat="44.81264" lon="6.18773">
        <ele>1464</ele>
        <time>2015-07-12T08:58:50Z</time>
      </trkpt>
      <trkpt lat="44.8126" lon="6.18762">
        <ele>1463</ele>
        <time>2015-07-12T08:58:59Z</time>
      </trkpt>
      <trkpt lat="44.81254" lon="6.18749">
        <ele>1462</ele>
        <time>2015-07-12T08:59:08Z</time>
      </trkpt>
      <trkpt lat="44.81253" lon="6.18736">
        <ele>1462</ele>
        <time>2015-07-12T08:59:18Z</time>
      </trkpt>
      <trkpt lat="44.81245" lon="6.18726">
        <ele>1463</ele>
        <time>2015-07-12T08:59:27Z</time>
      </trkpt>
      <trkpt lat="44.81239" lon="6.18716">
        <ele>1463</ele>
        <time>2015-07-12T08:59:36Z</time>
      </trkpt>
      <trkpt lat="44.81239" lon="6.18711">
        <ele>1463</ele>
        <time>2015-07-12T08:59:49Z</time>
      </trkpt>
      <trkpt lat="44.81229" lon="6.1871">
        <ele>1463</ele>
        <time>2015-07-12T08:59:58Z</time>
      </trkpt>
      <trkpt lat="44.81225" lon="6.187">
        <ele>1463</ele>
        <time>2015-07-12T09:00:07Z</time>
      </trkpt>
      <trkpt lat="44.81227" lon="6.1869">
        <ele>1463</ele>
        <time>2015-07-12T09:00:16Z</time>
      </trkpt>
      <trkpt lat="44.81224" lon="6.18679">
        <ele>1463</ele>
        <time>2015-07-12T09:00:25Z</time>
      </trkpt>
      <trkpt lat="44.81226" lon="6.18667">
        <ele>1464</ele>
        <time>2015-07-12T09:00:34Z</time>
      </trkpt>
      <trkpt lat="44.81232" lon="6.18655">
        <ele>1470</ele>
        <time>2015-07-12T09:00:44Z</time>
      </trkpt>
      <trkpt lat="44.81229" lon="6.18646">
        <ele>1471</ele>
        <time>2015-07-12T09:00:54Z</time>
      </trkpt>
      <trkpt lat="44.81226" lon="6.18633">
        <ele>1471</ele>
        <time>2015-07-12T09:01:05Z</time>
      </trkpt>
      <trkpt lat="44.81223" lon="6.18624">
        <ele>1470</ele>
        <time>2015-07-12T09:01:14Z</time>
      </trkpt>
      <trkpt lat="44.81218" lon="6.18616">
        <ele>1467</ele>
        <time>2015-07-12T09:01:24Z</time>
      </trkpt>
      <trkpt lat="44.81225" lon="6.18611">
        <ele>1467</ele>
        <time>2015-07-12T09:01:33Z</time>
      </trkpt>
      <trkpt lat="44.81232" lon="6.18609">
        <ele>1475</ele>
        <time>2015-07-12T09:01:42Z</time>
      </trkpt>
      <trkpt lat="44.81223" lon="6.18595">
        <ele>1478</ele>
        <time>2015-07-12T09:01:52Z</time>
      </trkpt>
      <trkpt lat="44.81221" lon="6.18584">
        <ele>1478</ele>
        <time>2015-07-12T09:02:01Z</time>
      </trkpt>
      <trkpt lat="44.8122" lon="6.18572">
        <ele>1478</ele>
        <time>2015-07-12T09:02:11Z</time>
      </trkpt>
      <trkpt lat="44.81218" lon="6.18561">
        <ele>1478</ele>
        <time>2015-07-12T09:02:20Z</time>
      </trkpt>
      <trkpt lat="44.81218" lon="6.18551">
        <ele>1478</ele>
        <time>2015-07-12T09:02:29Z</time>
      </trkpt>
      <trkpt lat="44.81216" lon="6.1854">
        <ele>1478</ele>
        <time>2015-07-12T09:02:39Z</time>
      </trkpt>
      <trkpt lat="44.81214" lon="6.1853">
        <ele>1478</ele>
        <time>2015-07-12T09:02:49Z</time>
      </trkpt>
      <trkpt lat="44.81216" lon="6.18521">
        <ele>1478</ele>
        <time>2015-07-12T09:03:00Z</time>
      </trkpt>
      <trkpt lat="44.81218" lon="6.18509">
        <ele>1480</ele>
        <time>2015-07-12T09:03:10Z</time>
      </trkpt>
      <trkpt lat="44.81219" lon="6.18498">
        <ele>1480</ele>
        <time>2015-07-12T09:03:19Z</time>
      </trkpt>
      <trkpt lat="44.8122" lon="6.18485">
        <ele>1480</ele>
        <time>2015-07-12T09:03:29Z</time>
      </trkpt>
      <trkpt lat="44.81225" lon="6.18477">
        <ele>1478</ele>
        <time>2015-07-12T09:03:38Z</time>
      </trkpt>
      <trkpt lat="44.81226" lon="6.18469">
        <ele>1478</ele>
        <time>2015-07-12T09:03:47Z</time>
      </trkpt>
      <trkpt lat="44.81221" lon="6.18454">
        <ele>1476</ele>
        <time>2015-07-12T09:03:56Z</time>
      </trkpt>
      <trkpt lat="44.81224" lon="6.18443">
        <ele>1475</ele>
        <time>2015-07-12T09:04:05Z</time>
      </trkpt>
      <trkpt lat="44.81221" lon="6.18436">
        <ele>1474</ele>
        <time>2015-07-12T09:04:17Z</time>
      </trkpt>
      <trkpt lat="44.81234" lon="6.18431">
        <ele>1475</ele>
        <time>2015-07-12T09:04:26Z</time>
      </trkpt>
      <trkpt lat="44.81237" lon="6.1842">
        <ele>1475</ele>
        <time>2015-07-12T09:04:35Z</time>
      </trkpt>
      <trkpt lat="44.81253" lon="6.1842">
        <ele>1484</ele>
        <time>2015-07-12T09:04:45Z</time>
      </trkpt>
      <trkpt lat="44.81248" lon="6.18405">
        <ele>1486</ele>
        <time>2015-07-12T09:04:54Z</time>
      </trkpt>
      <trkpt lat="44.81243" lon="6.18391">
        <ele>1480</ele>
        <time>2015-07-12T09:05:04Z</time>
      </trkpt>
      <trkpt lat="44.81253" lon="6.18384">
        <ele>1477</ele>
        <time>2015-07-12T09:05:14Z</time>
      </trkpt>
      <trkpt lat="44.81265" lon="6.18378">
        <ele>1481</ele>
        <time>2015-07-12T09:05:23Z</time>
      </trkpt>
      <trkpt lat="44.81258" lon="6.18372">
        <ele>1483</ele>
        <time>2015-07-12T09:05:32Z</time>
      </trkpt>
      <trkpt lat="44.81253" lon="6.18368">
        <ele>1483</ele>
        <time>2015-07-12T09:05:41Z</time>
      </trkpt>
      <trkpt lat="44.81263" lon="6.1836">
        <ele>1483</ele>
        <time>2015-07-12T09:05:51Z</time>
      </trkpt>
      <trkpt lat="44.81267" lon="6.1835">
        <ele>1483</ele>
        <time>2015-07-12T09:06:00Z</time>
      </trkpt>
      <trkpt lat="44.81258" lon="6.1834">
        <ele>1483</ele>
        <time>2015-07-12T09:06:09Z</time>
      </trkpt>
      <trkpt lat="44.81271" lon="6.18331">
        <ele>1483</ele>
        <time>2015-07-12T09:06:18Z</time>
      </trkpt>
      <trkpt lat="44.81278" lon="6.18323">
        <ele>1483</ele>
        <time>2015-07-12T09:06:27Z</time>
      </trkpt>
      <trkpt lat="44.81286" lon="6.18314">
        <ele>1483</ele>
        <time>2015-07-12T09:06:36Z</time>
      </trkpt>
      <trkpt lat="44.81289" lon="6.18304">
        <ele>1483</ele>
        <time>2015-07-12T09:06:46Z</time>
      </trkpt>
      <trkpt lat="44.81293" lon="6.18297">
        <ele>1483</ele>
        <time>2015-07-12T09:06:55Z</time>
      </trkpt>
      <trkpt lat="44.8129" lon="6.18289">
        <ele>1484</ele>
        <time>2015-07-12T09:07:04Z</time>
      </trkpt>
      <trkpt lat="44.81308" lon="6.18285">
        <ele>1491</ele>
        <time>2015-07-12T09:07:13Z</time>
      </trkpt>
      <trkpt lat="44.81304" lon="6.18271">
        <ele>1492</ele>
        <time>2015-07-12T09:07:23Z</time>
      </trkpt>
      <trkpt lat="44.81304" lon="6.18258">
        <ele>1492</ele>
        <time>2015-07-12T09:07:32Z</time>
      </trkpt>
      <trkpt lat="44.813" lon="6.18245">
        <ele>1492</ele>
        <time>2015-07-12T09:07:41Z</time>
      </trkpt>
      <trkpt lat="44.81299" lon="6.18234">
        <ele>1491</ele>
        <time>2015-07-12T09:07:50Z</time>
      </trkpt>
      <trkpt lat="44.81302" lon="6.18236">
        <ele>1491</ele>
        <time>2015-07-12T09:08:00Z</time>
      </trkpt>
      <trkpt lat="44.813" lon="6.18234">
        <ele>1493</ele>
        <time>2015-07-12T09:08:09Z</time>
      </trkpt>
      <trkpt lat="44.8131" lon="6.18229">
        <ele>1493</ele>
        <time>2015-07-12T09:08:18Z</time>
      </trkpt>
      <trkpt lat="44.81314" lon="6.18215">
        <ele>1493</ele>
        <time>2015-07-12T09:08:27Z</time>
      </trkpt>
      <trkpt lat="44.81327" lon="6.18206">
        <ele>1493</ele>
        <time>2015-07-12T09:08:37Z</time>
      </trkpt>
      <trkpt lat="44.81348" lon="6.18206">
        <ele>1497</ele>
        <time>2015-07-12T09:08:46Z</time>
      </trkpt>
      <trkpt lat="44.81365" lon="6.182">
        <ele>1505</ele>
        <time>2015-07-12T09:08:55Z</time>
      </trkpt>
      <trkpt lat="44.81366" lon="6.1818">
        <ele>1508</ele>
        <time>2015-07-12T09:09:04Z</time>
      </trkpt>
      <trkpt lat="44.81341" lon="6.18152">
        <ele>1499</ele>
        <time>2015-07-12T09:09:13Z</time>
      </trkpt>
      <trkpt lat="44.8134" lon="6.18142">
        <ele>1492</ele>
        <time>2015-07-12T09:09:22Z</time>
      </trkpt>
      <trkpt lat="44.8134" lon="6.18128">
        <ele>1492</ele>
        <time>2015-07-12T09:09:31Z</time>
      </trkpt>
      <trkpt lat="44.81335" lon="6.18114">
        <ele>1492</ele>
        <time>2015-07-12T09:09:41Z</time>
      </trkpt>
      <trkpt lat="44.81331" lon="6.18103">
        <ele>1492</ele>
        <time>2015-07-12T09:09:52Z</time>
      </trkpt>
      <trkpt lat="44.81324" lon="6.18094">
        <ele>1492</ele>
        <time>2015-07-12T09:10:02Z</time>
      </trkpt>
      <trkpt lat="44.8133" lon="6.18087">
        <ele>1493</ele>
        <time>2015-07-12T09:10:11Z</time>
      </trkpt>
      <trkpt lat="44.81322" lon="6.18082">
        <ele>1497</ele>
        <time>2015-07-12T09:10:23Z</time>
      </trkpt>
      <trkpt lat="44.81327" lon="6.18079">
        <ele>1503</ele>
        <time>2015-07-12T09:10:33Z</time>
      </trkpt>
      <trkpt lat="44.81326" lon="6.18077">
        <ele>1506</ele>
        <time>2015-07-12T09:10:42Z</time>
      </trkpt>
      <trkpt lat="44.81328" lon="6.18068">
        <ele>1508</ele>
        <time>2015-07-12T09:10:52Z</time>
      </trkpt>
      <trkpt lat="44.8133" lon="6.18062">
        <ele>1509</ele>
        <time>2015-07-12T09:11:01Z</time>
      </trkpt>
      <trkpt lat="44.81331" lon="6.18051">
        <ele>1512</ele>
        <time>2015-07-12T09:11:11Z</time>
      </trkpt>
      <trkpt lat="44.81321" lon="6.18035">
        <ele>1508</ele>
        <time>2015-07-12T09:11:21Z</time>
      </trkpt>
      <trkpt lat="44.81314" lon="6.18022">
        <ele>1506</ele>
        <time>2015-07-12T09:11:31Z</time>
      </trkpt>
      <trkpt lat="44.81319" lon="6.18015">
        <ele>1505</ele>
        <time>2015-07-12T09:11:41Z</time>
      </trkpt>
      <trkpt lat="44.81318" lon="6.18003">
        <ele>1505</ele>
        <time>2015-07-12T09:11:51Z</time>
      </trkpt>
      <trkpt lat="44.8131" lon="6.17992">
        <ele>1505</ele>
        <time>2015-07-12T09:12:00Z</time>
      </trkpt>
      <trkpt lat="44.81312" lon="6.17989">
        <ele>1506</ele>
        <time>2015-07-12T09:12:10Z</time>
      </trkpt>
      <trkpt lat="44.81314" lon="6.17985">
        <ele>1508</ele>
        <time>2015-07-12T09:12:21Z</time>
      </trkpt>
      <trkpt lat="44.81313" lon="6.17978">
        <ele>1509</ele>
        <time>2015-07-12T09:12:31Z</time>
      </trkpt>
      <trkpt lat="44.81316" lon="6.17975">
        <ele>1511</ele>
        <time>2015-07-12T09:12:40Z</time>
      </trkpt>
      <trkpt lat="44.81314" lon="6.17977">
        <ele>1514</ele>
        <time>2015-07-12T09:12:50Z</time>
      </trkpt>
      <trkpt lat="44.81313" lon="6.17973">
        <ele>1522</ele>
        <time>2015-07-12T09:13:03Z</time>
      </trkpt>
      <trkpt lat="44.81316" lon="6.17961">
        <ele>1523</ele>
        <time>2015-07-12T09:13:13Z</time>
      </trkpt>
      <trkpt lat="44.81316" lon="6.17948">
        <ele>1523</ele>
        <time>2015-07-12T09:13:23Z</time>
      </trkpt>
      <trkpt lat="44.81311" lon="6.17938">
        <ele>1522</ele>
        <time>2015-07-12T09:13:33Z</time>
      </trkpt>
      <trkpt lat="44.81316" lon="6.1793">
        <ele>1521</ele>
        <time>2015-07-12T09:13:43Z</time>
      </trkpt>
      <trkpt lat="44.81313" lon="6.17919">
        <ele>1521</ele>
        <time>2015-07-12T09:13:52Z</time>
      </trkpt>
      <trkpt lat="44.81316" lon="6.17915">
        <ele>1522</ele>
        <time>2015-07-12T09:14:01Z</time>
      </trkpt>
      <trkpt lat="44.81329" lon="6.1791">
        <ele>1528</ele>
        <time>2015-07-12T09:14:10Z</time>
      </trkpt>
      <trkpt lat="44.81328" lon="6.17901">
        <ele>1530</ele>
        <time>2015-07-12T09:14:19Z</time>
      </trkpt>
      <trkpt lat="44.81333" lon="6.17895">
        <ele>1532</ele>
        <time>2015-07-12T09:14:30Z</time>
      </trkpt>
      <trkpt lat="44.81341" lon="6.17884">
        <ele>1535</ele>
        <time>2015-07-12T09:14:40Z</time>
      </trkpt>
      <trkpt lat="44.81337" lon="6.17877">
        <ele>1537</ele>
        <time>2015-07-12T09:14:49Z</time>
      </trkpt>
      <trkpt lat="44.81343" lon="6.17867">
        <ele>1535</ele>
        <time>2015-07-12T09:14:58Z</time>
      </trkpt>
      <trkpt lat="44.81357" lon="6.17864">
        <ele>1539</ele>
        <time>2015-07-12T09:15:07Z</time>
      </trkpt>
      <trkpt lat="44.81369" lon="6.17863">
        <ele>1548</ele>
        <time>2015-07-12T09:15:16Z</time>
      </trkpt>
      <trkpt lat="44.81367" lon="6.17848">
        <ele>1549</ele>
        <time>2015-07-12T09:15:25Z</time>
      </trkpt>
      <trkpt lat="44.81353" lon="6.17835">
        <ele>1543</ele>
        <time>2015-07-12T09:15:34Z</time>
      </trkpt>
      <trkpt lat="44.81338" lon="6.17815">
        <ele>1531</ele>
        <time>2015-07-12T09:15:44Z</time>
      </trkpt>
      <trkpt lat="44.81331" lon="6.17805">
        <ele>1526</ele>
        <time>2015-07-12T09:15:53Z</time>
      </trkpt>
      <trkpt lat="44.81327" lon="6.17799">
        <ele>1526</ele>
        <time>2015-07-12T09:16:03Z</time>
      </trkpt>
      <trkpt lat="44.8133" lon="6.17795">
        <ele>1526</ele>
        <time>2015-07-12T09:16:14Z</time>
      </trkpt>
      <trkpt lat="44.81323" lon="6.17786">
        <ele>1530</ele>
        <time>2015-07-12T09:16:24Z</time>
      </trkpt>
      <trkpt lat="44.81321" lon="6.1778">
        <ele>1531</ele>
        <time>2015-07-12T09:16:33Z</time>
      </trkpt>
      <trkpt lat="44.81323" lon="6.1778">
        <ele>1532</ele>
        <time>2015-07-12T09:16:44Z</time>
      </trkpt>
      <trkpt lat="44.81315" lon="6.1777">
        <ele>1525</ele>
        <time>2015-07-12T09:16:54Z</time>
      </trkpt>
      <trkpt lat="44.81318" lon="6.17762">
        <ele>1523</ele>
        <time>2015-07-12T09:17:04Z</time>
      </trkpt>
      <trkpt lat="44.81338" lon="6.17766">
        <ele>1523</ele>
        <time>2015-07-12T09:17:14Z</time>
      </trkpt>
      <trkpt lat="44.81328" lon="6.17759">
        <ele>1528</ele>
        <time>2015-07-12T09:17:23Z</time>
      </trkpt>
      <trkpt lat="44.81329" lon="6.17749">
        <ele>1537</ele>
        <time>2015-07-12T09:17:32Z</time>
      </trkpt>
      <trkpt lat="44.8133" lon="6.17738">
        <ele>1537</ele>
        <time>2015-07-12T09:17:41Z</time>
      </trkpt>
      <trkpt lat="44.81317" lon="6.17723">
        <ele>1532</ele>
        <time>2015-07-12T09:17:50Z</time>
      </trkpt>
      <trkpt lat="44.81319" lon="6.17719">
        <ele>1529</ele>
        <time>2015-07-12T09:17:59Z</time>
      </trkpt>
      <trkpt lat="44.81328" lon="6.17714">
        <ele>1535</ele>
        <time>2015-07-12T09:18:08Z</time>
      </trkpt>
      <trkpt lat="44.81333" lon="6.17708">
        <ele>1542</ele>
        <time>2015-07-12T09:18:17Z</time>
      </trkpt>
      <trkpt lat="44.8133" lon="6.17698">
        <ele>1542</ele>
        <time>2015-07-12T09:18:27Z</time>
      </trkpt>
      <trkpt lat="44.8132" lon="6.17685">
        <ele>1534</ele>
        <time>2015-07-12T09:18:36Z</time>
      </trkpt>
      <trkpt lat="44.81313" lon="6.17675">
        <ele>1531</ele>
        <time>2015-07-12T09:18:46Z</time>
      </trkpt>
      <trkpt lat="44.81316" lon="6.17666">
        <ele>1530</ele>
        <time>2015-07-12T09:18:55Z</time>
      </trkpt>
      <trkpt lat="44.81315" lon="6.17655">
        <ele>1531</ele>
        <time>2015-07-12T09:19:05Z</time>
      </trkpt>
      <trkpt lat="44.81318" lon="6.17644">
        <ele>1536</ele>
        <time>2015-07-12T09:19:14Z</time>
      </trkpt>
      <trkpt lat="44.81311" lon="6.17645">
        <ele>1545</ele>
        <time>2015-07-12T09:19:23Z</time>
      </trkpt>
      <trkpt lat="44.81324" lon="6.1765">
        <ele>1549</ele>
        <time>2015-07-12T09:19:32Z</time>
      </trkpt>
      <trkpt lat="44.81328" lon="6.17644">
        <ele>1558</ele>
        <time>2015-07-12T09:19:41Z</time>
      </trkpt>
      <trkpt lat="44.81336" lon="6.17645">
        <ele>1563</ele>
        <time>2015-07-12T09:19:52Z</time>
      </trkpt>
      <trkpt lat="44.81336" lon="6.17655">
        <ele>1571</ele>
        <time>2015-07-12T09:20:02Z</time>
      </trkpt>
      <trkpt lat="44.81332" lon="6.17665">
        <ele>1578</ele>
        <time>2015-07-12T09:20:13Z</time>
      </trkpt>
      <trkpt lat="44.81326" lon="6.17674">
        <ele>1585</ele>
        <time>2015-07-12T09:20:23Z</time>
      </trkpt>
      <trkpt lat="44.81331" lon="6.17677">
        <ele>1591</ele>
        <time>2015-07-12T09:20:32Z</time>
      </trkpt>
      <trkpt lat="44.81346" lon="6.17682">
        <ele>1602</ele>
        <time>2015-07-12T09:20:42Z</time>
      </trkpt>
      <trkpt lat="44.81366" lon="6.17694">
        <ele>1615</ele>
        <time>2015-07-12T09:20:51Z</time>
      </trkpt>
      <trkpt lat="44.81378" lon="6.17697">
        <ele>1630</ele>
        <time>2015-07-12T09:21:02Z</time>
      </trkpt>
      <trkpt lat="44.81371" lon="6.17685">
        <ele>1628</ele>
        <time>2015-07-12T09:21:11Z</time>
      </trkpt>
      <trkpt lat="44.81368" lon="6.17683">
        <ele>1619</ele>
        <time>2015-07-12T09:21:20Z</time>
      </trkpt>
      <trkpt lat="44.81373" lon="6.17678">
        <ele>1617</ele>
        <time>2015-07-12T09:21:29Z</time>
      </trkpt>
      <trkpt lat="44.81378" lon="6.17686">
        <ele>1620</ele>
        <time>2015-07-12T09:21:38Z</time>
      </trkpt>
      <trkpt lat="44.81389" lon="6.1769">
        <ele>1631</ele>
        <time>2015-07-12T09:21:47Z</time>
      </trkpt>
      <trkpt lat="44.8139" lon="6.1768">
        <ele>1635</ele>
        <time>2015-07-12T09:21:56Z</time>
      </trkpt>
      <trkpt lat="44.81392" lon="6.17663">
        <ele>1635</ele>
        <time>2015-07-12T09:22:10Z</time>
      </trkpt>
      <trkpt lat="44.81385" lon="6.17649">
        <ele>1627</ele>
        <time>2015-07-12T09:22:19Z</time>
      </trkpt>
      <trkpt lat="44.81383" lon="6.17621">
        <ele>1606</ele>
        <time>2015-07-12T09:22:28Z</time>
      </trkpt>
      <trkpt lat="44.81371" lon="6.17589">
        <ele>1578</ele>
        <time>2015-07-12T09:22:37Z</time>
      </trkpt>
      <trkpt lat="44.81352" lon="6.17566">
        <ele>1560</ele>
        <time>2015-07-12T09:22:46Z</time>
      </trkpt>
      <trkpt lat="44.81348" lon="6.17552">
        <ele>1541</ele>
        <time>2015-07-12T09:22:55Z</time>
      </trkpt>
      <trkpt lat="44.8137" lon="6.17557">
        <ele>1533</ele>
        <time>2015-07-12T09:23:04Z</time>
      </trkpt>
      <trkpt lat="44.8138" lon="6.1755">
        <ele>1544</ele>
        <time>2015-07-12T09:23:16Z</time>
      </trkpt>
      <trkpt lat="44.81383" lon="6.17538">
        <ele>1546</ele>
        <time>2015-07-12T09:23:26Z</time>
      </trkpt>
      <trkpt lat="44.81388" lon="6.17523">
        <ele>1547</ele>
        <time>2015-07-12T09:23:35Z</time>
      </trkpt>
      <trkpt lat="44.81381" lon="6.17509">
        <ele>1546</ele>
        <time>2015-07-12T09:23:44Z</time>
      </trkpt>
      <trkpt lat="44.81379" lon="6.17499">
        <ele>1541</ele>
        <time>2015-07-12T09:23:53Z</time>
      </trkpt>
      <trkpt lat="44.81388" lon="6.17493">
        <ele>1538</ele>
        <time>2015-07-12T09:24:03Z</time>
      </trkpt>
      <trkpt lat="44.81386" lon="6.17478">
        <ele>1536</ele>
        <time>2015-07-12T09:24:13Z</time>
      </trkpt>
      <trkpt lat="44.81387" lon="6.17468">
        <ele>1536</ele>
        <time>2015-07-12T09:24:22Z</time>
      </trkpt>
      <trkpt lat="44.8138" lon="6.17457">
        <ele>1536</ele>
        <time>2015-07-12T09:24:34Z</time>
      </trkpt>
      <trkpt lat="44.81381" lon="6.17451">
        <ele>1533</ele>
        <time>2015-07-12T09:24:44Z</time>
      </trkpt>
      <trkpt lat="44.81388" lon="6.17446">
        <ele>1530</ele>
        <time>2015-07-12T09:24:53Z</time>
      </trkpt>
      <trkpt lat="44.81388" lon="6.17435">
        <ele>1530</ele>
        <time>2015-07-12T09:25:04Z</time>
      </trkpt>
      <trkpt lat="44.81386" lon="6.17427">
        <ele>1528</ele>
        <time>2015-07-12T09:25:13Z</time>
      </trkpt>
      <trkpt lat="44.81383" lon="6.17429">
        <ele>1528</ele>
        <time>2015-07-12T09:25:24Z</time>
      </trkpt>
      <trkpt lat="44.81383" lon="6.17418">
        <ele>1528</ele>
        <time>2015-07-12T09:25:33Z</time>
      </trkpt>
      <trkpt lat="44.81377" lon="6.17407">
        <ele>1528</ele>
        <time>2015-07-12T09:25:42Z</time>
      </trkpt>
      <trkpt lat="44.81377" lon="6.174">
        <ele>1528</ele>
        <time>2015-07-12T09:25:51Z</time>
      </trkpt>
      <trkpt lat="44.81374" lon="6.17396">
        <ele>1535</ele>
        <time>2015-07-12T09:26:01Z</time>
      </trkpt>
      <trkpt lat="44.81365" lon="6.17395">
        <ele>1536</ele>
        <time>2015-07-12T09:26:10Z</time>
      </trkpt>
      <trkpt lat="44.8136" lon="6.17388">
        <ele>1536</ele>
        <time>2015-07-12T09:26:19Z</time>
      </trkpt>
      <trkpt lat="44.81353" lon="6.17389">
        <ele>1531</ele>
        <time>2015-07-12T09:26:28Z</time>
      </trkpt>
      <trkpt lat="44.81353" lon="6.17389">
        <ele>1523</ele>
        <time>2015-07-12T09:26:37Z</time>
      </trkpt>
      <trkpt lat="44.81339" lon="6.17377">
        <ele>1522</ele>
        <time>2015-07-12T09:26:48Z</time>
      </trkpt>
      <trkpt lat="44.81339" lon="6.17381">
        <ele>1522</ele>
        <time>2015-07-12T09:26:58Z</time>
      </trkpt>
      <trkpt lat="44.81321" lon="6.17362">
        <ele>1520</ele>
        <time>2015-07-12T09:27:08Z</time>
      </trkpt>
      <trkpt lat="44.81335" lon="6.17362">
        <ele>1520</ele>
        <time>2015-07-12T09:27:18Z</time>
      </trkpt>
      <trkpt lat="44.81319" lon="6.17349">
        <ele>1527</ele>
        <time>2015-07-12T09:27:28Z</time>
      </trkpt>
      <trkpt lat="44.81326" lon="6.17338">
        <ele>1541</ele>
        <time>2015-07-12T09:27:37Z</time>
      </trkpt>
      <trkpt lat="44.8132" lon="6.17332">
        <ele>1542</ele>
        <time>2015-07-12T09:27:46Z</time>
      </trkpt>
      <trkpt lat="44.81318" lon="6.17316">
        <ele>1544</ele>
        <time>2015-07-12T09:27:56Z</time>
      </trkpt>
      <trkpt lat="44.81314" lon="6.1732">
        <ele>1547</ele>
        <time>2015-07-12T09:28:06Z</time>
      </trkpt>
      <trkpt lat="44.81306" lon="6.17315">
        <ele>1545</ele>
        <time>2015-07-12T09:28:17Z</time>
      </trkpt>
      <trkpt lat="44.81314" lon="6.17311">
        <ele>1544</ele>
        <time>2015-07-12T09:28:26Z</time>
      </trkpt>
      <trkpt lat="44.81307" lon="6.17297">
        <ele>1541</ele>
        <time>2015-07-12T09:28:37Z</time>
      </trkpt>
      <trkpt lat="44.81294" lon="6.17284">
        <ele>1541</ele>
        <time>2015-07-12T09:28:46Z</time>
      </trkpt>
      <trkpt lat="44.81282" lon="6.1728">
        <ele>1539</ele>
        <time>2015-07-12T09:28:56Z</time>
      </trkpt>
      <trkpt lat="44.81281" lon="6.17271">
        <ele>1536</ele>
        <time>2015-07-12T09:29:05Z</time>
      </trkpt>
      <trkpt lat="44.81274" lon="6.17268">
        <ele>1536</ele>
        <time>2015-07-12T09:29:15Z</time>
      </trkpt>
      <trkpt lat="44.81261" lon="6.17254">
        <ele>1540</ele>
        <time>2015-07-12T09:29:24Z</time>
      </trkpt>
      <trkpt lat="44.8126" lon="6.17233">
        <ele>1544</ele>
        <time>2015-07-12T09:29:36Z</time>
      </trkpt>
      <trkpt lat="44.81257" lon="6.17225">
        <ele>1553</ele>
        <time>2015-07-12T09:29:45Z</time>
      </trkpt>
      <trkpt lat="44.81266" lon="6.17217">
        <ele>1554</ele>
        <time>2015-07-12T09:29:54Z</time>
      </trkpt>
      <trkpt lat="44.81261" lon="6.17206">
        <ele>1550</ele>
        <time>2015-07-12T09:30:03Z</time>
      </trkpt>
      <trkpt lat="44.81253" lon="6.17197">
        <ele>1546</ele>
        <time>2015-07-12T09:30:12Z</time>
      </trkpt>
      <trkpt lat="44.81247" lon="6.1719">
        <ele>1544</ele>
        <time>2015-07-12T09:30:22Z</time>
      </trkpt>
      <trkpt lat="44.81242" lon="6.1718">
        <ele>1542</ele>
        <time>2015-07-12T09:30:32Z</time>
      </trkpt>
      <trkpt lat="44.81254" lon="6.1718">
        <ele>1545</ele>
        <time>2015-07-12T09:30:41Z</time>
      </trkpt>
      <trkpt lat="44.81243" lon="6.17172">
        <ele>1549</ele>
        <time>2015-07-12T09:30:50Z</time>
      </trkpt>
      <trkpt lat="44.8124" lon="6.17163">
        <ele>1550</ele>
        <time>2015-07-12T09:30:59Z</time>
      </trkpt>
      <trkpt lat="44.81237" lon="6.17149">
        <ele>1549</ele>
        <time>2015-07-12T09:31:09Z</time>
      </trkpt>
      <trkpt lat="44.81242" lon="6.1714">
        <ele>1547</ele>
        <time>2015-07-12T09:31:19Z</time>
      </trkpt>
      <trkpt lat="44.81242" lon="6.17129">
        <ele>1547</ele>
        <time>2015-07-12T09:31:29Z</time>
      </trkpt>
      <trkpt lat="44.81238" lon="6.17122">
        <ele>1547</ele>
        <time>2015-07-12T09:31:39Z</time>
      </trkpt>
      <trkpt lat="44.81233" lon="6.17128">
        <ele>1552</ele>
        <time>2015-07-12T09:31:48Z</time>
      </trkpt>
      <trkpt lat="44.81229" lon="6.17127">
        <ele>1561</ele>
        <time>2015-07-12T09:31:57Z</time>
      </trkpt>
      <trkpt lat="44.81227" lon="6.17104">
        <ele>1559</ele>
        <time>2015-07-12T09:32:09Z</time>
      </trkpt>
      <trkpt lat="44.81229" lon="6.17085">
        <ele>1552</ele>
        <time>2015-07-12T09:32:20Z</time>
      </trkpt>
      <trkpt lat="44.81223" lon="6.17079">
        <ele>1548</ele>
        <time>2015-07-12T09:32:31Z</time>
      </trkpt>
      <trkpt lat="44.81217" lon="6.17078">
        <ele>1553</ele>
        <time>2015-07-12T09:32:41Z</time>
      </trkpt>
      <trkpt lat="44.81202" lon="6.17058">
        <ele>1556</ele>
        <time>2015-07-12T09:32:52Z</time>
      </trkpt>
      <trkpt lat="44.81203" lon="6.17038">
        <ele>1553</ele>
        <time>2015-07-12T09:33:03Z</time>
      </trkpt>
      <trkpt lat="44.81194" lon="6.17027">
        <ele>1555</ele>
        <time>2015-07-12T09:33:14Z</time>
      </trkpt>
      <trkpt lat="44.81188" lon="6.1702">
        <ele>1552</ele>
        <time>2015-07-12T09:33:26Z</time>
      </trkpt>
      <trkpt lat="44.81192" lon="6.17015">
        <ele>1540</ele>
        <time>2015-07-12T09:33:35Z</time>
      </trkpt>
      <trkpt lat="44.81176" lon="6.17001">
        <ele>1532</ele>
        <time>2015-07-12T09:33:44Z</time>
      </trkpt>
      <trkpt lat="44.81187" lon="6.16986">
        <ele>1534</ele>
        <time>2015-07-12T09:33:53Z</time>
      </trkpt>
      <trkpt lat="44.81184" lon="6.16974">
        <ele>1535</ele>
        <time>2015-07-12T09:34:03Z</time>
      </trkpt>
      <trkpt lat="44.81179" lon="6.16964">
        <ele>1535</ele>
        <time>2015-07-12T09:34:12Z</time>
      </trkpt>
      <trkpt lat="44.81179" lon="6.16956">
        <ele>1536</ele>
        <time>2015-07-12T09:34:21Z</time>
      </trkpt>
      <trkpt lat="44.81178" lon="6.16947">
        <ele>1538</ele>
        <time>2015-07-12T09:34:31Z</time>
      </trkpt>
      <trkpt lat="44.8117" lon="6.16936">
        <ele>1538</ele>
        <time>2015-07-12T09:34:41Z</time>
      </trkpt>
      <trkpt lat="44.81174" lon="6.16932">
        <ele>1539</ele>
        <time>2015-07-12T09:34:51Z</time>
      </trkpt>
      <trkpt lat="44.81174" lon="6.16926">
        <ele>1542</ele>
        <time>2015-07-12T09:35:01Z</time>
      </trkpt>
      <trkpt lat="44.8117" lon="6.16918">
        <ele>1542</ele>
        <time>2015-07-12T09:35:10Z</time>
      </trkpt>
      <trkpt lat="44.81168" lon="6.16909">
        <ele>1542</ele>
        <time>2015-07-12T09:35:20Z</time>
      </trkpt>
      <trkpt lat="44.81168" lon="6.16899">
        <ele>1542</ele>
        <time>2015-07-12T09:35:29Z</time>
      </trkpt>
      <trkpt lat="44.81163" lon="6.16889">
        <ele>1542</ele>
        <time>2015-07-12T09:35:40Z</time>
      </trkpt>
      <trkpt lat="44.81159" lon="6.16879">
        <ele>1542</ele>
        <time>2015-07-12T09:35:49Z</time>
      </trkpt>
      <trkpt lat="44.81154" lon="6.16872">
        <ele>1542</ele>
        <time>2015-07-12T09:35:59Z</time>
      </trkpt>
      <trkpt lat="44.81155" lon="6.16862">
        <ele>1542</ele>
        <time>2015-07-12T09:36:08Z</time>
      </trkpt>
      <trkpt lat="44.81154" lon="6.1685">
        <ele>1542</ele>
        <time>2015-07-12T09:36:18Z</time>
      </trkpt>
      <trkpt lat="44.81151" lon="6.16842">
        <ele>1542</ele>
        <time>2015-07-12T09:36:27Z</time>
      </trkpt>
      <trkpt lat="44.8115" lon="6.16837">
        <ele>1545</ele>
        <time>2015-07-12T09:36:38Z</time>
      </trkpt>
      <trkpt lat="44.81147" lon="6.16823">
        <ele>1545</ele>
        <time>2015-07-12T09:36:50Z</time>
      </trkpt>
      <trkpt lat="44.81138" lon="6.16812">
        <ele>1540</ele>
        <time>2015-07-12T09:37:00Z</time>
      </trkpt>
      <trkpt lat="44.81138" lon="6.16804">
        <ele>1539</ele>
        <time>2015-07-12T09:37:09Z</time>
      </trkpt>
      <trkpt lat="44.81137" lon="6.16796">
        <ele>1539</ele>
        <time>2015-07-12T09:37:18Z</time>
      </trkpt>
      <trkpt lat="44.81136" lon="6.16791">
        <ele>1543</ele>
        <time>2015-07-12T09:37:27Z</time>
      </trkpt>
      <trkpt lat="44.81135" lon="6.1678">
        <ele>1545</ele>
        <time>2015-07-12T09:37:36Z</time>
      </trkpt>
      <trkpt lat="44.81136" lon="6.16773">
        <ele>1545</ele>
        <time>2015-07-12T09:37:45Z</time>
      </trkpt>
      <trkpt lat="44.81141" lon="6.16765">
        <ele>1545</ele>
        <time>2015-07-12T09:37:54Z</time>
      </trkpt>
      <trkpt lat="44.81138" lon="6.16753">
        <ele>1540</ele>
        <time>2015-07-12T09:38:05Z</time>
      </trkpt>
      <trkpt lat="44.81136" lon="6.1674">
        <ele>1540</ele>
        <time>2015-07-12T09:38:15Z</time>
      </trkpt>
      <trkpt lat="44.81131" lon="6.1673">
        <ele>1539</ele>
        <time>2015-07-12T09:38:24Z</time>
      </trkpt>
      <trkpt lat="44.81123" lon="6.16726">
        <ele>1540</ele>
        <time>2015-07-12T09:38:35Z</time>
      </trkpt>
      <trkpt lat="44.81126" lon="6.16722">
        <ele>1544</ele>
        <time>2015-07-12T09:38:48Z</time>
      </trkpt>
      <trkpt lat="44.81126" lon="6.16718">
        <ele>1544</ele>
        <time>2015-07-12T09:38:57Z</time>
      </trkpt>
      <trkpt lat="44.81127" lon="6.16718">
        <ele>1543</ele>
        <time>2015-07-12T09:39:06Z</time>
      </trkpt>
      <trkpt lat="44.81129" lon="6.16715">
        <ele>1543</ele>
        <time>2015-07-12T09:39:17Z</time>
      </trkpt>
      <trkpt lat="44.81128" lon="6.16714">
        <ele>1544</ele>
        <time>2015-07-12T09:39:26Z</time>
      </trkpt>
      <trkpt lat="44.8113" lon="6.16708">
        <ele>1544</ele>
        <time>2015-07-12T09:39:37Z</time>
      </trkpt>
      <trkpt lat="44.81139" lon="6.16713">
        <ele>1548</ele>
        <time>2015-07-12T09:39:47Z</time>
      </trkpt>
      <trkpt lat="44.81143" lon="6.16724">
        <ele>1559</ele>
        <time>2015-07-12T09:39:56Z</time>
      </trkpt>
      <trkpt lat="44.81157" lon="6.16745">
        <ele>1577</ele>
        <time>2015-07-12T09:40:05Z</time>
      </trkpt>
      <trkpt lat="44.81166" lon="6.16756">
        <ele>1604</ele>
        <time>2015-07-12T09:40:15Z</time>
      </trkpt>
      <trkpt lat="44.81173" lon="6.16752">
        <ele>1618</ele>
        <time>2015-07-12T09:40:24Z</time>
      </trkpt>
      <trkpt lat="44.81192" lon="6.16761">
        <ele>1624</ele>
        <time>2015-07-12T09:40:33Z</time>
      </trkpt>
      <trkpt lat="44.81192" lon="6.16761">
        <ele>1635</ele>
        <time>2015-07-12T09:40:43Z</time>
      </trkpt>
      <trkpt lat="44.81193" lon="6.16758">
        <ele>1646</ele>
        <time>2015-07-12T09:40:55Z</time>
      </trkpt>
      <trkpt lat="44.81194" lon="6.16751">
        <ele>1646</ele>
        <time>2015-07-12T09:41:13Z</time>
      </trkpt>
      <trkpt lat="44.81199" lon="6.16746">
        <ele>1638</ele>
        <time>2015-07-12T09:41:24Z</time>
      </trkpt>
      <trkpt lat="44.81192" lon="6.16728">
        <ele>1627</ele>
        <time>2015-07-12T09:41:36Z</time>
      </trkpt>
      <trkpt lat="44.81205" lon="6.16679">
        <ele>1579</ele>
        <time>2015-07-12T09:41:45Z</time>
      </trkpt>
      <trkpt lat="44.81197" lon="6.16675">
        <ele>1574</ele>
        <time>2015-07-12T09:41:54Z</time>
      </trkpt>
      <trkpt lat="44.81199" lon="6.16677">
        <ele>1567</ele>
        <time>2015-07-12T09:42:05Z</time>
      </trkpt>
      <trkpt lat="44.81202" lon="6.16675">
        <ele>1563</ele>
        <time>2015-07-12T09:42:15Z</time>
      </trkpt>
      <trkpt lat="44.81203" lon="6.16678">
        <ele>1563</ele>
        <time>2015-07-12T09:42:30Z</time>
      </trkpt>
      <trkpt lat="44.81191" lon="6.16681">
        <ele>1565</ele>
        <time>2015-07-12T09:42:39Z</time>
      </trkpt>
      <trkpt lat="44.81186" lon="6.16677">
        <ele>1570</ele>
        <time>2015-07-12T09:42:48Z</time>
      </trkpt>
      <trkpt lat="44.81181" lon="6.16672">
        <ele>1572</ele>
        <time>2015-07-12T09:42:57Z</time>
      </trkpt>
      <trkpt lat="44.81174" lon="6.16671">
        <ele>1575</ele>
        <time>2015-07-12T09:43:06Z</time>
      </trkpt>
      <trkpt lat="44.8117" lon="6.16667">
        <ele>1579</ele>
        <time>2015-07-12T09:43:15Z</time>
      </trkpt>
      <trkpt lat="44.81171" lon="6.16664">
        <ele>1579</ele>
        <time>2015-07-12T09:43:28Z</time>
      </trkpt>
      <trkpt lat="44.81165" lon="6.16662">
        <ele>1579</ele>
        <time>2015-07-12T09:43:42Z</time>
      </trkpt>
      <trkpt lat="44.81161" lon="6.16662">
        <ele>1583</ele>
        <time>2015-07-12T09:43:51Z</time>
      </trkpt>
      <trkpt lat="44.81155" lon="6.16659">
        <ele>1588</ele>
        <time>2015-07-12T09:44:02Z</time>
      </trkpt>
      <trkpt lat="44.81155" lon="6.16651">
        <ele>1589</ele>
        <time>2015-07-12T09:44:13Z</time>
      </trkpt>
      <trkpt lat="44.81146" lon="6.1665">
        <ele>1589</ele>
        <time>2015-07-12T09:44:22Z</time>
      </trkpt>
      <trkpt lat="44.81144" lon="6.16646">
        <ele>1586</ele>
        <time>2015-07-12T09:44:34Z</time>
      </trkpt>
      <trkpt lat="44.81142" lon="6.16649">
        <ele>1586</ele>
        <time>2015-07-12T09:44:44Z</time>
      </trkpt>
      <trkpt lat="44.81139" lon="6.16645">
        <ele>1589</ele>
        <time>2015-07-12T09:44:55Z</time>
      </trkpt>
      <trkpt lat="44.81136" lon="6.16641">
        <ele>1590</ele>
        <time>2015-07-12T09:45:04Z</time>
      </trkpt>
      <trkpt lat="44.81131" lon="6.16636">
        <ele>1591</ele>
        <time>2015-07-12T09:45:14Z</time>
      </trkpt>
      <trkpt lat="44.81124" lon="6.16634">
        <ele>1593</ele>
        <time>2015-07-12T09:45:23Z</time>
      </trkpt>
      <trkpt lat="44.81121" lon="6.16633">
        <ele>1593</ele>
        <time>2015-07-12T09:45:32Z</time>
      </trkpt>
      <trkpt lat="44.8112" lon="6.16633">
        <ele>1593</ele>
        <time>2015-07-12T09:45:41Z</time>
      </trkpt>
      <trkpt lat="44.81116" lon="6.16629">
        <ele>1593</ele>
        <time>2015-07-12T09:45:51Z</time>
      </trkpt>
      <trkpt lat="44.81111" lon="6.16627">
        <ele>1593</ele>
        <time>2015-07-12T09:46:00Z</time>
      </trkpt>
      <trkpt lat="44.81107" lon="6.16628">
        <ele>1593</ele>
        <time>2015-07-12T09:46:10Z</time>
      </trkpt>
      <trkpt lat="44.81102" lon="6.16624">
        <ele>1594</ele>
        <time>2015-07-12T09:46:21Z</time>
      </trkpt>
      <trkpt lat="44.81097" lon="6.16624">
        <ele>1595</ele>
        <time>2015-07-12T09:46:31Z</time>
      </trkpt>
      <trkpt lat="44.81093" lon="6.16619">
        <ele>1595</ele>
        <time>2015-07-12T09:46:40Z</time>
      </trkpt>
      <trkpt lat="44.81092" lon="6.16613">
        <ele>1595</ele>
        <time>2015-07-12T09:46:51Z</time>
      </trkpt>
      <trkpt lat="44.81096" lon="6.16613">
        <ele>1596</ele>
        <time>2015-07-12T09:47:02Z</time>
      </trkpt>
      <trkpt lat="44.81099" lon="6.16609">
        <ele>1603</ele>
        <time>2015-07-12T09:47:11Z</time>
      </trkpt>
      <trkpt lat="44.81105" lon="6.16606">
        <ele>1604</ele>
        <time>2015-07-12T09:47:20Z</time>
      </trkpt>
      <trkpt lat="44.8111" lon="6.16603">
        <ele>1606</ele>
        <time>2015-07-12T09:47:30Z</time>
      </trkpt>
      <trkpt lat="44.81117" lon="6.16599">
        <ele>1607</ele>
        <time>2015-07-12T09:47:43Z</time>
      </trkpt>
      <trkpt lat="44.81121" lon="6.16595">
        <ele>1607</ele>
        <time>2015-07-12T09:47:52Z</time>
      </trkpt>
      <trkpt lat="44.81124" lon="6.16592">
        <ele>1602</ele>
        <time>2015-07-12T09:48:01Z</time>
      </trkpt>
      <trkpt lat="44.81126" lon="6.16591">
        <ele>1607</ele>
        <time>2015-07-12T09:48:14Z</time>
      </trkpt>
      <trkpt lat="44.81123" lon="6.16589">
        <ele>1611</ele>
        <time>2015-07-12T09:48:24Z</time>
      </trkpt>
      <trkpt lat="44.81119" lon="6.16587">
        <ele>1615</ele>
        <time>2015-07-12T09:48:35Z</time>
      </trkpt>
      <trkpt lat="44.81114" lon="6.16589">
        <ele>1622</ele>
        <time>2015-07-12T09:48:46Z</time>
      </trkpt>
      <trkpt lat="44.8111" lon="6.16584">
        <ele>1622</ele>
        <time>2015-07-12T09:48:56Z</time>
      </trkpt>
      <trkpt lat="44.81106" lon="6.16582">
        <ele>1622</ele>
        <time>2015-07-12T09:49:09Z</time>
      </trkpt>
      <trkpt lat="44.81103" lon="6.16582">
        <ele>1622</ele>
        <time>2015-07-12T09:49:18Z</time>
      </trkpt>
      <trkpt lat="44.81098" lon="6.16576">
        <ele>1622</ele>
        <time>2015-07-12T09:49:27Z</time>
      </trkpt>
      <trkpt lat="44.81092" lon="6.16574">
        <ele>1623</ele>
        <time>2015-07-12T09:49:36Z</time>
      </trkpt>
      <trkpt lat="44.81086" lon="6.16568">
        <ele>1626</ele>
        <time>2015-07-12T09:49:45Z</time>
      </trkpt>
      <trkpt lat="44.81081" lon="6.16563">
        <ele>1626</ele>
        <time>2015-07-12T09:49:54Z</time>
      </trkpt>
      <trkpt lat="44.81077" lon="6.1656">
        <ele>1626</ele>
        <time>2015-07-12T09:50:05Z</time>
      </trkpt>
      <trkpt lat="44.81074" lon="6.16559">
        <ele>1626</ele>
        <time>2015-07-12T09:50:14Z</time>
      </trkpt>
      <trkpt lat="44.81072" lon="6.16556">
        <ele>1626</ele>
        <time>2015-07-12T09:50:23Z</time>
      </trkpt>
      <trkpt lat="44.81073" lon="6.16553">
        <ele>1626</ele>
        <time>2015-07-12T09:50:35Z</time>
      </trkpt>
      <trkpt lat="44.81073" lon="6.16552">
        <ele>1624</ele>
        <time>2015-07-12T09:50:54Z</time>
      </trkpt>
      <trkpt lat="44.81075" lon="6.16551">
        <ele>1621</ele>
        <time>2015-07-12T09:51:04Z</time>
      </trkpt>
      <trkpt lat="44.81068" lon="6.16554">
        <ele>1623</ele>
        <time>2015-07-12T09:51:15Z</time>
      </trkpt>
      <trkpt lat="44.81064" lon="6.16557">
        <ele>1628</ele>
        <time>2015-07-12T09:51:24Z</time>
      </trkpt>
      <trkpt lat="44.81061" lon="6.16554">
        <ele>1631</ele>
        <time>2015-07-12T09:51:33Z</time>
      </trkpt>
      <trkpt lat="44.81059" lon="6.16552">
        <ele>1631</ele>
        <time>2015-07-12T09:51:44Z</time>
      </trkpt>
      <trkpt lat="44.81056" lon="6.16546">
        <ele>1631</ele>
        <time>2015-07-12T09:51:55Z</time>
      </trkpt>
      <trkpt lat="44.8105" lon="6.16543">
        <ele>1631</ele>
        <time>2015-07-12T09:52:05Z</time>
      </trkpt>
      <trkpt lat="44.81045" lon="6.16543">
        <ele>1631</ele>
        <time>2015-07-12T09:52:15Z</time>
      </trkpt>
      <trkpt lat="44.81038" lon="6.16545">
        <ele>1631</ele>
        <time>2015-07-12T09:52:26Z</time>
      </trkpt>
      <trkpt lat="44.81033" lon="6.16545">
        <ele>1632</ele>
        <time>2015-07-12T09:52:35Z</time>
      </trkpt>
      <trkpt lat="44.81029" lon="6.16544">
        <ele>1633</ele>
        <time>2015-07-12T09:52:45Z</time>
      </trkpt>
      <trkpt lat="44.81029" lon="6.16541">
        <ele>1634</ele>
        <time>2015-07-12T09:52:56Z</time>
      </trkpt>
      <trkpt lat="44.81034" lon="6.16541">
        <ele>1639</ele>
        <time>2015-07-12T09:53:06Z</time>
      </trkpt>
      <trkpt lat="44.81036" lon="6.16534">
        <ele>1640</ele>
        <time>2015-07-12T09:53:17Z</time>
      </trkpt>
      <trkpt lat="44.81038" lon="6.1653">
        <ele>1641</ele>
        <time>2015-07-12T09:53:26Z</time>
      </trkpt>
      <trkpt lat="44.81042" lon="6.16527">
        <ele>1643</ele>
        <time>2015-07-12T09:53:35Z</time>
      </trkpt>
      <trkpt lat="44.81044" lon="6.16522">
        <ele>1644</ele>
        <time>2015-07-12T09:53:47Z</time>
      </trkpt>
      <trkpt lat="44.81049" lon="6.1652">
        <ele>1645</ele>
        <time>2015-07-12T09:53:58Z</time>
      </trkpt>
      <trkpt lat="44.8105" lon="6.16515">
        <ele>1647</ele>
        <time>2015-07-12T09:54:07Z</time>
      </trkpt>
      <trkpt lat="44.81047" lon="6.16511">
        <ele>1648</ele>
        <time>2015-07-12T09:54:17Z</time>
      </trkpt>
      <trkpt lat="44.81044" lon="6.1651">
        <ele>1650</ele>
        <time>2015-07-12T09:54:32Z</time>
      </trkpt>
      <trkpt lat="44.81041" lon="6.16505">
        <ele>1650</ele>
        <time>2015-07-12T09:54:43Z</time>
      </trkpt>
      <trkpt lat="44.81038" lon="6.16501">
        <ele>1650</ele>
        <time>2015-07-12T09:54:54Z</time>
      </trkpt>
      <trkpt lat="44.81034" lon="6.165">
        <ele>1650</ele>
        <time>2015-07-12T09:55:05Z</time>
      </trkpt>
      <trkpt lat="44.81028" lon="6.16498">
        <ele>1651</ele>
        <time>2015-07-12T09:55:16Z</time>
      </trkpt>
      <trkpt lat="44.81024" lon="6.16498">
        <ele>1651</ele>
        <time>2015-07-12T09:55:25Z</time>
      </trkpt>
      <trkpt lat="44.81021" lon="6.16496">
        <ele>1660</ele>
        <time>2015-07-12T09:55:43Z</time>
      </trkpt>
      <trkpt lat="44.81025" lon="6.16489">
        <ele>1661</ele>
        <time>2015-07-12T09:55:54Z</time>
      </trkpt>
      <trkpt lat="44.81027" lon="6.16483">
        <ele>1661</ele>
        <time>2015-07-12T09:56:03Z</time>
      </trkpt>
      <trkpt lat="44.81029" lon="6.16478">
        <ele>1661</ele>
        <time>2015-07-12T09:56:13Z</time>
      </trkpt>
      <trkpt lat="44.81033" lon="6.16475">
        <ele>1661</ele>
        <time>2015-07-12T09:56:22Z</time>
      </trkpt>
      <trkpt lat="44.81037" lon="6.16476">
        <ele>1664</ele>
        <time>2015-07-12T09:56:31Z</time>
      </trkpt>
      <trkpt lat="44.8104" lon="6.16471">
        <ele>1666</ele>
        <time>2015-07-12T09:56:40Z</time>
      </trkpt>
      <trkpt lat="44.81039" lon="6.16462">
        <ele>1662</ele>
        <time>2015-07-12T09:56:51Z</time>
      </trkpt>
      <trkpt lat="44.81045" lon="6.16465">
        <ele>1661</ele>
        <time>2015-07-12T09:57:00Z</time>
      </trkpt>
      <trkpt lat="44.81054" lon="6.16466">
        <ele>1664</ele>
        <time>2015-07-12T09:57:11Z</time>
      </trkpt>
      <trkpt lat="44.81053" lon="6.16461">
        <ele>1669</ele>
        <time>2015-07-12T09:57:25Z</time>
      </trkpt>
      <trkpt lat="44.81051" lon="6.1646">
        <ele>1671</ele>
        <time>2015-07-12T09:57:34Z</time>
      </trkpt>
      <trkpt lat="44.81047" lon="6.16458">
        <ele>1675</ele>
        <time>2015-07-12T09:57:44Z</time>
      </trkpt>
      <trkpt lat="44.81045" lon="6.16454">
        <ele>1675</ele>
        <time>2015-07-12T09:57:56Z</time>
      </trkpt>
      <trkpt lat="44.81043" lon="6.16448">
        <ele>1675</ele>
        <time>2015-07-12T09:58:07Z</time>
      </trkpt>
      <trkpt lat="44.81039" lon="6.16445">
        <ele>1675</ele>
        <time>2015-07-12T09:58:16Z</time>
      </trkpt>
      <trkpt lat="44.81034" lon="6.16442">
        <ele>1675</ele>
        <time>2015-07-12T09:58:25Z</time>
      </trkpt>
      <trkpt lat="44.81029" lon="6.1644">
        <ele>1675</ele>
        <time>2015-07-12T09:58:36Z</time>
      </trkpt>
      <trkpt lat="44.81032" lon="6.16437">
        <ele>1675</ele>
        <time>2015-07-12T09:58:47Z</time>
      </trkpt>
      <trkpt lat="44.81036" lon="6.16434">
        <ele>1675</ele>
        <time>2015-07-12T09:58:59Z</time>
      </trkpt>
      <trkpt lat="44.81042" lon="6.16435">
        <ele>1675</ele>
        <time>2015-07-12T09:59:10Z</time>
      </trkpt>
      <trkpt lat="44.81047" lon="6.16436">
        <ele>1676</ele>
        <time>2015-07-12T09:59:19Z</time>
      </trkpt>
      <trkpt lat="44.81053" lon="6.16436">
        <ele>1679</ele>
        <time>2015-07-12T09:59:29Z</time>
      </trkpt>
      <trkpt lat="44.8106" lon="6.16438">
        <ele>1683</ele>
        <time>2015-07-12T09:59:40Z</time>
      </trkpt>
      <trkpt lat="44.81065" lon="6.16437">
        <ele>1684</ele>
        <time>2015-07-12T09:59:51Z</time>
      </trkpt>
      <trkpt lat="44.81068" lon="6.16435">
        <ele>1687</ele>
        <time>2015-07-12T10:00:00Z</time>
      </trkpt>
      <trkpt lat="44.81075" lon="6.16435">
        <ele>1688</ele>
        <time>2015-07-12T10:00:11Z</time>
      </trkpt>
      <trkpt lat="44.81081" lon="6.16438">
        <ele>1696</ele>
        <time>2015-07-12T10:00:20Z</time>
      </trkpt>
      <trkpt lat="44.81085" lon="6.16437">
        <ele>1701</ele>
        <time>2015-07-12T10:00:31Z</time>
      </trkpt>
      <trkpt lat="44.81092" lon="6.16435">
        <ele>1701</ele>
        <time>2015-07-12T10:00:40Z</time>
      </trkpt>
      <trkpt lat="44.81093" lon="6.16432">
        <ele>1701</ele>
        <time>2015-07-12T10:00:49Z</time>
      </trkpt>
      <trkpt lat="44.81088" lon="6.16428">
        <ele>1700</ele>
        <time>2015-07-12T10:00:59Z</time>
      </trkpt>
      <trkpt lat="44.81083" lon="6.16424">
        <ele>1699</ele>
        <time>2015-07-12T10:01:10Z</time>
      </trkpt>
      <trkpt lat="44.81078" lon="6.16421">
        <ele>1698</ele>
        <time>2015-07-12T10:01:19Z</time>
      </trkpt>
      <trkpt lat="44.81072" lon="6.16417">
        <ele>1697</ele>
        <time>2015-07-12T10:01:29Z</time>
      </trkpt>
      <trkpt lat="44.81068" lon="6.16415">
        <ele>1697</ele>
        <time>2015-07-12T10:01:38Z</time>
      </trkpt>
      <trkpt lat="44.81062" lon="6.16407">
        <ele>1697</ele>
        <time>2015-07-12T10:01:48Z</time>
      </trkpt>
      <trkpt lat="44.81057" lon="6.16404">
        <ele>1697</ele>
        <time>2015-07-12T10:01:58Z</time>
      </trkpt>
      <trkpt lat="44.81051" lon="6.16402">
        <ele>1697</ele>
        <time>2015-07-12T10:02:08Z</time>
      </trkpt>
      <trkpt lat="44.81045" lon="6.16397">
        <ele>1697</ele>
        <time>2015-07-12T10:02:19Z</time>
      </trkpt>
      <trkpt lat="44.8104" lon="6.16393">
        <ele>1697</ele>
        <time>2015-07-12T10:02:29Z</time>
      </trkpt>
      <trkpt lat="44.81035" lon="6.16393">
        <ele>1697</ele>
        <time>2015-07-12T10:02:38Z</time>
      </trkpt>
      <trkpt lat="44.81028" lon="6.16393">
        <ele>1699</ele>
        <time>2015-07-12T10:02:51Z</time>
      </trkpt>
      <trkpt lat="44.81023" lon="6.1639">
        <ele>1701</ele>
        <time>2015-07-12T10:03:00Z</time>
      </trkpt>
      <trkpt lat="44.81017" lon="6.16387">
        <ele>1701</ele>
        <time>2015-07-12T10:03:11Z</time>
      </trkpt>
      <trkpt lat="44.81011" lon="6.16388">
        <ele>1702</ele>
        <time>2015-07-12T10:03:21Z</time>
      </trkpt>
      <trkpt lat="44.81012" lon="6.16389">
        <ele>1706</ele>
        <time>2015-07-12T10:03:30Z</time>
      </trkpt>
      <trkpt lat="44.81018" lon="6.16389">
        <ele>1711</ele>
        <time>2015-07-12T10:03:40Z</time>
      </trkpt>
      <trkpt lat="44.81024" lon="6.16387">
        <ele>1712</ele>
        <time>2015-07-12T10:03:50Z</time>
      </trkpt>
      <trkpt lat="44.81029" lon="6.16382">
        <ele>1712</ele>
        <time>2015-07-12T10:04:02Z</time>
      </trkpt>
      <trkpt lat="44.81034" lon="6.16381">
        <ele>1712</ele>
        <time>2015-07-12T10:04:11Z</time>
      </trkpt>
      <trkpt lat="44.81039" lon="6.16378">
        <ele>1712</ele>
        <time>2015-07-12T10:04:22Z</time>
      </trkpt>
      <trkpt lat="44.81042" lon="6.16374">
        <ele>1712</ele>
        <time>2015-07-12T10:04:31Z</time>
      </trkpt>
      <trkpt lat="44.81048" lon="6.16371">
        <ele>1711</ele>
        <time>2015-07-12T10:04:41Z</time>
      </trkpt>
      <trkpt lat="44.81052" lon="6.16369">
        <ele>1711</ele>
        <time>2015-07-12T10:04:51Z</time>
      </trkpt>
      <trkpt lat="44.81057" lon="6.1637">
        <ele>1711</ele>
        <time>2015-07-12T10:05:00Z</time>
      </trkpt>
      <trkpt lat="44.81062" lon="6.16374">
        <ele>1712</ele>
        <time>2015-07-12T10:05:10Z</time>
      </trkpt>
      <trkpt lat="44.81068" lon="6.16371">
        <ele>1713</ele>
        <time>2015-07-12T10:05:19Z</time>
      </trkpt>
      <trkpt lat="44.81072" lon="6.16366">
        <ele>1713</ele>
        <time>2015-07-12T10:05:29Z</time>
      </trkpt>
      <trkpt lat="44.81077" lon="6.16365">
        <ele>1713</ele>
        <time>2015-07-12T10:05:40Z</time>
      </trkpt>
      <trkpt lat="44.81083" lon="6.16365">
        <ele>1719</ele>
        <time>2015-07-12T10:05:49Z</time>
      </trkpt>
      <trkpt lat="44.81086" lon="6.16361">
        <ele>1719</ele>
        <time>2015-07-12T10:06:01Z</time>
      </trkpt>
      <trkpt lat="44.81086" lon="6.16358">
        <ele>1709</ele>
        <time>2015-07-12T10:06:17Z</time>
      </trkpt>
      <trkpt lat="44.81084" lon="6.16358">
        <ele>1709</ele>
        <time>2015-07-12T10:06:29Z</time>
      </trkpt>
      <trkpt lat="44.81079" lon="6.16352">
        <ele>1714</ele>
        <time>2015-07-12T10:06:40Z</time>
      </trkpt>
      <trkpt lat="44.81074" lon="6.16351">
        <ele>1717</ele>
        <time>2015-07-12T10:06:49Z</time>
      </trkpt>
      <trkpt lat="44.81069" lon="6.1635">
        <ele>1719</ele>
        <time>2015-07-12T10:06:59Z</time>
      </trkpt>
      <trkpt lat="44.81062" lon="6.16348">
        <ele>1722</ele>
        <time>2015-07-12T10:07:09Z</time>
      </trkpt>
      <trkpt lat="44.81056" lon="6.16345">
        <ele>1723</ele>
        <time>2015-07-12T10:07:18Z</time>
      </trkpt>
      <trkpt lat="44.8105" lon="6.16341">
        <ele>1724</ele>
        <time>2015-07-12T10:07:29Z</time>
      </trkpt>
      <trkpt lat="44.81046" lon="6.16338">
        <ele>1724</ele>
        <time>2015-07-12T10:07:38Z</time>
      </trkpt>
      <trkpt lat="44.81041" lon="6.16335">
        <ele>1726</ele>
        <time>2015-07-12T10:07:47Z</time>
      </trkpt>
      <trkpt lat="44.81033" lon="6.16331">
        <ele>1726</ele>
        <time>2015-07-12T10:07:57Z</time>
      </trkpt>
      <trkpt lat="44.81028" lon="6.1633">
        <ele>1728</ele>
        <time>2015-07-12T10:08:07Z</time>
      </trkpt>
      <trkpt lat="44.81022" lon="6.16328">
        <ele>1732</ele>
        <time>2015-07-12T10:08:18Z</time>
      </trkpt>
      <trkpt lat="44.81017" lon="6.16328">
        <ele>1734</ele>
        <time>2015-07-12T10:08:29Z</time>
      </trkpt>
      <trkpt lat="44.81012" lon="6.16328">
        <ele>1736</ele>
        <time>2015-07-12T10:08:38Z</time>
      </trkpt>
      <trkpt lat="44.8101" lon="6.16327">
        <ele>1738</ele>
        <time>2015-07-12T10:08:53Z</time>
      </trkpt>
      <trkpt lat="44.81014" lon="6.16324">
        <ele>1741</ele>
        <time>2015-07-12T10:09:04Z</time>
      </trkpt>
      <trkpt lat="44.81017" lon="6.16322">
        <ele>1741</ele>
        <time>2015-07-12T10:09:15Z</time>
      </trkpt>
      <trkpt lat="44.81021" lon="6.1632">
        <ele>1741</ele>
        <time>2015-07-12T10:09:25Z</time>
      </trkpt>
      <trkpt lat="44.81026" lon="6.16321">
        <ele>1742</ele>
        <time>2015-07-12T10:09:35Z</time>
      </trkpt>
      <trkpt lat="44.8103" lon="6.16319">
        <ele>1742</ele>
        <time>2015-07-12T10:09:44Z</time>
      </trkpt>
      <trkpt lat="44.81035" lon="6.16318">
        <ele>1743</ele>
        <time>2015-07-12T10:09:54Z</time>
      </trkpt>
      <trkpt lat="44.81041" lon="6.16316">
        <ele>1744</ele>
        <time>2015-07-12T10:10:04Z</time>
      </trkpt>
      <trkpt lat="44.81046" lon="6.16313">
        <ele>1744</ele>
        <time>2015-07-12T10:10:13Z</time>
      </trkpt>
      <trkpt lat="44.81053" lon="6.16311">
        <ele>1744</ele>
        <time>2015-07-12T10:10:23Z</time>
      </trkpt>
      <trkpt lat="44.81059" lon="6.16309">
        <ele>1744</ele>
        <time>2015-07-12T10:10:34Z</time>
      </trkpt>
      <trkpt lat="44.81064" lon="6.16307">
        <ele>1744</ele>
        <time>2015-07-12T10:10:44Z</time>
      </trkpt>
      <trkpt lat="44.81068" lon="6.16305">
        <ele>1744</ele>
        <time>2015-07-12T10:10:54Z</time>
      </trkpt>
      <trkpt lat="44.81073" lon="6.16301">
        <ele>1744</ele>
        <time>2015-07-12T10:11:03Z</time>
      </trkpt>
      <trkpt lat="44.81079" lon="6.16294">
        <ele>1744</ele>
        <time>2015-07-12T10:11:13Z</time>
      </trkpt>
      <trkpt lat="44.81084" lon="6.16292">
        <ele>1744</ele>
        <time>2015-07-12T10:11:22Z</time>
      </trkpt>
      <trkpt lat="44.81089" lon="6.16287">
        <ele>1744</ele>
        <time>2015-07-12T10:11:32Z</time>
      </trkpt>
      <trkpt lat="44.81094" lon="6.16283">
        <ele>1744</ele>
        <time>2015-07-12T10:11:42Z</time>
      </trkpt>
      <trkpt lat="44.81099" lon="6.16278">
        <ele>1744</ele>
        <time>2015-07-12T10:11:52Z</time>
      </trkpt>
      <trkpt lat="44.81105" lon="6.16271">
        <ele>1744</ele>
        <time>2015-07-12T10:12:03Z</time>
      </trkpt>
      <trkpt lat="44.81106" lon="6.16266">
        <ele>1745</ele>
        <time>2015-07-12T10:12:15Z</time>
      </trkpt>
      <trkpt lat="44.81104" lon="6.16261">
        <ele>1745</ele>
        <time>2015-07-12T10:12:25Z</time>
      </trkpt>
      <trkpt lat="44.81101" lon="6.16254">
        <ele>1747</ele>
        <time>2015-07-12T10:12:36Z</time>
      </trkpt>
      <trkpt lat="44.81097" lon="6.16252">
        <ele>1749</ele>
        <time>2015-07-12T10:12:45Z</time>
      </trkpt>
      <trkpt lat="44.81099" lon="6.16252">
        <ele>1752</ele>
        <time>2015-07-12T10:12:56Z</time>
      </trkpt>
      <trkpt lat="44.81099" lon="6.16252">
        <ele>1755</ele>
        <time>2015-07-12T10:13:07Z</time>
      </trkpt>
      <trkpt lat="44.81099" lon="6.16254">
        <ele>1755</ele>
        <time>2015-07-12T10:13:19Z</time>
      </trkpt>
      <trkpt lat="44.81093" lon="6.1625">
        <ele>1742</ele>
        <time>2015-07-12T10:13:31Z</time>
      </trkpt>
      <trkpt lat="44.8109" lon="6.16249">
        <ele>1740</ele>
        <time>2015-07-12T10:13:40Z</time>
      </trkpt>
      <trkpt lat="44.81084" lon="6.16251">
        <ele>1745</ele>
        <time>2015-07-12T10:13:50Z</time>
      </trkpt>
      <trkpt lat="44.81079" lon="6.16253">
        <ele>1751</ele>
        <time>2015-07-12T10:14:00Z</time>
      </trkpt>
      <trkpt lat="44.81074" lon="6.16254">
        <ele>1754</ele>
        <time>2015-07-12T10:14:13Z</time>
      </trkpt>
      <trkpt lat="44.8107" lon="6.16255">
        <ele>1754</ele>
        <time>2015-07-12T10:14:23Z</time>
      </trkpt>
      <trkpt lat="44.81067" lon="6.16254">
        <ele>1755</ele>
        <time>2015-07-12T10:14:32Z</time>
      </trkpt>
      <trkpt lat="44.81062" lon="6.16255">
        <ele>1755</ele>
        <time>2015-07-12T10:14:42Z</time>
      </trkpt>
      <trkpt lat="44.81062" lon="6.16252">
        <ele>1755</ele>
        <time>2015-07-12T10:14:51Z</time>
      </trkpt>
      <trkpt lat="44.81055" lon="6.16253">
        <ele>1762</ele>
        <time>2015-07-12T10:15:01Z</time>
      </trkpt>
      <trkpt lat="44.81048" lon="6.16257">
        <ele>1767</ele>
        <time>2015-07-12T10:15:13Z</time>
      </trkpt>
      <trkpt lat="44.81046" lon="6.1626">
        <ele>1771</ele>
        <time>2015-07-12T10:15:23Z</time>
      </trkpt>
      <trkpt lat="44.81038" lon="6.16256">
        <ele>1775</ele>
        <time>2015-07-12T10:15:33Z</time>
      </trkpt>
      <trkpt lat="44.81034" lon="6.16252">
        <ele>1766</ele>
        <time>2015-07-12T10:15:44Z</time>
      </trkpt>
      <trkpt lat="44.81031" lon="6.16251">
        <ele>1764</ele>
        <time>2015-07-12T10:15:53Z</time>
      </trkpt>
      <trkpt lat="44.8103" lon="6.16255">
        <ele>1765</ele>
        <time>2015-07-12T10:16:05Z</time>
      </trkpt>
      <trkpt lat="44.81021" lon="6.16252">
        <ele>1766</ele>
        <time>2015-07-12T10:16:17Z</time>
      </trkpt>
      <trkpt lat="44.81017" lon="6.16247">
        <ele>1766</ele>
        <time>2015-07-12T10:16:27Z</time>
      </trkpt>
      <trkpt lat="44.8101" lon="6.16244">
        <ele>1766</ele>
        <time>2015-07-12T10:16:40Z</time>
      </trkpt>
      <trkpt lat="44.81005" lon="6.16241">
        <ele>1766</ele>
        <time>2015-07-12T10:16:51Z</time>
      </trkpt>
      <trkpt lat="44.80997" lon="6.16247">
        <ele>1769</ele>
        <time>2015-07-12T10:17:01Z</time>
      </trkpt>
      <trkpt lat="44.80994" lon="6.16245">
        <ele>1772</ele>
        <time>2015-07-12T10:17:13Z</time>
      </trkpt>
      <trkpt lat="44.80993" lon="6.16241">
        <ele>1772</ele>
        <time>2015-07-12T10:17:23Z</time>
      </trkpt>
      <trkpt lat="44.80985" lon="6.16245">
        <ele>1783</ele>
        <time>2015-07-12T10:17:37Z</time>
      </trkpt>
      <trkpt lat="44.80981" lon="6.16242">
        <ele>1784</ele>
        <time>2015-07-12T10:17:47Z</time>
      </trkpt>
      <trkpt lat="44.80975" lon="6.16246">
        <ele>1784</ele>
        <time>2015-07-12T10:17:58Z</time>
      </trkpt>
      <trkpt lat="44.80972" lon="6.16251">
        <ele>1789</ele>
        <time>2015-07-12T10:18:08Z</time>
      </trkpt>
      <trkpt lat="44.80962" lon="6.16254">
        <ele>1799</ele>
        <time>2015-07-12T10:18:20Z</time>
      </trkpt>
      <trkpt lat="44.80967" lon="6.16249">
        <ele>1802</ele>
        <time>2015-07-12T10:18:32Z</time>
      </trkpt>
      <trkpt lat="44.80966" lon="6.1625">
        <ele>1798</ele>
        <time>2015-07-12T10:18:47Z</time>
      </trkpt>
      <trkpt lat="44.80969" lon="6.16242">
        <ele>1798</ele>
        <time>2015-07-12T10:18:57Z</time>
      </trkpt>
      <trkpt lat="44.80977" lon="6.16238">
        <ele>1802</ele>
        <time>2015-07-12T10:19:13Z</time>
      </trkpt>
      <trkpt lat="44.80983" lon="6.1623">
        <ele>1801</ele>
        <time>2015-07-12T10:19:24Z</time>
      </trkpt>
      <trkpt lat="44.80988" lon="6.16221">
        <ele>1792</ele>
        <time>2015-07-12T10:19:35Z</time>
      </trkpt>
      <trkpt lat="44.80992" lon="6.16222">
        <ele>1790</ele>
        <time>2015-07-12T10:19:44Z</time>
      </trkpt>
      <trkpt lat="44.80997" lon="6.16223">
        <ele>1795</ele>
        <time>2015-07-12T10:19:57Z</time>
      </trkpt>
      <trkpt lat="44.81004" lon="6.16219">
        <ele>1796</ele>
        <time>2015-07-12T10:20:07Z</time>
      </trkpt>
      <trkpt lat="44.81008" lon="6.1622">
        <ele>1796</ele>
        <time>2015-07-12T10:20:21Z</time>
      </trkpt>
      <trkpt lat="44.81014" lon="6.16214">
        <ele>1802</ele>
        <time>2015-07-12T10:20:31Z</time>
      </trkpt>
      <trkpt lat="44.81015" lon="6.1621">
        <ele>1805</ele>
        <time>2015-07-12T10:20:43Z</time>
      </trkpt>
      <trkpt lat="44.81017" lon="6.16209">
        <ele>1813</ele>
        <time>2015-07-12T10:20:52Z</time>
      </trkpt>
      <trkpt lat="44.81021" lon="6.16202">
        <ele>1814</ele>
        <time>2015-07-12T10:21:01Z</time>
      </trkpt>
      <trkpt lat="44.81028" lon="6.16195">
        <ele>1816</ele>
        <time>2015-07-12T10:21:13Z</time>
      </trkpt>
      <trkpt lat="44.81033" lon="6.16188">
        <ele>1816</ele>
        <time>2015-07-12T10:21:23Z</time>
      </trkpt>
      <trkpt lat="44.8104" lon="6.16178">
        <ele>1816</ele>
        <time>2015-07-12T10:21:32Z</time>
      </trkpt>
      <trkpt lat="44.81037" lon="6.16168">
        <ele>1808</ele>
        <time>2015-07-12T10:21:41Z</time>
      </trkpt>
      <trkpt lat="44.8103" lon="6.16165">
        <ele>1798</ele>
        <time>2015-07-12T10:21:50Z</time>
      </trkpt>
      <trkpt lat="44.81021" lon="6.16162">
        <ele>1790</ele>
        <time>2015-07-12T10:22:00Z</time>
      </trkpt>
      <trkpt lat="44.81011" lon="6.16164">
        <ele>1790</ele>
        <time>2015-07-12T10:22:09Z</time>
      </trkpt>
      <trkpt lat="44.81004" lon="6.1616">
        <ele>1797</ele>
        <time>2015-07-12T10:22:19Z</time>
      </trkpt>
      <trkpt lat="44.81006" lon="6.16153">
        <ele>1800</ele>
        <time>2015-07-12T10:22:28Z</time>
      </trkpt>
      <trkpt lat="44.81001" lon="6.16146">
        <ele>1805</ele>
        <time>2015-07-12T10:22:39Z</time>
      </trkpt>
      <trkpt lat="44.80996" lon="6.16147">
        <ele>1804</ele>
        <time>2015-07-12T10:22:48Z</time>
      </trkpt>
      <trkpt lat="44.80991" lon="6.16144">
        <ele>1809</ele>
        <time>2015-07-12T10:22:57Z</time>
      </trkpt>
      <trkpt lat="44.80981" lon="6.16141">
        <ele>1810</ele>
        <time>2015-07-12T10:23:08Z</time>
      </trkpt>
      <trkpt lat="44.80975" lon="6.16137">
        <ele>1810</ele>
        <time>2015-07-12T10:23:17Z</time>
      </trkpt>
      <trkpt lat="44.80971" lon="6.16131">
        <ele>1802</ele>
        <time>2015-07-12T10:23:27Z</time>
      </trkpt>
      <trkpt lat="44.80968" lon="6.1613">
        <ele>1799</ele>
        <time>2015-07-12T10:23:37Z</time>
      </trkpt>
      <trkpt lat="44.80966" lon="6.16136">
        <ele>1797</ele>
        <time>2015-07-12T10:23:46Z</time>
      </trkpt>
      <trkpt lat="44.80963" lon="6.16143">
        <ele>1805</ele>
        <time>2015-07-12T10:23:55Z</time>
      </trkpt>
      <trkpt lat="44.80973" lon="6.16153">
        <ele>1814</ele>
        <time>2015-07-12T10:24:05Z</time>
      </trkpt>
      <trkpt lat="44.80972" lon="6.16162">
        <ele>1823</ele>
        <time>2015-07-12T10:24:21Z</time>
      </trkpt>
      <trkpt lat="44.80968" lon="6.16164">
        <ele>1822</ele>
        <time>2015-07-12T10:24:32Z</time>
      </trkpt>
      <trkpt lat="44.80963" lon="6.16171">
        <ele>1822</ele>
        <time>2015-07-12T10:24:41Z</time>
      </trkpt>
      <trkpt lat="44.80952" lon="6.1618">
        <ele>1828</ele>
        <time>2015-07-12T10:24:50Z</time>
      </trkpt>
      <trkpt lat="44.80947" lon="6.16186">
        <ele>1834</ele>
        <time>2015-07-12T10:24:59Z</time>
      </trkpt>
      <trkpt lat="44.80941" lon="6.16184">
        <ele>1836</ele>
        <time>2015-07-12T10:25:10Z</time>
      </trkpt>
      <trkpt lat="44.80937" lon="6.16186">
        <ele>1832</ele>
        <time>2015-07-12T10:25:19Z</time>
      </trkpt>
      <trkpt lat="44.8093" lon="6.16194">
        <ele>1824</ele>
        <time>2015-07-12T10:25:30Z</time>
      </trkpt>
      <trkpt lat="44.80927" lon="6.16202">
        <ele>1820</ele>
        <time>2015-07-12T10:25:40Z</time>
      </trkpt>
      <trkpt lat="44.80924" lon="6.16209">
        <ele>1822</ele>
        <time>2015-07-12T10:25:49Z</time>
      </trkpt>
      <trkpt lat="44.80918" lon="6.16216">
        <ele>1826</ele>
        <time>2015-07-12T10:26:00Z</time>
      </trkpt>
      <trkpt lat="44.80915" lon="6.16218">
        <ele>1829</ele>
        <time>2015-07-12T10:26:09Z</time>
      </trkpt>
      <trkpt lat="44.80911" lon="6.16221">
        <ele>1835</ele>
        <time>2015-07-12T10:26:18Z</time>
      </trkpt>
      <trkpt lat="44.80908" lon="6.16216">
        <ele>1835</ele>
        <time>2015-07-12T10:26:27Z</time>
      </trkpt>
      <trkpt lat="44.80898" lon="6.16214">
        <ele>1833</ele>
        <time>2015-07-12T10:26:37Z</time>
      </trkpt>
      <trkpt lat="44.80892" lon="6.16218">
        <ele>1828</ele>
        <time>2015-07-12T10:26:47Z</time>
      </trkpt>
      <trkpt lat="44.80888" lon="6.16228">
        <ele>1824</ele>
        <time>2015-07-12T10:26:56Z</time>
      </trkpt>
      <trkpt lat="44.80886" lon="6.16227">
        <ele>1829</ele>
        <time>2015-07-12T10:27:05Z</time>
      </trkpt>
      <trkpt lat="44.80878" lon="6.16228">
        <ele>1831</ele>
        <time>2015-07-12T10:27:14Z</time>
      </trkpt>
      <trkpt lat="44.80871" lon="6.1623">
        <ele>1832</ele>
        <time>2015-07-12T10:27:23Z</time>
      </trkpt>
      <trkpt lat="44.80865" lon="6.16237">
        <ele>1836</ele>
        <time>2015-07-12T10:27:32Z</time>
      </trkpt>
      <trkpt lat="44.80858" lon="6.16237">
        <ele>1843</ele>
        <time>2015-07-12T10:27:43Z</time>
      </trkpt>
      <trkpt lat="44.80855" lon="6.16246">
        <ele>1843</ele>
        <time>2015-07-12T10:27:52Z</time>
      </trkpt>
      <trkpt lat="44.80849" lon="6.16251">
        <ele>1843</ele>
        <time>2015-07-12T10:28:02Z</time>
      </trkpt>
      <trkpt lat="44.80847" lon="6.16245">
        <ele>1838</ele>
        <time>2015-07-12T10:28:11Z</time>
      </trkpt>
      <trkpt lat="44.80841" lon="6.16248">
        <ele>1837</ele>
        <time>2015-07-12T10:28:21Z</time>
      </trkpt>
      <trkpt lat="44.80835" lon="6.1625">
        <ele>1839</ele>
        <time>2015-07-12T10:28:31Z</time>
      </trkpt>
      <trkpt lat="44.80829" lon="6.16255">
        <ele>1839</ele>
        <time>2015-07-12T10:28:40Z</time>
      </trkpt>
      <trkpt lat="44.80824" lon="6.1626">
        <ele>1839</ele>
        <time>2015-07-12T10:28:49Z</time>
      </trkpt>
      <trkpt lat="44.80818" lon="6.16263">
        <ele>1841</ele>
        <time>2015-07-12T10:28:58Z</time>
      </trkpt>
      <trkpt lat="44.80815" lon="6.16265">
        <ele>1842</ele>
        <time>2015-07-12T10:29:07Z</time>
      </trkpt>
      <trkpt lat="44.80808" lon="6.16267">
        <ele>1841</ele>
        <time>2015-07-12T10:29:16Z</time>
      </trkpt>
      <trkpt lat="44.808" lon="6.1627">
        <ele>1841</ele>
        <time>2015-07-12T10:29:28Z</time>
      </trkpt>
      <trkpt lat="44.80794" lon="6.16274">
        <ele>1844</ele>
        <time>2015-07-12T10:29:39Z</time>
      </trkpt>
      <trkpt lat="44.80785" lon="6.16276">
        <ele>1844</ele>
        <time>2015-07-12T10:29:49Z</time>
      </trkpt>
      <trkpt lat="44.8078" lon="6.16276">
        <ele>1842</ele>
        <time>2015-07-12T10:29:58Z</time>
      </trkpt>
      <trkpt lat="44.80775" lon="6.16277">
        <ele>1842</ele>
        <time>2015-07-12T10:30:07Z</time>
      </trkpt>
      <trkpt lat="44.80767" lon="6.16281">
        <ele>1841</ele>
        <time>2015-07-12T10:30:18Z</time>
      </trkpt>
      <trkpt lat="44.8076" lon="6.1629">
        <ele>1841</ele>
        <time>2015-07-12T10:30:28Z</time>
      </trkpt>
      <trkpt lat="44.80755" lon="6.16297">
        <ele>1841</ele>
        <time>2015-07-12T10:30:38Z</time>
      </trkpt>
      <trkpt lat="44.80751" lon="6.16307">
        <ele>1844</ele>
        <time>2015-07-12T10:30:47Z</time>
      </trkpt>
      <trkpt lat="44.80746" lon="6.16308">
        <ele>1844</ele>
        <time>2015-07-12T10:30:56Z</time>
      </trkpt>
      <trkpt lat="44.8074" lon="6.16316">
        <ele>1847</ele>
        <time>2015-07-12T10:31:07Z</time>
      </trkpt>
      <trkpt lat="44.80735" lon="6.16318">
        <ele>1847</ele>
        <time>2015-07-12T10:31:17Z</time>
      </trkpt>
      <trkpt lat="44.80732" lon="6.16324">
        <ele>1847</ele>
        <time>2015-07-12T10:31:26Z</time>
      </trkpt>
      <trkpt lat="44.80728" lon="6.16325">
        <ele>1848</ele>
        <time>2015-07-12T10:31:35Z</time>
      </trkpt>
      <trkpt lat="44.80721" lon="6.16328">
        <ele>1848</ele>
        <time>2015-07-12T10:31:45Z</time>
      </trkpt>
      <trkpt lat="44.80717" lon="6.16333">
        <ele>1848</ele>
        <time>2015-07-12T10:31:54Z</time>
      </trkpt>
      <trkpt lat="44.80714" lon="6.16342">
        <ele>1850</ele>
        <time>2015-07-12T10:32:04Z</time>
      </trkpt>
      <trkpt lat="44.80709" lon="6.16348">
        <ele>1850</ele>
        <time>2015-07-12T10:32:15Z</time>
      </trkpt>
      <trkpt lat="44.80705" lon="6.16352">
        <ele>1850</ele>
        <time>2015-07-12T10:32:24Z</time>
      </trkpt>
      <trkpt lat="44.80701" lon="6.16359">
        <ele>1850</ele>
        <time>2015-07-12T10:32:33Z</time>
      </trkpt>
      <trkpt lat="44.80699" lon="6.16357">
        <ele>1851</ele>
        <time>2015-07-12T10:32:44Z</time>
      </trkpt>
      <trkpt lat="44.80698" lon="6.16356">
        <ele>1853</ele>
        <time>2015-07-12T10:32:54Z</time>
      </trkpt>
      <trkpt lat="44.807" lon="6.16357">
        <ele>1860</ele>
        <time>2015-07-12T10:33:05Z</time>
      </trkpt>
      <trkpt lat="44.80701" lon="6.16352">
        <ele>1860</ele>
        <time>2015-07-12T10:33:16Z</time>
      </trkpt>
      <trkpt lat="44.80704" lon="6.16342">
        <ele>1860</ele>
        <time>2015-07-12T10:33:26Z</time>
      </trkpt>
      <trkpt lat="44.80705" lon="6.16334">
        <ele>1860</ele>
        <time>2015-07-12T10:33:36Z</time>
      </trkpt>
      <trkpt lat="44.80706" lon="6.16327">
        <ele>1859</ele>
        <time>2015-07-12T10:33:45Z</time>
      </trkpt>
      <trkpt lat="44.80711" lon="6.16321">
        <ele>1859</ele>
        <time>2015-07-12T10:33:55Z</time>
      </trkpt>
      <trkpt lat="44.80715" lon="6.16316">
        <ele>1861</ele>
        <time>2015-07-12T10:34:05Z</time>
      </trkpt>
      <trkpt lat="44.80716" lon="6.16305">
        <ele>1864</ele>
        <time>2015-07-12T10:34:16Z</time>
      </trkpt>
      <trkpt lat="44.80722" lon="6.16301">
        <ele>1866</ele>
        <time>2015-07-12T10:34:26Z</time>
      </trkpt>
      <trkpt lat="44.80724" lon="6.16293">
        <ele>1866</ele>
        <time>2015-07-12T10:34:37Z</time>
      </trkpt>
      <trkpt lat="44.80727" lon="6.16289">
        <ele>1872</ele>
        <time>2015-07-12T10:34:48Z</time>
      </trkpt>
      <trkpt lat="44.80721" lon="6.16281">
        <ele>1873</ele>
        <time>2015-07-12T10:34:57Z</time>
      </trkpt>
      <trkpt lat="44.80716" lon="6.1628">
        <ele>1872</ele>
        <time>2015-07-12T10:35:12Z</time>
      </trkpt>
      <trkpt lat="44.80712" lon="6.16282">
        <ele>1866</ele>
        <time>2015-07-12T10:35:21Z</time>
      </trkpt>
      <trkpt lat="44.80707" lon="6.16284">
        <ele>1866</ele>
        <time>2015-07-12T10:35:31Z</time>
      </trkpt>
      <trkpt lat="44.80701" lon="6.16289">
        <ele>1866</ele>
        <time>2015-07-12T10:35:42Z</time>
      </trkpt>
      <trkpt lat="44.80696" lon="6.16299">
        <ele>1871</ele>
        <time>2015-07-12T10:35:51Z</time>
      </trkpt>
      <trkpt lat="44.80692" lon="6.16299">
        <ele>1875</ele>
        <time>2015-07-12T10:36:02Z</time>
      </trkpt>
      <trkpt lat="44.80686" lon="6.16302">
        <ele>1876</ele>
        <time>2015-07-12T10:36:11Z</time>
      </trkpt>
      <trkpt lat="44.80683" lon="6.16305">
        <ele>1880</ele>
        <time>2015-07-12T10:36:25Z</time>
      </trkpt>
      <trkpt lat="44.80678" lon="6.16308">
        <ele>1880</ele>
        <time>2015-07-12T10:36:35Z</time>
      </trkpt>
      <trkpt lat="44.80672" lon="6.16315">
        <ele>1880</ele>
        <time>2015-07-12T10:36:49Z</time>
      </trkpt>
      <trkpt lat="44.80671" lon="6.16315">
        <ele>1880</ele>
        <time>2015-07-12T10:36:58Z</time>
      </trkpt>
      <trkpt lat="44.80673" lon="6.16314">
        <ele>1880</ele>
        <time>2015-07-12T10:37:07Z</time>
      </trkpt>
      <trkpt lat="44.80676" lon="6.16308">
        <ele>1882</ele>
        <time>2015-07-12T10:37:17Z</time>
      </trkpt>
      <trkpt lat="44.80675" lon="6.16304">
        <ele>1884</ele>
        <time>2015-07-12T10:37:29Z</time>
      </trkpt>
      <trkpt lat="44.8068" lon="6.16298">
        <ele>1892</ele>
        <time>2015-07-12T10:37:45Z</time>
      </trkpt>
      <trkpt lat="44.80682" lon="6.16288">
        <ele>1896</ele>
        <time>2015-07-12T10:37:57Z</time>
      </trkpt>
      <trkpt lat="44.80684" lon="6.16282">
        <ele>1896</ele>
        <time>2015-07-12T10:38:08Z</time>
      </trkpt>
      <trkpt lat="44.80686" lon="6.16278">
        <ele>1896</ele>
        <time>2015-07-12T10:38:21Z</time>
      </trkpt>
      <trkpt lat="44.8069" lon="6.16267">
        <ele>1896</ele>
        <time>2015-07-12T10:38:30Z</time>
      </trkpt>
      <trkpt lat="44.8069" lon="6.16258">
        <ele>1896</ele>
        <time>2015-07-12T10:38:40Z</time>
      </trkpt>
      <trkpt lat="44.80691" lon="6.16253">
        <ele>1895</ele>
        <time>2015-07-12T10:38:51Z</time>
      </trkpt>
      <trkpt lat="44.80694" lon="6.1625">
        <ele>1895</ele>
        <time>2015-07-12T10:39:00Z</time>
      </trkpt>
      <trkpt lat="44.80695" lon="6.16245">
        <ele>1895</ele>
        <time>2015-07-12T10:39:10Z</time>
      </trkpt>
      <trkpt lat="44.80701" lon="6.16241">
        <ele>1895</ele>
        <time>2015-07-12T10:39:19Z</time>
      </trkpt>
      <trkpt lat="44.80701" lon="6.16236">
        <ele>1895</ele>
        <time>2015-07-12T10:39:28Z</time>
      </trkpt>
      <trkpt lat="44.80698" lon="6.16236">
        <ele>1897</ele>
        <time>2015-07-12T10:39:37Z</time>
      </trkpt>
      <trkpt lat="44.80693" lon="6.16227">
        <ele>1893</ele>
        <time>2015-07-12T10:39:48Z</time>
      </trkpt>
      <trkpt lat="44.80687" lon="6.16234">
        <ele>1892</ele>
        <time>2015-07-12T10:40:00Z</time>
      </trkpt>
      <trkpt lat="44.8068" lon="6.16241">
        <ele>1893</ele>
        <time>2015-07-12T10:40:09Z</time>
      </trkpt>
      <trkpt lat="44.80678" lon="6.16242">
        <ele>1895</ele>
        <time>2015-07-12T10:40:19Z</time>
      </trkpt>
      <trkpt lat="44.80672" lon="6.16251">
        <ele>1903</ele>
        <time>2015-07-12T10:40:29Z</time>
      </trkpt>
      <trkpt lat="44.80667" lon="6.16253">
        <ele>1907</ele>
        <time>2015-07-12T10:40:41Z</time>
      </trkpt>
      <trkpt lat="44.8066" lon="6.16256">
        <ele>1907</ele>
        <time>2015-07-12T10:40:53Z</time>
      </trkpt>
      <trkpt lat="44.80657" lon="6.16258">
        <ele>1909</ele>
        <time>2015-07-12T10:41:09Z</time>
      </trkpt>
      <trkpt lat="44.80658" lon="6.16249">
        <ele>1909</ele>
        <time>2015-07-12T10:41:18Z</time>
      </trkpt>
      <trkpt lat="44.80654" lon="6.16254">
        <ele>1905</ele>
        <time>2015-07-12T10:41:28Z</time>
      </trkpt>
      <trkpt lat="44.80648" lon="6.16258">
        <ele>1902</ele>
        <time>2015-07-12T10:41:37Z</time>
      </trkpt>
      <trkpt lat="44.80645" lon="6.16265">
        <ele>1904</ele>
        <time>2015-07-12T10:41:47Z</time>
      </trkpt>
      <trkpt lat="44.80636" lon="6.16266">
        <ele>1905</ele>
        <time>2015-07-12T10:41:56Z</time>
      </trkpt>
      <trkpt lat="44.8064" lon="6.16274">
        <ele>1911</ele>
        <time>2015-07-12T10:42:05Z</time>
      </trkpt>
      <trkpt lat="44.80643" lon="6.16275">
        <ele>1916</ele>
        <time>2015-07-12T10:42:17Z</time>
      </trkpt>
      <trkpt lat="44.80639" lon="6.16278">
        <ele>1917</ele>
        <time>2015-07-12T10:42:27Z</time>
      </trkpt>
      <trkpt lat="44.80639" lon="6.16292">
        <ele>1919</ele>
        <time>2015-07-12T10:42:36Z</time>
      </trkpt>
      <trkpt lat="44.80637" lon="6.163">
        <ele>1922</ele>
        <time>2015-07-12T10:42:49Z</time>
      </trkpt>
      <trkpt lat="44.8064" lon="6.163">
        <ele>1922</ele>
        <time>2015-07-12T10:43:00Z</time>
      </trkpt>
      <trkpt lat="44.8064" lon="6.16299">
        <ele>1922</ele>
        <time>2015-07-12T10:43:09Z</time>
      </trkpt>
      <trkpt lat="44.80643" lon="6.16311">
        <ele>1927</ele>
        <time>2015-07-12T10:43:18Z</time>
      </trkpt>
      <trkpt lat="44.80641" lon="6.16311">
        <ele>1930</ele>
        <time>2015-07-12T10:43:28Z</time>
      </trkpt>
      <trkpt lat="44.80647" lon="6.16311">
        <ele>1934</ele>
        <time>2015-07-12T10:43:40Z</time>
      </trkpt>
      <trkpt lat="44.80645" lon="6.16307">
        <ele>1934</ele>
        <time>2015-07-12T10:43:51Z</time>
      </trkpt>
      <trkpt lat="44.80638" lon="6.16297">
        <ele>1928</ele>
        <time>2015-07-12T10:44:01Z</time>
      </trkpt>
      <trkpt lat="44.80635" lon="6.16279">
        <ele>1928</ele>
        <time>2015-07-12T10:44:11Z</time>
      </trkpt>
      <trkpt lat="44.80623" lon="6.16282">
        <ele>1927</ele>
        <time>2015-07-12T10:44:20Z</time>
      </trkpt>
      <trkpt lat="44.80629" lon="6.16284">
        <ele>1926</ele>
        <time>2015-07-12T10:44:30Z</time>
      </trkpt>
      <trkpt lat="44.80639" lon="6.16286">
        <ele>1932</ele>
        <time>2015-07-12T10:44:41Z</time>
      </trkpt>
      <trkpt lat="44.80638" lon="6.1629">
        <ele>1932</ele>
        <time>2015-07-12T10:44:50Z</time>
      </trkpt>
      <trkpt lat="44.80636" lon="6.16299">
        <ele>1924</ele>
        <time>2015-07-12T10:45:00Z</time>
      </trkpt>
      <trkpt lat="44.80627" lon="6.16305">
        <ele>1918</ele>
        <time>2015-07-12T10:45:10Z</time>
      </trkpt>
      <trkpt lat="44.80628" lon="6.16314">
        <ele>1918</ele>
        <time>2015-07-12T10:45:24Z</time>
      </trkpt>
      <trkpt lat="44.80626" lon="6.16321">
        <ele>1918</ele>
        <time>2015-07-12T10:45:34Z</time>
      </trkpt>
      <trkpt lat="44.8063" lon="6.16324">
        <ele>1919</ele>
        <time>2015-07-12T10:45:44Z</time>
      </trkpt>
      <trkpt lat="44.80628" lon="6.16326">
        <ele>1923</ele>
        <time>2015-07-12T10:45:58Z</time>
      </trkpt>
      <trkpt lat="44.80625" lon="6.1633">
        <ele>1925</ele>
        <time>2015-07-12T10:46:08Z</time>
      </trkpt>
      <trkpt lat="44.80624" lon="6.16336">
        <ele>1925</ele>
        <time>2015-07-12T10:46:21Z</time>
      </trkpt>
      <trkpt lat="44.80624" lon="6.16344">
        <ele>1924</ele>
        <time>2015-07-12T10:46:31Z</time>
      </trkpt>
      <trkpt lat="44.80624" lon="6.16354">
        <ele>1924</ele>
        <time>2015-07-12T10:46:43Z</time>
      </trkpt>
      <trkpt lat="44.80619" lon="6.16359">
        <ele>1925</ele>
        <time>2015-07-12T10:46:53Z</time>
      </trkpt>
      <trkpt lat="44.80614" lon="6.16367">
        <ele>1928</ele>
        <time>2015-07-12T10:47:03Z</time>
      </trkpt>
      <trkpt lat="44.8061" lon="6.16374">
        <ele>1928</ele>
        <time>2015-07-12T10:47:12Z</time>
      </trkpt>
      <trkpt lat="44.80607" lon="6.16378">
        <ele>1928</ele>
        <time>2015-07-12T10:47:22Z</time>
      </trkpt>
      <trkpt lat="44.80604" lon="6.16382">
        <ele>1929</ele>
        <time>2015-07-12T10:47:33Z</time>
      </trkpt>
      <trkpt lat="44.80602" lon="6.16387">
        <ele>1929</ele>
        <time>2015-07-12T10:47:42Z</time>
      </trkpt>
      <trkpt lat="44.806" lon="6.16394">
        <ele>1929</ele>
        <time>2015-07-12T10:47:51Z</time>
      </trkpt>
      <trkpt lat="44.80598" lon="6.164">
        <ele>1929</ele>
        <time>2015-07-12T10:48:00Z</time>
      </trkpt>
      <trkpt lat="44.80596" lon="6.1641">
        <ele>1929</ele>
        <time>2015-07-12T10:48:10Z</time>
      </trkpt>
      <trkpt lat="44.80594" lon="6.16419">
        <ele>1930</ele>
        <time>2015-07-12T10:48:21Z</time>
      </trkpt>
      <trkpt lat="44.80591" lon="6.16424">
        <ele>1936</ele>
        <time>2015-07-12T10:48:33Z</time>
      </trkpt>
      <trkpt lat="44.80586" lon="6.16425">
        <ele>1936</ele>
        <time>2015-07-12T10:48:45Z</time>
      </trkpt>
      <trkpt lat="44.8058" lon="6.16433">
        <ele>1936</ele>
        <time>2015-07-12T10:48:54Z</time>
      </trkpt>
      <trkpt lat="44.80582" lon="6.16441">
        <ele>1936</ele>
        <time>2015-07-12T10:49:04Z</time>
      </trkpt>
      <trkpt lat="44.80579" lon="6.16443">
        <ele>1936</ele>
        <time>2015-07-12T10:49:18Z</time>
      </trkpt>
      <trkpt lat="44.8058" lon="6.16445">
        <ele>1940</ele>
        <time>2015-07-12T10:49:28Z</time>
      </trkpt>
      <trkpt lat="44.80578" lon="6.16452">
        <ele>1941</ele>
        <time>2015-07-12T10:49:40Z</time>
      </trkpt>
      <trkpt lat="44.80576" lon="6.16456">
        <ele>1941</ele>
        <time>2015-07-12T10:49:51Z</time>
      </trkpt>
      <trkpt lat="44.80575" lon="6.16461">
        <ele>1941</ele>
        <time>2015-07-12T10:50:00Z</time>
      </trkpt>
      <trkpt lat="44.80571" lon="6.16466">
        <ele>1942</ele>
        <time>2015-07-12T10:50:10Z</time>
      </trkpt>
      <trkpt lat="44.80572" lon="6.16467">
        <ele>1940</ele>
        <time>2015-07-12T10:50:22Z</time>
      </trkpt>
      <trkpt lat="44.8057" lon="6.16471">
        <ele>1940</ele>
        <time>2015-07-12T10:50:31Z</time>
      </trkpt>
      <trkpt lat="44.8057" lon="6.16474">
        <ele>1944</ele>
        <time>2015-07-12T10:50:40Z</time>
      </trkpt>
      <trkpt lat="44.80568" lon="6.16479">
        <ele>1944</ele>
        <time>2015-07-12T10:50:50Z</time>
      </trkpt>
      <trkpt lat="44.80564" lon="6.16486">
        <ele>1944</ele>
        <time>2015-07-12T10:51:00Z</time>
      </trkpt>
      <trkpt lat="44.80563" lon="6.16493">
        <ele>1944</ele>
        <time>2015-07-12T10:51:10Z</time>
      </trkpt>
      <trkpt lat="44.80562" lon="6.16491">
        <ele>1944</ele>
        <time>2015-07-12T10:51:22Z</time>
      </trkpt>
      <trkpt lat="44.80559" lon="6.16488">
        <ele>1944</ele>
        <time>2015-07-12T10:51:32Z</time>
      </trkpt>
      <trkpt lat="44.80559" lon="6.16485">
        <ele>1946</ele>
        <time>2015-07-12T10:51:41Z</time>
      </trkpt>
      <trkpt lat="44.80558" lon="6.16476">
        <ele>1948</ele>
        <time>2015-07-12T10:51:51Z</time>
      </trkpt>
      <trkpt lat="44.80553" lon="6.16474">
        <ele>1948</ele>
        <time>2015-07-12T10:52:00Z</time>
      </trkpt>
      <trkpt lat="44.80553" lon="6.1647">
        <ele>1948</ele>
        <time>2015-07-12T10:52:09Z</time>
      </trkpt>
      <trkpt lat="44.80555" lon="6.16467">
        <ele>1949</ele>
        <time>2015-07-12T10:52:20Z</time>
      </trkpt>
      <trkpt lat="44.80556" lon="6.16461">
        <ele>1954</ele>
        <time>2015-07-12T10:52:34Z</time>
      </trkpt>
      <trkpt lat="44.80557" lon="6.16456">
        <ele>1956</ele>
        <time>2015-07-12T10:52:43Z</time>
      </trkpt>
      <trkpt lat="44.80555" lon="6.16447">
        <ele>1956</ele>
        <time>2015-07-12T10:52:53Z</time>
      </trkpt>
      <trkpt lat="44.80555" lon="6.1644">
        <ele>1956</ele>
        <time>2015-07-12T10:53:05Z</time>
      </trkpt>
      <trkpt lat="44.80552" lon="6.16436">
        <ele>1956</ele>
        <time>2015-07-12T10:53:14Z</time>
      </trkpt>
      <trkpt lat="44.8055" lon="6.16429">
        <ele>1956</ele>
        <time>2015-07-12T10:53:24Z</time>
      </trkpt>
      <trkpt lat="44.80548" lon="6.16425">
        <ele>1961</ele>
        <time>2015-07-12T10:53:36Z</time>
      </trkpt>
      <trkpt lat="44.80547" lon="6.1643">
        <ele>1961</ele>
        <time>2015-07-12T10:53:46Z</time>
      </trkpt>
      <trkpt lat="44.80546" lon="6.16438">
        <ele>1965</ele>
        <time>2015-07-12T10:54:00Z</time>
      </trkpt>
      <trkpt lat="44.80542" lon="6.16442">
        <ele>1965</ele>
        <time>2015-07-12T10:54:09Z</time>
      </trkpt>
      <trkpt lat="44.8054" lon="6.16439">
        <ele>1965</ele>
        <time>2015-07-12T10:54:18Z</time>
      </trkpt>
      <trkpt lat="44.80538" lon="6.16437">
        <ele>1965</ele>
        <time>2015-07-12T10:54:27Z</time>
      </trkpt>
      <trkpt lat="44.80534" lon="6.16433">
        <ele>1964</ele>
        <time>2015-07-12T10:54:37Z</time>
      </trkpt>
      <trkpt lat="44.80533" lon="6.16431">
        <ele>1963</ele>
        <time>2015-07-12T10:54:49Z</time>
      </trkpt>
      <trkpt lat="44.80535" lon="6.16433">
        <ele>1964</ele>
        <time>2015-07-12T10:54:58Z</time>
      </trkpt>
      <trkpt lat="44.80534" lon="6.16438">
        <ele>1967</ele>
        <time>2015-07-12T10:55:08Z</time>
      </trkpt>
      <trkpt lat="44.80532" lon="6.16441">
        <ele>1972</ele>
        <time>2015-07-12T10:55:18Z</time>
      </trkpt>
      <trkpt lat="44.80531" lon="6.16438">
        <ele>1972</ele>
        <time>2015-07-12T10:55:29Z</time>
      </trkpt>
      <trkpt lat="44.80532" lon="6.16432">
        <ele>1972</ele>
        <time>2015-07-12T10:55:39Z</time>
      </trkpt>
      <trkpt lat="44.80528" lon="6.16429">
        <ele>1973</ele>
        <time>2015-07-12T10:55:52Z</time>
      </trkpt>
      <trkpt lat="44.80528" lon="6.16434">
        <ele>1973</ele>
        <time>2015-07-12T10:56:01Z</time>
      </trkpt>
      <trkpt lat="44.80524" lon="6.16441">
        <ele>1976</ele>
        <time>2015-07-12T10:56:13Z</time>
      </trkpt>
      <trkpt lat="44.80522" lon="6.16447">
        <ele>1977</ele>
        <time>2015-07-12T10:56:23Z</time>
      </trkpt>
      <trkpt lat="44.80521" lon="6.16456">
        <ele>1982</ele>
        <time>2015-07-12T10:56:34Z</time>
      </trkpt>
      <trkpt lat="44.80519" lon="6.16459">
        <ele>1980</ele>
        <time>2015-07-12T10:56:43Z</time>
      </trkpt>
      <trkpt lat="44.80517" lon="6.16466">
        <ele>1976</ele>
        <time>2015-07-12T10:56:53Z</time>
      </trkpt>
      <trkpt lat="44.80516" lon="6.16471">
        <ele>1976</ele>
        <time>2015-07-12T10:57:03Z</time>
      </trkpt>
      <trkpt lat="44.80513" lon="6.16476">
        <ele>1976</ele>
        <time>2015-07-12T10:57:12Z</time>
      </trkpt>
      <trkpt lat="44.80514" lon="6.16479">
        <ele>1980</ele>
        <time>2015-07-12T10:57:23Z</time>
      </trkpt>
      <trkpt lat="44.80511" lon="6.16485">
        <ele>1981</ele>
        <time>2015-07-12T10:57:39Z</time>
      </trkpt>
      <trkpt lat="44.80506" lon="6.16491">
        <ele>1981</ele>
        <time>2015-07-12T10:57:50Z</time>
      </trkpt>
      <trkpt lat="44.80505" lon="6.16497">
        <ele>1982</ele>
        <time>2015-07-12T10:58:01Z</time>
      </trkpt>
      <trkpt lat="44.80499" lon="6.16503">
        <ele>1983</ele>
        <time>2015-07-12T10:58:11Z</time>
      </trkpt>
      <trkpt lat="44.80499" lon="6.16506">
        <ele>1983</ele>
        <time>2015-07-12T10:58:21Z</time>
      </trkpt>
      <trkpt lat="44.80495" lon="6.16511">
        <ele>1983</ele>
        <time>2015-07-12T10:58:33Z</time>
      </trkpt>
      <trkpt lat="44.80495" lon="6.16514">
        <ele>1987</ele>
        <time>2015-07-12T10:58:42Z</time>
      </trkpt>
      <trkpt lat="44.80493" lon="6.16517">
        <ele>1989</ele>
        <time>2015-07-12T10:58:52Z</time>
      </trkpt>
      <trkpt lat="44.80486" lon="6.16525">
        <ele>1989</ele>
        <time>2015-07-12T10:59:01Z</time>
      </trkpt>
      <trkpt lat="44.80484" lon="6.16528">
        <ele>1989</ele>
        <time>2015-07-12T10:59:16Z</time>
      </trkpt>
      <trkpt lat="44.80487" lon="6.16531">
        <ele>1998</ele>
        <time>2015-07-12T10:59:30Z</time>
      </trkpt>
      <trkpt lat="44.80487" lon="6.16532">
        <ele>1994</ele>
        <time>2015-07-12T10:59:39Z</time>
      </trkpt>
      <trkpt lat="44.80484" lon="6.16534">
        <ele>1991</ele>
        <time>2015-07-12T10:59:48Z</time>
      </trkpt>
      <trkpt lat="44.80481" lon="6.16532">
        <ele>1985</ele>
        <time>2015-07-12T10:59:59Z</time>
      </trkpt>
      <trkpt lat="44.80479" lon="6.16538">
        <ele>1982</ele>
        <time>2015-07-12T11:00:09Z</time>
      </trkpt>
      <trkpt lat="44.80479" lon="6.16538">
        <ele>1988</ele>
        <time>2015-07-12T11:00:28Z</time>
      </trkpt>
      <trkpt lat="44.80477" lon="6.16537">
        <ele>1988</ele>
        <time>2015-07-12T11:00:40Z</time>
      </trkpt>
      <trkpt lat="44.80479" lon="6.16535">
        <ele>1989</ele>
        <time>2015-07-12T11:00:52Z</time>
      </trkpt>
      <trkpt lat="44.80481" lon="6.16535">
        <ele>1991</ele>
        <time>2015-07-12T11:01:02Z</time>
      </trkpt>
      <trkpt lat="44.80477" lon="6.16538">
        <ele>1991</ele>
        <time>2015-07-12T11:01:11Z</time>
      </trkpt>
      <trkpt lat="44.80481" lon="6.1654">
        <ele>1989</ele>
        <time>2015-07-12T11:01:20Z</time>
      </trkpt>
      <trkpt lat="44.80485" lon="6.16542">
        <ele>1990</ele>
        <time>2015-07-12T11:01:29Z</time>
      </trkpt>
      <trkpt lat="44.80484" lon="6.16541">
        <ele>1998</ele>
        <time>2015-07-12T11:01:40Z</time>
      </trkpt>
      <trkpt lat="44.80486" lon="6.16535">
        <ele>1998</ele>
        <time>2015-07-12T11:01:49Z</time>
      </trkpt>
      <trkpt lat="44.80487" lon="6.16534">
        <ele>1998</ele>
        <time>2015-07-12T11:02:02Z</time>
      </trkpt>
      <trkpt lat="44.80486" lon="6.16534">
        <ele>1999</ele>
        <time>2015-07-12T11:02:11Z</time>
      </trkpt>
      <trkpt lat="44.80486" lon="6.16535">
        <ele>1996</ele>
        <time>2015-07-12T11:02:24Z</time>
      </trkpt>
      <trkpt lat="44.80482" lon="6.16535">
        <ele>1988</ele>
        <time>2015-07-12T11:02:36Z</time>
      </trkpt>
      <trkpt lat="44.80484" lon="6.16534">
        <ele>1987</ele>
        <time>2015-07-12T11:02:51Z</time>
      </trkpt>
      <trkpt lat="44.80487" lon="6.16536">
        <ele>1988</ele>
        <time>2015-07-12T11:03:03Z</time>
      </trkpt>
      <trkpt lat="44.80485" lon="6.16534">
        <ele>1990</ele>
        <time>2015-07-12T11:03:14Z</time>
      </trkpt>
      <trkpt lat="44.80484" lon="6.16532">
        <ele>1990</ele>
        <time>2015-07-12T11:03:40Z</time>
      </trkpt>
      <trkpt lat="44.80486" lon="6.1653">
        <ele>1990</ele>
        <time>2015-07-12T11:03:52Z</time>
      </trkpt>
      <trkpt lat="44.80485" lon="6.16531">
        <ele>1991</ele>
        <time>2015-07-12T11:04:02Z</time>
      </trkpt>
      <trkpt lat="44.80489" lon="6.16527">
        <ele>1994</ele>
        <time>2015-07-12T11:04:12Z</time>
      </trkpt>
      <trkpt lat="44.80494" lon="6.16523">
        <ele>1996</ele>
        <time>2015-07-12T11:04:22Z</time>
      </trkpt>
      <trkpt lat="44.80494" lon="6.16515">
        <ele>1997</ele>
        <time>2015-07-12T11:04:32Z</time>
      </trkpt>
      <trkpt lat="44.80497" lon="6.16504">
        <ele>1997</ele>
        <time>2015-07-12T11:04:42Z</time>
      </trkpt>
      <trkpt lat="44.80498" lon="6.16492">
        <ele>1997</ele>
        <time>2015-07-12T11:04:52Z</time>
      </trkpt>
      <trkpt lat="44.80496" lon="6.16483">
        <ele>1997</ele>
        <time>2015-07-12T11:05:01Z</time>
      </trkpt>
      <trkpt lat="44.80495" lon="6.16473">
        <ele>1997</ele>
        <time>2015-07-12T11:05:11Z</time>
      </trkpt>
      <trkpt lat="44.80495" lon="6.16465">
        <ele>1997</ele>
        <time>2015-07-12T11:05:20Z</time>
      </trkpt>
      <trkpt lat="44.80495" lon="6.16456">
        <ele>1997</ele>
        <time>2015-07-12T11:05:30Z</time>
      </trkpt>
      <trkpt lat="44.80494" lon="6.16445">
        <ele>1997</ele>
        <time>2015-07-12T11:05:42Z</time>
      </trkpt>
      <trkpt lat="44.80495" lon="6.16437">
        <ele>1998</ele>
        <time>2015-07-12T11:05:51Z</time>
      </trkpt>
      <trkpt lat="44.80495" lon="6.16427">
        <ele>1998</ele>
        <time>2015-07-12T11:06:01Z</time>
      </trkpt>
      <trkpt lat="44.80497" lon="6.16417">
        <ele>2001</ele>
        <time>2015-07-12T11:06:11Z</time>
      </trkpt>
      <trkpt lat="44.80494" lon="6.16408">
        <ele>2003</ele>
        <time>2015-07-12T11:06:20Z</time>
      </trkpt>
      <trkpt lat="44.80492" lon="6.16406">
        <ele>2004</ele>
        <time>2015-07-12T11:06:29Z</time>
      </trkpt>
      <trkpt lat="44.80495" lon="6.16399">
        <ele>2005</ele>
        <time>2015-07-12T11:06:38Z</time>
      </trkpt>
      <trkpt lat="44.80496" lon="6.16388">
        <ele>2007</ele>
        <time>2015-07-12T11:06:47Z</time>
      </trkpt>
      <trkpt lat="44.805" lon="6.16377">
        <ele>2009</ele>
        <time>2015-07-12T11:06:57Z</time>
      </trkpt>
      <trkpt lat="44.80491" lon="6.16382">
        <ele>2009</ele>
        <time>2015-07-12T11:07:07Z</time>
      </trkpt>
      <trkpt lat="44.80484" lon="6.16387">
        <ele>2009</ele>
        <time>2015-07-12T11:07:16Z</time>
      </trkpt>
      <trkpt lat="44.80479" lon="6.16395">
        <ele>2009</ele>
        <time>2015-07-12T11:07:26Z</time>
      </trkpt>
      <trkpt lat="44.80475" lon="6.16402">
        <ele>2009</ele>
        <time>2015-07-12T11:07:36Z</time>
      </trkpt>
      <trkpt lat="44.8047" lon="6.16409">
        <ele>2009</ele>
        <time>2015-07-12T11:07:45Z</time>
      </trkpt>
      <trkpt lat="44.80468" lon="6.16415">
        <ele>2009</ele>
        <time>2015-07-12T11:07:54Z</time>
      </trkpt>
      <trkpt lat="44.80465" lon="6.16422">
        <ele>2015</ele>
        <time>2015-07-12T11:08:04Z</time>
      </trkpt>
      <trkpt lat="44.8046" lon="6.16428">
        <ele>2016</ele>
        <time>2015-07-12T11:08:13Z</time>
      </trkpt>
      <trkpt lat="44.80455" lon="6.16435">
        <ele>2018</ele>
        <time>2015-07-12T11:08:23Z</time>
      </trkpt>
      <trkpt lat="44.80452" lon="6.16439">
        <ele>2018</ele>
        <time>2015-07-12T11:08:32Z</time>
      </trkpt>
      <trkpt lat="44.80445" lon="6.16444">
        <ele>2019</ele>
        <time>2015-07-12T11:08:41Z</time>
      </trkpt>
      <trkpt lat="44.80439" lon="6.16451">
        <ele>2019</ele>
        <time>2015-07-12T11:08:51Z</time>
      </trkpt>
      <trkpt lat="44.80442" lon="6.16453">
        <ele>2019</ele>
        <time>2015-07-12T11:09:01Z</time>
      </trkpt>
      <trkpt lat="44.80447" lon="6.16445">
        <ele>2020</ele>
        <time>2015-07-12T11:09:11Z</time>
      </trkpt>
      <trkpt lat="44.80451" lon="6.16436">
        <ele>2022</ele>
        <time>2015-07-12T11:09:22Z</time>
      </trkpt>
      <trkpt lat="44.80453" lon="6.16425">
        <ele>2022</ele>
        <time>2015-07-12T11:09:32Z</time>
      </trkpt>
      <trkpt lat="44.80454" lon="6.16413">
        <ele>2022</ele>
        <time>2015-07-12T11:09:42Z</time>
      </trkpt>
      <trkpt lat="44.80455" lon="6.16404">
        <ele>2024</ele>
        <time>2015-07-12T11:09:51Z</time>
      </trkpt>
      <trkpt lat="44.80457" lon="6.16395">
        <ele>2024</ele>
        <time>2015-07-12T11:10:00Z</time>
      </trkpt>
      <trkpt lat="44.80461" lon="6.16385">
        <ele>2025</ele>
        <time>2015-07-12T11:10:10Z</time>
      </trkpt>
      <trkpt lat="44.80465" lon="6.16376">
        <ele>2027</ele>
        <time>2015-07-12T11:10:20Z</time>
      </trkpt>
      <trkpt lat="44.8047" lon="6.16371">
        <ele>2031</ele>
        <time>2015-07-12T11:10:30Z</time>
      </trkpt>
      <trkpt lat="44.80473" lon="6.16363">
        <ele>2031</ele>
        <time>2015-07-12T11:10:40Z</time>
      </trkpt>
      <trkpt lat="44.80475" lon="6.16354">
        <ele>2031</ele>
        <time>2015-07-12T11:10:50Z</time>
      </trkpt>
      <trkpt lat="44.80476" lon="6.16343">
        <ele>2031</ele>
        <time>2015-07-12T11:11:00Z</time>
      </trkpt>
      <trkpt lat="44.80479" lon="6.16333">
        <ele>2032</ele>
        <time>2015-07-12T11:11:10Z</time>
      </trkpt>
      <trkpt lat="44.80476" lon="6.16323">
        <ele>2034</ele>
        <time>2015-07-12T11:11:20Z</time>
      </trkpt>
      <trkpt lat="44.8048" lon="6.16314">
        <ele>2034</ele>
        <time>2015-07-12T11:11:30Z</time>
      </trkpt>
      <trkpt lat="44.8048" lon="6.16305">
        <ele>2034</ele>
        <time>2015-07-12T11:11:40Z</time>
      </trkpt>
      <trkpt lat="44.80477" lon="6.16295">
        <ele>2034</ele>
        <time>2015-07-12T11:11:49Z</time>
      </trkpt>
      <trkpt lat="44.80476" lon="6.16285">
        <ele>2034</ele>
        <time>2015-07-12T11:11:59Z</time>
      </trkpt>
      <trkpt lat="44.80474" lon="6.16275">
        <ele>2034</ele>
        <time>2015-07-12T11:12:10Z</time>
      </trkpt>
      <trkpt lat="44.80478" lon="6.1627">
        <ele>2036</ele>
        <time>2015-07-12T11:12:20Z</time>
      </trkpt>
      <trkpt lat="44.80482" lon="6.16261">
        <ele>2040</ele>
        <time>2015-07-12T11:12:31Z</time>
      </trkpt>
      <trkpt lat="44.80485" lon="6.16255">
        <ele>2040</ele>
        <time>2015-07-12T11:12:40Z</time>
      </trkpt>
      <trkpt lat="44.80491" lon="6.16249">
        <ele>2043</ele>
        <time>2015-07-12T11:12:50Z</time>
      </trkpt>
      <trkpt lat="44.80488" lon="6.16238">
        <ele>2043</ele>
        <time>2015-07-12T11:12:59Z</time>
      </trkpt>
      <trkpt lat="44.80489" lon="6.16235">
        <ele>2043</ele>
        <time>2015-07-12T11:13:09Z</time>
      </trkpt>
      <trkpt lat="44.80489" lon="6.16226">
        <ele>2042</ele>
        <time>2015-07-12T11:13:18Z</time>
      </trkpt>
      <trkpt lat="44.80489" lon="6.16219">
        <ele>2042</ele>
        <time>2015-07-12T11:13:27Z</time>
      </trkpt>
      <trkpt lat="44.80486" lon="6.16212">
        <ele>2042</ele>
        <time>2015-07-12T11:13:36Z</time>
      </trkpt>
      <trkpt lat="44.80475" lon="6.16213">
        <ele>2041</ele>
        <time>2015-07-12T11:13:48Z</time>
      </trkpt>
      <trkpt lat="44.80472" lon="6.16223">
        <ele>2041</ele>
        <time>2015-07-12T11:13:58Z</time>
      </trkpt>
      <trkpt lat="44.80472" lon="6.16234">
        <ele>2041</ele>
        <time>2015-07-12T11:14:08Z</time>
      </trkpt>
      <trkpt lat="44.80472" lon="6.16247">
        <ele>2041</ele>
        <time>2015-07-12T11:14:18Z</time>
      </trkpt>
      <trkpt lat="44.8047" lon="6.16256">
        <ele>2047</ele>
        <time>2015-07-12T11:14:28Z</time>
      </trkpt>
      <trkpt lat="44.80462" lon="6.16261">
        <ele>2047</ele>
        <time>2015-07-12T11:14:38Z</time>
      </trkpt>
      <trkpt lat="44.8046" lon="6.1627">
        <ele>2050</ele>
        <time>2015-07-12T11:14:47Z</time>
      </trkpt>
      <trkpt lat="44.80456" lon="6.16281">
        <ele>2050</ele>
        <time>2015-07-12T11:14:58Z</time>
      </trkpt>
      <trkpt lat="44.80454" lon="6.16292">
        <ele>2050</ele>
        <time>2015-07-12T11:15:08Z</time>
      </trkpt>
      <trkpt lat="44.80449" lon="6.16304">
        <ele>2051</ele>
        <time>2015-07-12T11:15:19Z</time>
      </trkpt>
      <trkpt lat="44.80445" lon="6.16315">
        <ele>2052</ele>
        <time>2015-07-12T11:15:30Z</time>
      </trkpt>
      <trkpt lat="44.8044" lon="6.16322">
        <ele>2052</ele>
        <time>2015-07-12T11:15:39Z</time>
      </trkpt>
      <trkpt lat="44.80433" lon="6.1633">
        <ele>2052</ele>
        <time>2015-07-12T11:15:48Z</time>
      </trkpt>
      <trkpt lat="44.80428" lon="6.1634">
        <ele>2050</ele>
        <time>2015-07-12T11:15:58Z</time>
      </trkpt>
      <trkpt lat="44.80423" lon="6.16348">
        <ele>2050</ele>
        <time>2015-07-12T11:16:08Z</time>
      </trkpt>
      <trkpt lat="44.80417" lon="6.16353">
        <ele>2050</ele>
        <time>2015-07-12T11:16:17Z</time>
      </trkpt>
      <trkpt lat="44.8041" lon="6.16358">
        <ele>2053</ele>
        <time>2015-07-12T11:16:26Z</time>
      </trkpt>
      <trkpt lat="44.80409" lon="6.16363">
        <ele>2055</ele>
        <time>2015-07-12T11:16:35Z</time>
      </trkpt>
      <trkpt lat="44.8041" lon="6.16373">
        <ele>2064</ele>
        <time>2015-07-12T11:16:44Z</time>
      </trkpt>
      <trkpt lat="44.80403" lon="6.16377">
        <ele>2067</ele>
        <time>2015-07-12T11:16:53Z</time>
      </trkpt>
      <trkpt lat="44.80394" lon="6.16381">
        <ele>2066</ele>
        <time>2015-07-12T11:17:02Z</time>
      </trkpt>
      <trkpt lat="44.8039" lon="6.16386">
        <ele>2063</ele>
        <time>2015-07-12T11:17:11Z</time>
      </trkpt>
      <trkpt lat="44.80381" lon="6.1639">
        <ele>2061</ele>
        <time>2015-07-12T11:17:21Z</time>
      </trkpt>
      <trkpt lat="44.8038" lon="6.16398">
        <ele>2057</ele>
        <time>2015-07-12T11:17:30Z</time>
      </trkpt>
      <trkpt lat="44.80378" lon="6.16403">
        <ele>2057</ele>
        <time>2015-07-12T11:17:39Z</time>
      </trkpt>
      <trkpt lat="44.8037" lon="6.16409">
        <ele>2059</ele>
        <time>2015-07-12T11:17:48Z</time>
      </trkpt>
      <trkpt lat="44.80365" lon="6.16413">
        <ele>2059</ele>
        <time>2015-07-12T11:17:59Z</time>
      </trkpt>
      <trkpt lat="44.80362" lon="6.1642">
        <ele>2067</ele>
        <time>2015-07-12T11:18:09Z</time>
      </trkpt>
      <trkpt lat="44.80359" lon="6.16425">
        <ele>2069</ele>
        <time>2015-07-12T11:18:18Z</time>
      </trkpt>
      <trkpt lat="44.80354" lon="6.16432">
        <ele>2069</ele>
        <time>2015-07-12T11:18:28Z</time>
      </trkpt>
      <trkpt lat="44.80349" lon="6.16437">
        <ele>2069</ele>
        <time>2015-07-12T11:18:37Z</time>
      </trkpt>
      <trkpt lat="44.80346" lon="6.16444">
        <ele>2069</ele>
        <time>2015-07-12T11:18:46Z</time>
      </trkpt>
      <trkpt lat="44.80344" lon="6.16451">
        <ele>2068</ele>
        <time>2015-07-12T11:18:55Z</time>
      </trkpt>
      <trkpt lat="44.80339" lon="6.16457">
        <ele>2068</ele>
        <time>2015-07-12T11:19:05Z</time>
      </trkpt>
      <trkpt lat="44.80342" lon="6.16463">
        <ele>2068</ele>
        <time>2015-07-12T11:19:14Z</time>
      </trkpt>
      <trkpt lat="44.80347" lon="6.16466">
        <ele>2071</ele>
        <time>2015-07-12T11:19:24Z</time>
      </trkpt>
      <trkpt lat="44.8034" lon="6.16467">
        <ele>2067</ele>
        <time>2015-07-12T11:19:33Z</time>
      </trkpt>
      <trkpt lat="44.80344" lon="6.16476">
        <ele>2067</ele>
        <time>2015-07-12T11:19:44Z</time>
      </trkpt>
      <trkpt lat="44.80343" lon="6.16482">
        <ele>2067</ele>
        <time>2015-07-12T11:19:53Z</time>
      </trkpt>
      <trkpt lat="44.80339" lon="6.16486">
        <ele>2068</ele>
        <time>2015-07-12T11:20:03Z</time>
      </trkpt>
      <trkpt lat="44.80337" lon="6.16491">
        <ele>2068</ele>
        <time>2015-07-12T11:20:13Z</time>
      </trkpt>
      <trkpt lat="44.80336" lon="6.165">
        <ele>2068</ele>
        <time>2015-07-12T11:20:22Z</time>
      </trkpt>
      <trkpt lat="44.80336" lon="6.1651">
        <ele>2068</ele>
        <time>2015-07-12T11:20:31Z</time>
      </trkpt>
      <trkpt lat="44.80339" lon="6.1652">
        <ele>2070</ele>
        <time>2015-07-12T11:20:41Z</time>
      </trkpt>
      <trkpt lat="44.80343" lon="6.1653">
        <ele>2072</ele>
        <time>2015-07-12T11:20:50Z</time>
      </trkpt>
      <trkpt lat="44.80352" lon="6.16535">
        <ele>2081</ele>
        <time>2015-07-12T11:20:59Z</time>
      </trkpt>
      <trkpt lat="44.80346" lon="6.16541">
        <ele>2087</ele>
        <time>2015-07-12T11:21:08Z</time>
      </trkpt>
      <trkpt lat="44.80349" lon="6.16543">
        <ele>2083</ele>
        <time>2015-07-12T11:21:17Z</time>
      </trkpt>
      <trkpt lat="44.80346" lon="6.16548">
        <ele>2072</ele>
        <time>2015-07-12T11:21:30Z</time>
      </trkpt>
      <trkpt lat="44.8035" lon="6.16556">
        <ele>2076</ele>
        <time>2015-07-12T11:21:39Z</time>
      </trkpt>
      <trkpt lat="44.80348" lon="6.16559">
        <ele>2076</ele>
        <time>2015-07-12T11:21:49Z</time>
      </trkpt>
      <trkpt lat="44.80349" lon="6.16564">
        <ele>2078</ele>
        <time>2015-07-12T11:22:00Z</time>
      </trkpt>
      <trkpt lat="44.80348" lon="6.16565">
        <ele>2078</ele>
        <time>2015-07-12T11:22:17Z</time>
      </trkpt>
      <trkpt lat="44.80344" lon="6.16568">
        <ele>2069</ele>
        <time>2015-07-12T11:22:26Z</time>
      </trkpt>
      <trkpt lat="44.80342" lon="6.16572">
        <ele>2069</ele>
        <time>2015-07-12T11:22:35Z</time>
      </trkpt>
      <trkpt lat="44.8034" lon="6.16576">
        <ele>2070</ele>
        <time>2015-07-12T11:22:44Z</time>
      </trkpt>
      <trkpt lat="44.80343" lon="6.16583">
        <ele>2072</ele>
        <time>2015-07-12T11:22:53Z</time>
      </trkpt>
      <trkpt lat="44.80343" lon="6.16591">
        <ele>2082</ele>
        <time>2015-07-12T11:23:03Z</time>
      </trkpt>
      <trkpt lat="44.8034" lon="6.16598">
        <ele>2085</ele>
        <time>2015-07-12T11:23:12Z</time>
      </trkpt>
      <trkpt lat="44.80338" lon="6.16604">
        <ele>2085</ele>
        <time>2015-07-12T11:23:24Z</time>
      </trkpt>
      <trkpt lat="44.80341" lon="6.16606">
        <ele>2085</ele>
        <time>2015-07-12T11:23:35Z</time>
      </trkpt>
      <trkpt lat="44.80338" lon="6.16611">
        <ele>2085</ele>
        <time>2015-07-12T11:23:46Z</time>
      </trkpt>
      <trkpt lat="44.80334" lon="6.16614">
        <ele>2085</ele>
        <time>2015-07-12T11:23:56Z</time>
      </trkpt>
      <trkpt lat="44.80328" lon="6.16617">
        <ele>2085</ele>
        <time>2015-07-12T11:24:07Z</time>
      </trkpt>
      <trkpt lat="44.80329" lon="6.1662">
        <ele>2089</ele>
        <time>2015-07-12T11:24:17Z</time>
      </trkpt>
      <trkpt lat="44.80325" lon="6.16621">
        <ele>2091</ele>
        <time>2015-07-12T11:24:26Z</time>
      </trkpt>
      <trkpt lat="44.80317" lon="6.1662">
        <ele>2091</ele>
        <time>2015-07-12T11:24:35Z</time>
      </trkpt>
      <trkpt lat="44.80315" lon="6.16622">
        <ele>2091</ele>
        <time>2015-07-12T11:24:45Z</time>
      </trkpt>
      <trkpt lat="44.80309" lon="6.16619">
        <ele>2088</ele>
        <time>2015-07-12T11:24:55Z</time>
      </trkpt>
      <trkpt lat="44.80307" lon="6.16615">
        <ele>2083</ele>
        <time>2015-07-12T11:25:05Z</time>
      </trkpt>
      <trkpt lat="44.80302" lon="6.16613">
        <ele>2082</ele>
        <time>2015-07-12T11:25:16Z</time>
      </trkpt>
      <trkpt lat="44.80292" lon="6.1661">
        <ele>2080</ele>
        <time>2015-07-12T11:25:26Z</time>
      </trkpt>
      <trkpt lat="44.80285" lon="6.16607">
        <ele>2080</ele>
        <time>2015-07-12T11:25:36Z</time>
      </trkpt>
      <trkpt lat="44.80278" lon="6.16608">
        <ele>2079</ele>
        <time>2015-07-12T11:25:48Z</time>
      </trkpt>
      <trkpt lat="44.80272" lon="6.16611">
        <ele>2087</ele>
        <time>2015-07-12T11:25:58Z</time>
      </trkpt>
      <trkpt lat="44.80262" lon="6.16616">
        <ele>2088</ele>
        <time>2015-07-12T11:26:07Z</time>
      </trkpt>
      <trkpt lat="44.80257" lon="6.16623">
        <ele>2085</ele>
        <time>2015-07-12T11:26:17Z</time>
      </trkpt>
      <trkpt lat="44.80254" lon="6.16635">
        <ele>2087</ele>
        <time>2015-07-12T11:26:27Z</time>
      </trkpt>
      <trkpt lat="44.80251" lon="6.16647">
        <ele>2091</ele>
        <time>2015-07-12T11:26:36Z</time>
      </trkpt>
      <trkpt lat="44.80249" lon="6.16657">
        <ele>2091</ele>
        <time>2015-07-12T11:26:45Z</time>
      </trkpt>
      <trkpt lat="44.80242" lon="6.16662">
        <ele>2089</ele>
        <time>2015-07-12T11:26:54Z</time>
      </trkpt>
      <trkpt lat="44.80243" lon="6.16673">
        <ele>2090</ele>
        <time>2015-07-12T11:27:05Z</time>
      </trkpt>
      <trkpt lat="44.80242" lon="6.16684">
        <ele>2093</ele>
        <time>2015-07-12T11:27:14Z</time>
      </trkpt>
      <trkpt lat="44.80243" lon="6.16698">
        <ele>2098</ele>
        <time>2015-07-12T11:27:24Z</time>
      </trkpt>
      <trkpt lat="44.80238" lon="6.16705">
        <ele>2098</ele>
        <time>2015-07-12T11:27:35Z</time>
      </trkpt>
      <trkpt lat="44.80239" lon="6.16712">
        <ele>2098</ele>
        <time>2015-07-12T11:27:46Z</time>
      </trkpt>
      <trkpt lat="44.80231" lon="6.16718">
        <ele>2098</ele>
        <time>2015-07-12T11:27:56Z</time>
      </trkpt>
      <trkpt lat="44.80232" lon="6.16726">
        <ele>2100</ele>
        <time>2015-07-12T11:28:07Z</time>
      </trkpt>
      <trkpt lat="44.80222" lon="6.16726">
        <ele>2103</ele>
        <time>2015-07-12T11:28:16Z</time>
      </trkpt>
      <trkpt lat="44.80212" lon="6.16723">
        <ele>2088</ele>
        <time>2015-07-12T11:28:25Z</time>
      </trkpt>
      <trkpt lat="44.80222" lon="6.16739">
        <ele>2083</ele>
        <time>2015-07-12T11:28:37Z</time>
      </trkpt>
      <trkpt lat="44.80227" lon="6.16746">
        <ele>2083</ele>
        <time>2015-07-12T11:28:49Z</time>
      </trkpt>
      <trkpt lat="44.80232" lon="6.16755">
        <ele>2086</ele>
        <time>2015-07-12T11:28:59Z</time>
      </trkpt>
      <trkpt lat="44.80237" lon="6.16761">
        <ele>2086</ele>
        <time>2015-07-12T11:29:09Z</time>
      </trkpt>
      <trkpt lat="44.80238" lon="6.16767">
        <ele>2086</ele>
        <time>2015-07-12T11:29:18Z</time>
      </trkpt>
      <trkpt lat="44.80236" lon="6.1677">
        <ele>2086</ele>
        <time>2015-07-12T11:29:27Z</time>
      </trkpt>
      <trkpt lat="44.80235" lon="6.16774">
        <ele>2091</ele>
        <time>2015-07-12T11:29:37Z</time>
      </trkpt>
      <trkpt lat="44.80241" lon="6.16775">
        <ele>2093</ele>
        <time>2015-07-12T11:29:46Z</time>
      </trkpt>
      <trkpt lat="44.80245" lon="6.16773">
        <ele>2105</ele>
        <time>2015-07-12T11:29:58Z</time>
      </trkpt>
      <trkpt lat="44.80237" lon="6.1677">
        <ele>2106</ele>
        <time>2015-07-12T11:30:08Z</time>
      </trkpt>
      <trkpt lat="44.80234" lon="6.16768">
        <ele>2102</ele>
        <time>2015-07-12T11:30:19Z</time>
      </trkpt>
      <trkpt lat="44.80231" lon="6.16762">
        <ele>2090</ele>
        <time>2015-07-12T11:30:29Z</time>
      </trkpt>
      <trkpt lat="44.80235" lon="6.16765">
        <ele>2113</ele>
        <time>2015-07-12T11:30:41Z</time>
      </trkpt>
      <trkpt lat="44.80237" lon="6.16763">
        <ele>2108</ele>
        <time>2015-07-12T11:30:50Z</time>
      </trkpt>
      <trkpt lat="44.80237" lon="6.16754">
        <ele>2106</ele>
        <time>2015-07-12T11:30:59Z</time>
      </trkpt>
      <trkpt lat="44.80231" lon="6.16743">
        <ele>2101</ele>
        <time>2015-07-12T11:31:10Z</time>
      </trkpt>
      <trkpt lat="44.80228" lon="6.16736">
        <ele>2101</ele>
        <time>2015-07-12T11:31:20Z</time>
      </trkpt>
      <trkpt lat="44.80219" lon="6.1673">
        <ele>2101</ele>
        <time>2015-07-12T11:31:29Z</time>
      </trkpt>
      <trkpt lat="44.80211" lon="6.16722">
        <ele>2101</ele>
        <time>2015-07-12T11:31:40Z</time>
      </trkpt>
      <trkpt lat="44.80203" lon="6.16719">
        <ele>2102</ele>
        <time>2015-07-12T11:31:50Z</time>
      </trkpt>
      <trkpt lat="44.80201" lon="6.16721">
        <ele>2102</ele>
        <time>2015-07-12T11:31:59Z</time>
      </trkpt>
      <trkpt lat="44.80195" lon="6.16717">
        <ele>2105</ele>
        <time>2015-07-12T11:32:09Z</time>
      </trkpt>
      <trkpt lat="44.80187" lon="6.16714">
        <ele>2109</ele>
        <time>2015-07-12T11:32:18Z</time>
      </trkpt>
      <trkpt lat="44.8018" lon="6.16713">
        <ele>2109</ele>
        <time>2015-07-12T11:32:27Z</time>
      </trkpt>
      <trkpt lat="44.8017" lon="6.16715">
        <ele>2109</ele>
        <time>2015-07-12T11:32:37Z</time>
      </trkpt>
      <trkpt lat="44.80162" lon="6.16722">
        <ele>2107</ele>
        <time>2015-07-12T11:32:47Z</time>
      </trkpt>
      <trkpt lat="44.80159" lon="6.1673">
        <ele>2102</ele>
        <time>2015-07-12T11:32:56Z</time>
      </trkpt>
      <trkpt lat="44.8016" lon="6.16745">
        <ele>2102</ele>
        <time>2015-07-12T11:33:05Z</time>
      </trkpt>
      <trkpt lat="44.80159" lon="6.16756">
        <ele>2102</ele>
        <time>2015-07-12T11:33:14Z</time>
      </trkpt>
      <trkpt lat="44.80164" lon="6.16766">
        <ele>2102</ele>
        <time>2015-07-12T11:33:25Z</time>
      </trkpt>
      <trkpt lat="44.80171" lon="6.16771">
        <ele>2104</ele>
        <time>2015-07-12T11:33:34Z</time>
      </trkpt>
      <trkpt lat="44.80171" lon="6.16775">
        <ele>2096</ele>
        <time>2015-07-12T11:34:11Z</time>
      </trkpt>
      <trkpt lat="44.80169" lon="6.16776">
        <ele>2096</ele>
        <time>2015-07-12T11:34:24Z</time>
      </trkpt>
      <trkpt lat="44.8017" lon="6.16779">
        <ele>2096</ele>
        <time>2015-07-12T11:34:34Z</time>
      </trkpt>
      <trkpt lat="44.80176" lon="6.16784">
        <ele>2097</ele>
        <time>2015-07-12T11:34:44Z</time>
      </trkpt>
      <trkpt lat="44.80182" lon="6.16786">
        <ele>2096</ele>
        <time>2015-07-12T11:34:56Z</time>
      </trkpt>
      <trkpt lat="44.80183" lon="6.16791">
        <ele>2096</ele>
        <time>2015-07-12T11:35:07Z</time>
      </trkpt>
      <trkpt lat="44.80185" lon="6.16789">
        <ele>2096</ele>
        <time>2015-07-12T11:35:16Z</time>
      </trkpt>
      <trkpt lat="44.80178" lon="6.16782">
        <ele>2089</ele>
        <time>2015-07-12T11:35:26Z</time>
      </trkpt>
      <trkpt lat="44.80178" lon="6.16782">
        <ele>2074</ele>
        <time>2015-07-12T11:35:48Z</time>
      </trkpt>
      <trkpt lat="44.80179" lon="6.16783">
        <ele>2076</ele>
        <time>2015-07-12T11:35:57Z</time>
      </trkpt>
      <trkpt lat="44.80181" lon="6.16781">
        <ele>2076</ele>
        <time>2015-07-12T11:36:06Z</time>
      </trkpt>
      <trkpt lat="44.80182" lon="6.16784">
        <ele>2080</ele>
        <time>2015-07-12T11:36:28Z</time>
      </trkpt>
      <trkpt lat="44.80183" lon="6.16785">
        <ele>2088</ele>
        <time>2015-07-12T11:37:11Z</time>
      </trkpt>
      <trkpt lat="44.80184" lon="6.16785">
        <ele>2089</ele>
        <time>2015-07-12T11:37:48Z</time>
      </trkpt>
      <trkpt lat="44.80177" lon="6.16782">
        <ele>2093</ele>
        <time>2015-07-12T11:37:59Z</time>
      </trkpt>
      <trkpt lat="44.8017" lon="6.16782">
        <ele>2099</ele>
        <time>2015-07-12T11:38:08Z</time>
      </trkpt>
      <trkpt lat="44.80165" lon="6.16786">
        <ele>2099</ele>
        <time>2015-07-12T11:38:18Z</time>
      </trkpt>
      <trkpt lat="44.80165" lon="6.16781">
        <ele>2099</ele>
        <time>2015-07-12T11:38:29Z</time>
      </trkpt>
      <trkpt lat="44.80164" lon="6.16778">
        <ele>2100</ele>
        <time>2015-07-12T11:38:42Z</time>
      </trkpt>
      <trkpt lat="44.80164" lon="6.1678">
        <ele>2101</ele>
        <time>2015-07-12T11:39:00Z</time>
      </trkpt>
      <trkpt lat="44.8016" lon="6.16771">
        <ele>2100</ele>
        <time>2015-07-12T11:39:10Z</time>
      </trkpt>
      <trkpt lat="44.80162" lon="6.1676">
        <ele>2100</ele>
        <time>2015-07-12T11:39:19Z</time>
      </trkpt>
      <trkpt lat="44.80162" lon="6.16752">
        <ele>2103</ele>
        <time>2015-07-12T11:39:30Z</time>
      </trkpt>
      <trkpt lat="44.80163" lon="6.16742">
        <ele>2103</ele>
        <time>2015-07-12T11:39:40Z</time>
      </trkpt>
      <trkpt lat="44.80166" lon="6.16734">
        <ele>2100</ele>
        <time>2015-07-12T11:39:50Z</time>
      </trkpt>
      <trkpt lat="44.8017" lon="6.16728">
        <ele>2099</ele>
        <time>2015-07-12T11:40:00Z</time>
      </trkpt>
      <trkpt lat="44.80176" lon="6.16725">
        <ele>2099</ele>
        <time>2015-07-12T11:40:10Z</time>
      </trkpt>
      <trkpt lat="44.80183" lon="6.16724">
        <ele>2096</ele>
        <time>2015-07-12T11:40:21Z</time>
      </trkpt>
      <trkpt lat="44.80193" lon="6.16724">
        <ele>2096</ele>
        <time>2015-07-12T11:40:31Z</time>
      </trkpt>
      <trkpt lat="44.802" lon="6.16726">
        <ele>2096</ele>
        <time>2015-07-12T11:40:40Z</time>
      </trkpt>
      <trkpt lat="44.80207" lon="6.16729">
        <ele>2096</ele>
        <time>2015-07-12T11:40:49Z</time>
      </trkpt>
      <trkpt lat="44.80214" lon="6.16728">
        <ele>2096</ele>
        <time>2015-07-12T11:40:58Z</time>
      </trkpt>
      <trkpt lat="44.80219" lon="6.16735">
        <ele>2097</ele>
        <time>2015-07-12T11:41:08Z</time>
      </trkpt>
      <trkpt lat="44.80228" lon="6.1674">
        <ele>2103</ele>
        <time>2015-07-12T11:41:18Z</time>
      </trkpt>
      <trkpt lat="44.8023" lon="6.1674">
        <ele>2103</ele>
        <time>2015-07-12T11:41:30Z</time>
      </trkpt>
      <trkpt lat="44.80236" lon="6.16753">
        <ele>2103</ele>
        <time>2015-07-12T11:41:40Z</time>
      </trkpt>
      <trkpt lat="44.80233" lon="6.16757">
        <ele>2098</ele>
        <time>2015-07-12T11:41:49Z</time>
      </trkpt>
      <trkpt lat="44.80234" lon="6.16764">
        <ele>2095</ele>
        <time>2015-07-12T11:42:01Z</time>
      </trkpt>
      <trkpt lat="44.80238" lon="6.16767">
        <ele>2095</ele>
        <time>2015-07-12T11:42:12Z</time>
      </trkpt>
      <trkpt lat="44.80241" lon="6.16769">
        <ele>2085</ele>
        <time>2015-07-12T11:42:23Z</time>
      </trkpt>
      <trkpt lat="44.80239" lon="6.16768">
        <ele>2068</ele>
        <time>2015-07-12T11:42:36Z</time>
      </trkpt>
      <trkpt lat="44.80237" lon="6.16771">
        <ele>2066</ele>
        <time>2015-07-12T11:42:45Z</time>
      </trkpt>
      <trkpt lat="44.80236" lon="6.16774">
        <ele>2075</ele>
        <time>2015-07-12T11:42:55Z</time>
      </trkpt>
      <trkpt lat="44.80241" lon="6.16775">
        <ele>2085</ele>
        <time>2015-07-12T11:43:06Z</time>
      </trkpt>
      <trkpt lat="44.80243" lon="6.16777">
        <ele>2092</ele>
        <time>2015-07-12T11:43:16Z</time>
      </trkpt>
      <trkpt lat="44.80238" lon="6.16765">
        <ele>2078</ele>
        <time>2015-07-12T11:43:29Z</time>
      </trkpt>
      <trkpt lat="44.80239" lon="6.16765">
        <ele>2079</ele>
        <time>2015-07-12T11:43:43Z</time>
      </trkpt>
      <trkpt lat="44.80238" lon="6.1676">
        <ele>2083</ele>
        <time>2015-07-12T11:43:53Z</time>
      </trkpt>
      <trkpt lat="44.80237" lon="6.16755">
        <ele>2089</ele>
        <time>2015-07-12T11:44:03Z</time>
      </trkpt>
      <trkpt lat="44.80238" lon="6.16758">
        <ele>2089</ele>
        <time>2015-07-12T11:44:15Z</time>
      </trkpt>
      <trkpt lat="44.80243" lon="6.16755">
        <ele>2089</ele>
        <time>2015-07-12T11:44:29Z</time>
      </trkpt>
      <trkpt lat="44.80239" lon="6.16743">
        <ele>2090</ele>
        <time>2015-07-12T11:44:38Z</time>
      </trkpt>
      <trkpt lat="44.8024" lon="6.16732">
        <ele>2098</ele>
        <time>2015-07-12T11:44:47Z</time>
      </trkpt>
      <trkpt lat="44.80246" lon="6.16722">
        <ele>2100</ele>
        <time>2015-07-12T11:44:57Z</time>
      </trkpt>
      <trkpt lat="44.80248" lon="6.16712">
        <ele>2100</ele>
        <time>2015-07-12T11:45:06Z</time>
      </trkpt>
      <trkpt lat="44.80246" lon="6.16706">
        <ele>2102</ele>
        <time>2015-07-12T11:45:15Z</time>
      </trkpt>
      <trkpt lat="44.80247" lon="6.16704">
        <ele>2101</ele>
        <time>2015-07-12T11:45:43Z</time>
      </trkpt>
      <trkpt lat="44.80248" lon="6.16704">
        <ele>2098</ele>
        <time>2015-07-12T11:45:58Z</time>
      </trkpt>
      <trkpt lat="44.80249" lon="6.16701">
        <ele>2100</ele>
        <time>2015-07-12T11:46:31Z</time>
      </trkpt>
      <trkpt lat="44.80248" lon="6.16699">
        <ele>2101</ele>
        <time>2015-07-12T11:46:53Z</time>
      </trkpt>
      <trkpt lat="44.80245" lon="6.16699">
        <ele>2101</ele>
        <time>2015-07-12T11:47:04Z</time>
      </trkpt>
      <trkpt lat="44.80245" lon="6.16701">
        <ele>2101</ele>
        <time>2015-07-12T11:47:16Z</time>
      </trkpt>
      <trkpt lat="44.80244" lon="6.16698">
        <ele>2096</ele>
        <time>2015-07-12T11:47:32Z</time>
      </trkpt>
      <trkpt lat="44.80245" lon="6.16693">
        <ele>2097</ele>
        <time>2015-07-12T11:47:50Z</time>
      </trkpt>
      <trkpt lat="44.80246" lon="6.1669">
        <ele>2097</ele>
        <time>2015-07-12T11:48:00Z</time>
      </trkpt>
      <trkpt lat="44.80247" lon="6.1668">
        <ele>2097</ele>
        <time>2015-07-12T11:48:10Z</time>
      </trkpt>
      <trkpt lat="44.80251" lon="6.16673">
        <ele>2098</ele>
        <time>2015-07-12T11:48:21Z</time>
      </trkpt>
      <trkpt lat="44.80254" lon="6.16665">
        <ele>2098</ele>
        <time>2015-07-12T11:48:30Z</time>
      </trkpt>
      <trkpt lat="44.80254" lon="6.16656">
        <ele>2098</ele>
        <time>2015-07-12T11:48:40Z</time>
      </trkpt>
      <trkpt lat="44.80256" lon="6.16646">
        <ele>2098</ele>
        <time>2015-07-12T11:48:49Z</time>
      </trkpt>
      <trkpt lat="44.80262" lon="6.16637">
        <ele>2096</ele>
        <time>2015-07-12T11:48:59Z</time>
      </trkpt>
      <trkpt lat="44.80267" lon="6.16628">
        <ele>2096</ele>
        <time>2015-07-12T11:49:09Z</time>
      </trkpt>
      <trkpt lat="44.80271" lon="6.16622">
        <ele>2095</ele>
        <time>2015-07-12T11:49:19Z</time>
      </trkpt>
      <trkpt lat="44.80276" lon="6.16617">
        <ele>2095</ele>
        <time>2015-07-12T11:49:28Z</time>
      </trkpt>
      <trkpt lat="44.80281" lon="6.16616">
        <ele>2095</ele>
        <time>2015-07-12T11:49:39Z</time>
      </trkpt>
      <trkpt lat="44.80286" lon="6.16616">
        <ele>2095</ele>
        <time>2015-07-12T11:49:50Z</time>
      </trkpt>
      <trkpt lat="44.80292" lon="6.16619">
        <ele>2095</ele>
        <time>2015-07-12T11:49:59Z</time>
      </trkpt>
      <trkpt lat="44.80296" lon="6.1662">
        <ele>2095</ele>
        <time>2015-07-12T11:50:11Z</time>
      </trkpt>
      <trkpt lat="44.803" lon="6.16622">
        <ele>2095</ele>
        <time>2015-07-12T11:50:20Z</time>
      </trkpt>
      <trkpt lat="44.80305" lon="6.16622">
        <ele>2095</ele>
        <time>2015-07-12T11:50:32Z</time>
      </trkpt>
      <trkpt lat="44.80312" lon="6.16622">
        <ele>2095</ele>
        <time>2015-07-12T11:50:43Z</time>
      </trkpt>
      <trkpt lat="44.80318" lon="6.16622">
        <ele>2095</ele>
        <time>2015-07-12T11:50:53Z</time>
      </trkpt>
      <trkpt lat="44.80325" lon="6.16621">
        <ele>2095</ele>
        <time>2015-07-12T11:51:03Z</time>
      </trkpt>
      <trkpt lat="44.80334" lon="6.16617">
        <ele>2094</ele>
        <time>2015-07-12T11:51:13Z</time>
      </trkpt>
      <trkpt lat="44.80339" lon="6.16614">
        <ele>2094</ele>
        <time>2015-07-12T11:51:22Z</time>
      </trkpt>
      <trkpt lat="44.80344" lon="6.16608">
        <ele>2093</ele>
        <time>2015-07-12T11:51:37Z</time>
      </trkpt>
      <trkpt lat="44.80347" lon="6.16596">
        <ele>2091</ele>
        <time>2015-07-12T11:51:47Z</time>
      </trkpt>
      <trkpt lat="44.80348" lon="6.16586">
        <ele>2089</ele>
        <time>2015-07-12T11:51:57Z</time>
      </trkpt>
      <trkpt lat="44.80348" lon="6.16579">
        <ele>2087</ele>
        <time>2015-07-12T11:52:06Z</time>
      </trkpt>
      <trkpt lat="44.80349" lon="6.16572">
        <ele>2085</ele>
        <time>2015-07-12T11:52:15Z</time>
      </trkpt>
      <trkpt lat="44.80352" lon="6.16566">
        <ele>2084</ele>
        <time>2015-07-12T11:52:24Z</time>
      </trkpt>
      <trkpt lat="44.80351" lon="6.16557">
        <ele>2082</ele>
        <time>2015-07-12T11:52:34Z</time>
      </trkpt>
      <trkpt lat="44.80349" lon="6.16549">
        <ele>2080</ele>
        <time>2015-07-12T11:52:43Z</time>
      </trkpt>
      <trkpt lat="44.80347" lon="6.16541">
        <ele>2079</ele>
        <time>2015-07-12T11:52:54Z</time>
      </trkpt>
      <trkpt lat="44.80341" lon="6.16532">
        <ele>2076</ele>
        <time>2015-07-12T11:53:04Z</time>
      </trkpt>
      <trkpt lat="44.80338" lon="6.16521">
        <ele>2075</ele>
        <time>2015-07-12T11:53:14Z</time>
      </trkpt>
      <trkpt lat="44.80339" lon="6.16512">
        <ele>2075</ele>
        <time>2015-07-12T11:53:23Z</time>
      </trkpt>
      <trkpt lat="44.8034" lon="6.16502">
        <ele>2075</ele>
        <time>2015-07-12T11:53:34Z</time>
      </trkpt>
      <trkpt lat="44.80341" lon="6.16496">
        <ele>2075</ele>
        <time>2015-07-12T11:53:45Z</time>
      </trkpt>
      <trkpt lat="44.80343" lon="6.1649">
        <ele>2075</ele>
        <time>2015-07-12T11:53:54Z</time>
      </trkpt>
      <trkpt lat="44.80343" lon="6.1648">
        <ele>2075</ele>
        <time>2015-07-12T11:54:04Z</time>
      </trkpt>
      <trkpt lat="44.80345" lon="6.16474">
        <ele>2075</ele>
        <time>2015-07-12T11:54:15Z</time>
      </trkpt>
      <trkpt lat="44.80346" lon="6.16465">
        <ele>2075</ele>
        <time>2015-07-12T11:54:24Z</time>
      </trkpt>
      <trkpt lat="44.80351" lon="6.16456">
        <ele>2075</ele>
        <time>2015-07-12T11:54:35Z</time>
      </trkpt>
      <trkpt lat="44.80353" lon="6.16446">
        <ele>2074</ele>
        <time>2015-07-12T11:54:44Z</time>
      </trkpt>
      <trkpt lat="44.80357" lon="6.16437">
        <ele>2073</ele>
        <time>2015-07-12T11:54:54Z</time>
      </trkpt>
      <trkpt lat="44.80362" lon="6.16431">
        <ele>2073</ele>
        <time>2015-07-12T11:55:03Z</time>
      </trkpt>
      <trkpt lat="44.80368" lon="6.16422">
        <ele>2072</ele>
        <time>2015-07-12T11:55:13Z</time>
      </trkpt>
      <trkpt lat="44.80374" lon="6.16417">
        <ele>2071</ele>
        <time>2015-07-12T11:55:22Z</time>
      </trkpt>
      <trkpt lat="44.80381" lon="6.1641">
        <ele>2071</ele>
        <time>2015-07-12T11:55:32Z</time>
      </trkpt>
      <trkpt lat="44.80387" lon="6.16401">
        <ele>2069</ele>
        <time>2015-07-12T11:55:42Z</time>
      </trkpt>
      <trkpt lat="44.80394" lon="6.16393">
        <ele>2068</ele>
        <time>2015-07-12T11:55:52Z</time>
      </trkpt>
      <trkpt lat="44.80402" lon="6.16385">
        <ele>2068</ele>
        <time>2015-07-12T11:56:02Z</time>
      </trkpt>
      <trkpt lat="44.80409" lon="6.16375">
        <ele>2067</ele>
        <time>2015-07-12T11:56:12Z</time>
      </trkpt>
      <trkpt lat="44.80415" lon="6.16364">
        <ele>2065</ele>
        <time>2015-07-12T11:56:22Z</time>
      </trkpt>
      <trkpt lat="44.80423" lon="6.16357">
        <ele>2065</ele>
        <time>2015-07-12T11:56:32Z</time>
      </trkpt>
      <trkpt lat="44.80431" lon="6.16347">
        <ele>2063</ele>
        <time>2015-07-12T11:56:42Z</time>
      </trkpt>
      <trkpt lat="44.80439" lon="6.16336">
        <ele>2062</ele>
        <time>2015-07-12T11:56:52Z</time>
      </trkpt>
      <trkpt lat="44.80445" lon="6.16325">
        <ele>2059</ele>
        <time>2015-07-12T11:57:01Z</time>
      </trkpt>
      <trkpt lat="44.80451" lon="6.16314">
        <ele>2058</ele>
        <time>2015-07-12T11:57:11Z</time>
      </trkpt>
      <trkpt lat="44.80456" lon="6.16302">
        <ele>2057</ele>
        <time>2015-07-12T11:57:20Z</time>
      </trkpt>
      <trkpt lat="44.80459" lon="6.16289">
        <ele>2056</ele>
        <time>2015-07-12T11:57:29Z</time>
      </trkpt>
      <trkpt lat="44.8046" lon="6.16274">
        <ele>2053</ele>
        <time>2015-07-12T11:57:39Z</time>
      </trkpt>
      <trkpt lat="44.80466" lon="6.16262">
        <ele>2052</ele>
        <time>2015-07-12T11:57:49Z</time>
      </trkpt>
      <trkpt lat="44.80474" lon="6.16255">
        <ele>2052</ele>
        <time>2015-07-12T11:57:59Z</time>
      </trkpt>
      <trkpt lat="44.8048" lon="6.16242">
        <ele>2050</ele>
        <time>2015-07-12T11:58:09Z</time>
      </trkpt>
      <trkpt lat="44.80482" lon="6.16228">
        <ele>2049</ele>
        <time>2015-07-12T11:58:18Z</time>
      </trkpt>
      <trkpt lat="44.80483" lon="6.16217">
        <ele>2048</ele>
        <time>2015-07-12T11:58:29Z</time>
      </trkpt>
      <trkpt lat="44.80483" lon="6.16215">
        <ele>2046</ele>
        <time>2015-07-12T11:58:40Z</time>
      </trkpt>
      <trkpt lat="44.80484" lon="6.16227">
        <ele>2044</ele>
        <time>2015-07-12T11:58:50Z</time>
      </trkpt>
      <trkpt lat="44.80484" lon="6.16238">
        <ele>2043</ele>
        <time>2015-07-12T11:58:59Z</time>
      </trkpt>
      <trkpt lat="44.80483" lon="6.16249">
        <ele>2043</ele>
        <time>2015-07-12T11:59:09Z</time>
      </trkpt>
      <trkpt lat="44.80479" lon="6.16259">
        <ele>2043</ele>
        <time>2015-07-12T11:59:19Z</time>
      </trkpt>
      <trkpt lat="44.80474" lon="6.16268">
        <ele>2042</ele>
        <time>2015-07-12T11:59:29Z</time>
      </trkpt>
      <trkpt lat="44.80472" lon="6.16278">
        <ele>2041</ele>
        <time>2015-07-12T11:59:38Z</time>
      </trkpt>
      <trkpt lat="44.80472" lon="6.16289">
        <ele>2039</ele>
        <time>2015-07-12T11:59:47Z</time>
      </trkpt>
      <trkpt lat="44.80472" lon="6.16302">
        <ele>2038</ele>
        <time>2015-07-12T11:59:57Z</time>
      </trkpt>
      <trkpt lat="44.80472" lon="6.16313">
        <ele>2037</ele>
        <time>2015-07-12T12:00:06Z</time>
      </trkpt>
      <trkpt lat="44.80471" lon="6.16324">
        <ele>2036</ele>
        <time>2015-07-12T12:00:15Z</time>
      </trkpt>
      <trkpt lat="44.80471" lon="6.16335">
        <ele>2034</ele>
        <time>2015-07-12T12:00:24Z</time>
      </trkpt>
      <trkpt lat="44.8047" lon="6.16348">
        <ele>2033</ele>
        <time>2015-07-12T12:00:33Z</time>
      </trkpt>
      <trkpt lat="44.80466" lon="6.16359">
        <ele>2031</ele>
        <time>2015-07-12T12:00:43Z</time>
      </trkpt>
      <trkpt lat="44.80463" lon="6.16369">
        <ele>2031</ele>
        <time>2015-07-12T12:00:52Z</time>
      </trkpt>
      <trkpt lat="44.80457" lon="6.16377">
        <ele>2031</ele>
        <time>2015-07-12T12:01:02Z</time>
      </trkpt>
      <trkpt lat="44.80454" lon="6.16389">
        <ele>2029</ele>
        <time>2015-07-12T12:01:12Z</time>
      </trkpt>
      <trkpt lat="44.80452" lon="6.164">
        <ele>2029</ele>
        <time>2015-07-12T12:01:22Z</time>
      </trkpt>
      <trkpt lat="44.80446" lon="6.1641">
        <ele>2029</ele>
        <time>2015-07-12T12:01:32Z</time>
      </trkpt>
      <trkpt lat="44.80444" lon="6.16424">
        <ele>2027</ele>
        <time>2015-07-12T12:01:42Z</time>
      </trkpt>
      <trkpt lat="44.80442" lon="6.16433">
        <ele>2026</ele>
        <time>2015-07-12T12:01:52Z</time>
      </trkpt>
      <trkpt lat="44.8044" lon="6.16444">
        <ele>2026</ele>
        <time>2015-07-12T12:02:03Z</time>
      </trkpt>
      <trkpt lat="44.80444" lon="6.16452">
        <ele>2025</ele>
        <time>2015-07-12T12:02:14Z</time>
      </trkpt>
      <trkpt lat="44.80449" lon="6.16448">
        <ele>2024</ele>
        <time>2015-07-12T12:02:23Z</time>
      </trkpt>
      <trkpt lat="44.80454" lon="6.16444">
        <ele>2024</ele>
        <time>2015-07-12T12:02:33Z</time>
      </trkpt>
      <trkpt lat="44.80459" lon="6.16438">
        <ele>2024</ele>
        <time>2015-07-12T12:02:42Z</time>
      </trkpt>
      <trkpt lat="44.80464" lon="6.16429">
        <ele>2022</ele>
        <time>2015-07-12T12:02:51Z</time>
      </trkpt>
      <trkpt lat="44.8047" lon="6.16423">
        <ele>2022</ele>
        <time>2015-07-12T12:03:00Z</time>
      </trkpt>
      <trkpt lat="44.80475" lon="6.16413">
        <ele>2020</ele>
        <time>2015-07-12T12:03:10Z</time>
      </trkpt>
      <trkpt lat="44.80478" lon="6.16402">
        <ele>2018</ele>
        <time>2015-07-12T12:03:19Z</time>
      </trkpt>
      <trkpt lat="44.80484" lon="6.16395">
        <ele>2017</ele>
        <time>2015-07-12T12:03:28Z</time>
      </trkpt>
      <trkpt lat="44.8049" lon="6.16389">
        <ele>2015</ele>
        <time>2015-07-12T12:03:38Z</time>
      </trkpt>
      <trkpt lat="44.80495" lon="6.16386">
        <ele>2015</ele>
        <time>2015-07-12T12:03:48Z</time>
      </trkpt>
      <trkpt lat="44.80489" lon="6.16393">
        <ele>2012</ele>
        <time>2015-07-12T12:03:57Z</time>
      </trkpt>
      <trkpt lat="44.80485" lon="6.16403">
        <ele>2007</ele>
        <time>2015-07-12T12:04:07Z</time>
      </trkpt>
      <trkpt lat="44.80489" lon="6.16414">
        <ele>2007</ele>
        <time>2015-07-12T12:04:18Z</time>
      </trkpt>
      <trkpt lat="44.80489" lon="6.16425">
        <ele>2006</ele>
        <time>2015-07-12T12:04:28Z</time>
      </trkpt>
      <trkpt lat="44.8049" lon="6.16437">
        <ele>2006</ele>
        <time>2015-07-12T12:04:37Z</time>
      </trkpt>
      <trkpt lat="44.80491" lon="6.16445">
        <ele>2006</ele>
        <time>2015-07-12T12:04:46Z</time>
      </trkpt>
      <trkpt lat="44.80489" lon="6.16456">
        <ele>2005</ele>
        <time>2015-07-12T12:04:57Z</time>
      </trkpt>
      <trkpt lat="44.80489" lon="6.16464">
        <ele>2003</ele>
        <time>2015-07-12T12:05:06Z</time>
      </trkpt>
      <trkpt lat="44.80487" lon="6.16474">
        <ele>2002</ele>
        <time>2015-07-12T12:05:16Z</time>
      </trkpt>
      <trkpt lat="44.80487" lon="6.16487">
        <ele>2001</ele>
        <time>2015-07-12T12:05:27Z</time>
      </trkpt>
      <trkpt lat="44.80488" lon="6.16497">
        <ele>2000</ele>
        <time>2015-07-12T12:05:36Z</time>
      </trkpt>
      <trkpt lat="44.80486" lon="6.16512">
        <ele>1998</ele>
        <time>2015-07-12T12:05:46Z</time>
      </trkpt>
      <trkpt lat="44.80492" lon="6.16511">
        <ele>1995</ele>
        <time>2015-07-12T12:05:59Z</time>
      </trkpt>
      <trkpt lat="44.80499" lon="6.16503">
        <ele>1992</ele>
        <time>2015-07-12T12:06:10Z</time>
      </trkpt>
      <trkpt lat="44.80504" lon="6.16496">
        <ele>1991</ele>
        <time>2015-07-12T12:06:20Z</time>
      </trkpt>
      <trkpt lat="44.80509" lon="6.16488">
        <ele>1991</ele>
        <time>2015-07-12T12:06:30Z</time>
      </trkpt>
      <trkpt lat="44.80513" lon="6.16484">
        <ele>1990</ele>
        <time>2015-07-12T12:06:39Z</time>
      </trkpt>
      <trkpt lat="44.80517" lon="6.16476">
        <ele>1990</ele>
        <time>2015-07-12T12:06:48Z</time>
      </trkpt>
      <trkpt lat="44.80521" lon="6.16469">
        <ele>1988</ele>
        <time>2015-07-12T12:06:58Z</time>
      </trkpt>
      <trkpt lat="44.80524" lon="6.1646">
        <ele>1986</ele>
        <time>2015-07-12T12:07:09Z</time>
      </trkpt>
      <trkpt lat="44.80525" lon="6.1645">
        <ele>1983</ele>
        <time>2015-07-12T12:07:19Z</time>
      </trkpt>
      <trkpt lat="44.80525" lon="6.16444">
        <ele>1981</ele>
        <time>2015-07-12T12:07:30Z</time>
      </trkpt>
      <trkpt lat="44.80529" lon="6.16435">
        <ele>1981</ele>
        <time>2015-07-12T12:07:40Z</time>
      </trkpt>
      <trkpt lat="44.80531" lon="6.16427">
        <ele>1981</ele>
        <time>2015-07-12T12:07:50Z</time>
      </trkpt>
      <trkpt lat="44.80529" lon="6.16426">
        <ele>1977</ele>
        <time>2015-07-12T12:08:07Z</time>
      </trkpt>
      <trkpt lat="44.80533" lon="6.16435">
        <ele>1980</ele>
        <time>2015-07-12T12:08:22Z</time>
      </trkpt>
      <trkpt lat="44.80533" lon="6.16441">
        <ele>1975</ele>
        <time>2015-07-12T12:08:33Z</time>
      </trkpt>
      <trkpt lat="44.80538" lon="6.16434">
        <ele>1975</ele>
        <time>2015-07-12T12:08:42Z</time>
      </trkpt>
      <trkpt lat="44.8054" lon="6.16432">
        <ele>1974</ele>
        <time>2015-07-12T12:08:52Z</time>
      </trkpt>
      <trkpt lat="44.80542" lon="6.16441">
        <ele>1972</ele>
        <time>2015-07-12T12:09:03Z</time>
      </trkpt>
      <trkpt lat="44.80549" lon="6.16435">
        <ele>1971</ele>
        <time>2015-07-12T12:09:12Z</time>
      </trkpt>
      <trkpt lat="44.80552" lon="6.16425">
        <ele>1968</ele>
        <time>2015-07-12T12:09:22Z</time>
      </trkpt>
      <trkpt lat="44.80555" lon="6.16431">
        <ele>1965</ele>
        <time>2015-07-12T12:09:31Z</time>
      </trkpt>
      <trkpt lat="44.80558" lon="6.1644">
        <ele>1963</ele>
        <time>2015-07-12T12:09:40Z</time>
      </trkpt>
      <trkpt lat="44.80556" lon="6.16453">
        <ele>1963</ele>
        <time>2015-07-12T12:09:49Z</time>
      </trkpt>
      <trkpt lat="44.80556" lon="6.16464">
        <ele>1962</ele>
        <time>2015-07-12T12:09:58Z</time>
      </trkpt>
      <trkpt lat="44.80561" lon="6.16474">
        <ele>1961</ele>
        <time>2015-07-12T12:10:07Z</time>
      </trkpt>
      <trkpt lat="44.80561" lon="6.16484">
        <ele>1959</ele>
        <time>2015-07-12T12:10:16Z</time>
      </trkpt>
      <trkpt lat="44.80561" lon="6.16487">
        <ele>1957</ele>
        <time>2015-07-12T12:10:35Z</time>
      </trkpt>
      <trkpt lat="44.80562" lon="6.16487">
        <ele>1952</ele>
        <time>2015-07-12T12:10:57Z</time>
      </trkpt>
      <trkpt lat="44.80564" lon="6.16491">
        <ele>1950</ele>
        <time>2015-07-12T12:11:09Z</time>
      </trkpt>
      <trkpt lat="44.80569" lon="6.16484">
        <ele>1950</ele>
        <time>2015-07-12T12:11:19Z</time>
      </trkpt>
      <trkpt lat="44.80573" lon="6.16477">
        <ele>1950</ele>
        <time>2015-07-12T12:11:28Z</time>
      </trkpt>
      <trkpt lat="44.80576" lon="6.16467">
        <ele>1950</ele>
        <time>2015-07-12T12:11:38Z</time>
      </trkpt>
      <trkpt lat="44.80577" lon="6.16462">
        <ele>1949</ele>
        <time>2015-07-12T12:11:47Z</time>
      </trkpt>
      <trkpt lat="44.8058" lon="6.16456">
        <ele>1949</ele>
        <time>2015-07-12T12:11:58Z</time>
      </trkpt>
      <trkpt lat="44.80582" lon="6.16452">
        <ele>1949</ele>
        <time>2015-07-12T12:12:10Z</time>
      </trkpt>
      <trkpt lat="44.80584" lon="6.16444">
        <ele>1945</ele>
        <time>2015-07-12T12:12:20Z</time>
      </trkpt>
      <trkpt lat="44.80586" lon="6.1644">
        <ele>1942</ele>
        <time>2015-07-12T12:12:38Z</time>
      </trkpt>
      <trkpt lat="44.80586" lon="6.16431">
        <ele>1942</ele>
        <time>2015-07-12T12:12:49Z</time>
      </trkpt>
      <trkpt lat="44.8059" lon="6.16426">
        <ele>1942</ele>
        <time>2015-07-12T12:12:59Z</time>
      </trkpt>
      <trkpt lat="44.80596" lon="6.16419">
        <ele>1941</ele>
        <time>2015-07-12T12:13:09Z</time>
      </trkpt>
      <trkpt lat="44.80602" lon="6.1641">
        <ele>1939</ele>
        <time>2015-07-12T12:13:18Z</time>
      </trkpt>
      <trkpt lat="44.80606" lon="6.16404">
        <ele>1939</ele>
        <time>2015-07-12T12:13:29Z</time>
      </trkpt>
      <trkpt lat="44.80607" lon="6.16393">
        <ele>1939</ele>
        <time>2015-07-12T12:13:39Z</time>
      </trkpt>
      <trkpt lat="44.80608" lon="6.16386">
        <ele>1939</ele>
        <time>2015-07-12T12:13:50Z</time>
      </trkpt>
      <trkpt lat="44.80613" lon="6.16377">
        <ele>1939</ele>
        <time>2015-07-12T12:14:00Z</time>
      </trkpt>
      <trkpt lat="44.80618" lon="6.16367">
        <ele>1939</ele>
        <time>2015-07-12T12:14:09Z</time>
      </trkpt>
      <trkpt lat="44.80627" lon="6.16361">
        <ele>1937</ele>
        <time>2015-07-12T12:14:18Z</time>
      </trkpt>
      <trkpt lat="44.80632" lon="6.16353">
        <ele>1935</ele>
        <time>2015-07-12T12:14:27Z</time>
      </trkpt>
      <trkpt lat="44.80632" lon="6.16338">
        <ele>1934</ele>
        <time>2015-07-12T12:14:37Z</time>
      </trkpt>
      <trkpt lat="44.80623" lon="6.16328">
        <ele>1929</ele>
        <time>2015-07-12T12:14:47Z</time>
      </trkpt>
      <trkpt lat="44.80631" lon="6.16327">
        <ele>1927</ele>
        <time>2015-07-12T12:14:58Z</time>
      </trkpt>
      <trkpt lat="44.80637" lon="6.16326">
        <ele>1931</ele>
        <time>2015-07-12T12:15:08Z</time>
      </trkpt>
      <trkpt lat="44.80642" lon="6.16321">
        <ele>1933</ele>
        <time>2015-07-12T12:15:17Z</time>
      </trkpt>
      <trkpt lat="44.80643" lon="6.16316">
        <ele>1933</ele>
        <time>2015-07-12T12:15:28Z</time>
      </trkpt>
      <trkpt lat="44.80642" lon="6.16306">
        <ele>1929</ele>
        <time>2015-07-12T12:15:38Z</time>
      </trkpt>
      <trkpt lat="44.80642" lon="6.163">
        <ele>1927</ele>
        <time>2015-07-12T12:15:48Z</time>
      </trkpt>
      <trkpt lat="44.80641" lon="6.16294">
        <ele>1923</ele>
        <time>2015-07-12T12:15:57Z</time>
      </trkpt>
      <trkpt lat="44.80642" lon="6.16285">
        <ele>1920</ele>
        <time>2015-07-12T12:16:06Z</time>
      </trkpt>
      <trkpt lat="44.80646" lon="6.16275">
        <ele>1917</ele>
        <time>2015-07-12T12:16:17Z</time>
      </trkpt>
      <trkpt lat="44.8065" lon="6.1627">
        <ele>1914</ele>
        <time>2015-07-12T12:16:27Z</time>
      </trkpt>
      <trkpt lat="44.80656" lon="6.16266">
        <ele>1910</ele>
        <time>2015-07-12T12:16:37Z</time>
      </trkpt>
      <trkpt lat="44.8066" lon="6.16263">
        <ele>1905</ele>
        <time>2015-07-12T12:16:51Z</time>
      </trkpt>
      <trkpt lat="44.80668" lon="6.16258">
        <ele>1905</ele>
        <time>2015-07-12T12:17:01Z</time>
      </trkpt>
      <trkpt lat="44.80677" lon="6.16255">
        <ele>1903</ele>
        <time>2015-07-12T12:17:11Z</time>
      </trkpt>
      <trkpt lat="44.80684" lon="6.16247">
        <ele>1902</ele>
        <time>2015-07-12T12:17:22Z</time>
      </trkpt>
      <trkpt lat="44.80692" lon="6.16244">
        <ele>1901</ele>
        <time>2015-07-12T12:17:32Z</time>
      </trkpt>
      <trkpt lat="44.80699" lon="6.16241">
        <ele>1899</ele>
        <time>2015-07-12T12:17:41Z</time>
      </trkpt>
      <trkpt lat="44.80705" lon="6.16243">
        <ele>1898</ele>
        <time>2015-07-12T12:17:51Z</time>
      </trkpt>
      <trkpt lat="44.80695" lon="6.16247">
        <ele>1898</ele>
        <time>2015-07-12T12:18:00Z</time>
      </trkpt>
      <trkpt lat="44.80693" lon="6.16256">
        <ele>1898</ele>
        <time>2015-07-12T12:18:09Z</time>
      </trkpt>
      <trkpt lat="44.80685" lon="6.16262">
        <ele>1895</ele>
        <time>2015-07-12T12:18:18Z</time>
      </trkpt>
      <trkpt lat="44.80682" lon="6.16273">
        <ele>1890</ele>
        <time>2015-07-12T12:18:27Z</time>
      </trkpt>
      <trkpt lat="44.80677" lon="6.16282">
        <ele>1888</ele>
        <time>2015-07-12T12:18:36Z</time>
      </trkpt>
      <trkpt lat="44.80672" lon="6.16291">
        <ele>1888</ele>
        <time>2015-07-12T12:18:45Z</time>
      </trkpt>
      <trkpt lat="44.80669" lon="6.16299">
        <ele>1886</ele>
        <time>2015-07-12T12:18:54Z</time>
      </trkpt>
      <trkpt lat="44.80665" lon="6.16308">
        <ele>1886</ele>
        <time>2015-07-12T12:19:04Z</time>
      </trkpt>
      <trkpt lat="44.80672" lon="6.16321">
        <ele>1885</ele>
        <time>2015-07-12T12:19:14Z</time>
      </trkpt>
      <trkpt lat="44.80677" lon="6.16315">
        <ele>1885</ele>
        <time>2015-07-12T12:19:25Z</time>
      </trkpt>
      <trkpt lat="44.80682" lon="6.16311">
        <ele>1884</ele>
        <time>2015-07-12T12:19:34Z</time>
      </trkpt>
      <trkpt lat="44.80689" lon="6.16307">
        <ele>1882</ele>
        <time>2015-07-12T12:19:44Z</time>
      </trkpt>
      <trkpt lat="44.80695" lon="6.16305">
        <ele>1881</ele>
        <time>2015-07-12T12:19:53Z</time>
      </trkpt>
      <trkpt lat="44.80705" lon="6.16299">
        <ele>1880</ele>
        <time>2015-07-12T12:20:02Z</time>
      </trkpt>
      <trkpt lat="44.80713" lon="6.16293">
        <ele>1877</ele>
        <time>2015-07-12T12:20:12Z</time>
      </trkpt>
      <trkpt lat="44.80721" lon="6.16285">
        <ele>1874</ele>
        <time>2015-07-12T12:20:22Z</time>
      </trkpt>
      <trkpt lat="44.80729" lon="6.16281">
        <ele>1873</ele>
        <time>2015-07-12T12:20:32Z</time>
      </trkpt>
      <trkpt lat="44.80722" lon="6.16288">
        <ele>1872</ele>
        <time>2015-07-12T12:20:41Z</time>
      </trkpt>
      <trkpt lat="44.80716" lon="6.163">
        <ele>1868</ele>
        <time>2015-07-12T12:20:50Z</time>
      </trkpt>
      <trkpt lat="44.80719" lon="6.16313">
        <ele>1870</ele>
        <time>2015-07-12T12:20:59Z</time>
      </trkpt>
      <trkpt lat="44.80711" lon="6.16319">
        <ele>1870</ele>
        <time>2015-07-12T12:21:08Z</time>
      </trkpt>
      <trkpt lat="44.80705" lon="6.16328">
        <ele>1870</ele>
        <time>2015-07-12T12:21:17Z</time>
      </trkpt>
      <trkpt lat="44.80705" lon="6.1634">
        <ele>1870</ele>
        <time>2015-07-12T12:21:27Z</time>
      </trkpt>
      <trkpt lat="44.80696" lon="6.16349">
        <ele>1866</ele>
        <time>2015-07-12T12:21:37Z</time>
      </trkpt>
      <trkpt lat="44.80691" lon="6.16357">
        <ele>1861</ele>
        <time>2015-07-12T12:21:46Z</time>
      </trkpt>
      <trkpt lat="44.80699" lon="6.16359">
        <ele>1858</ele>
        <time>2015-07-12T12:21:55Z</time>
      </trkpt>
      <trkpt lat="44.80708" lon="6.16351">
        <ele>1856</ele>
        <time>2015-07-12T12:22:04Z</time>
      </trkpt>
      <trkpt lat="44.80718" lon="6.16341">
        <ele>1856</ele>
        <time>2015-07-12T12:22:14Z</time>
      </trkpt>
      <trkpt lat="44.80725" lon="6.16335">
        <ele>1856</ele>
        <time>2015-07-12T12:22:23Z</time>
      </trkpt>
      <trkpt lat="44.80733" lon="6.16329">
        <ele>1856</ele>
        <time>2015-07-12T12:22:32Z</time>
      </trkpt>
      <trkpt lat="44.80742" lon="6.16323">
        <ele>1854</ele>
        <time>2015-07-12T12:22:41Z</time>
      </trkpt>
      <trkpt lat="44.80748" lon="6.16315">
        <ele>1853</ele>
        <time>2015-07-12T12:22:51Z</time>
      </trkpt>
      <trkpt lat="44.80756" lon="6.16308">
        <ele>1853</ele>
        <time>2015-07-12T12:23:00Z</time>
      </trkpt>
      <trkpt lat="44.80762" lon="6.16297">
        <ele>1853</ele>
        <time>2015-07-12T12:23:09Z</time>
      </trkpt>
      <trkpt lat="44.80773" lon="6.16289">
        <ele>1850</ele>
        <time>2015-07-12T12:23:19Z</time>
      </trkpt>
      <trkpt lat="44.8078" lon="6.16287">
        <ele>1850</ele>
        <time>2015-07-12T12:23:29Z</time>
      </trkpt>
      <trkpt lat="44.80789" lon="6.1629">
        <ele>1851</ele>
        <time>2015-07-12T12:23:39Z</time>
      </trkpt>
      <trkpt lat="44.80798" lon="6.1629">
        <ele>1854</ele>
        <time>2015-07-12T12:23:48Z</time>
      </trkpt>
      <trkpt lat="44.80806" lon="6.16286">
        <ele>1858</ele>
        <time>2015-07-12T12:23:57Z</time>
      </trkpt>
      <trkpt lat="44.80814" lon="6.16278">
        <ele>1857</ele>
        <time>2015-07-12T12:24:06Z</time>
      </trkpt>
      <trkpt lat="44.80824" lon="6.16276">
        <ele>1852</ele>
        <time>2015-07-12T12:24:15Z</time>
      </trkpt>
      <trkpt lat="44.80831" lon="6.16269">
        <ele>1849</ele>
        <time>2015-07-12T12:24:24Z</time>
      </trkpt>
      <trkpt lat="44.80837" lon="6.1627">
        <ele>1853</ele>
        <time>2015-07-12T12:24:33Z</time>
      </trkpt>
      <trkpt lat="44.80846" lon="6.16263">
        <ele>1851</ele>
        <time>2015-07-12T12:24:43Z</time>
      </trkpt>
      <trkpt lat="44.80851" lon="6.16263">
        <ele>1851</ele>
        <time>2015-07-12T12:24:52Z</time>
      </trkpt>
      <trkpt lat="44.80859" lon="6.16255">
        <ele>1849</ele>
        <time>2015-07-12T12:25:01Z</time>
      </trkpt>
      <trkpt lat="44.80868" lon="6.16247">
        <ele>1840</ele>
        <time>2015-07-12T12:25:10Z</time>
      </trkpt>
      <trkpt lat="44.80873" lon="6.16237">
        <ele>1838</ele>
        <time>2015-07-12T12:25:20Z</time>
      </trkpt>
      <trkpt lat="44.80883" lon="6.16237">
        <ele>1837</ele>
        <time>2015-07-12T12:25:29Z</time>
      </trkpt>
      <trkpt lat="44.80892" lon="6.16239">
        <ele>1837</ele>
        <time>2015-07-12T12:25:40Z</time>
      </trkpt>
      <trkpt lat="44.80895" lon="6.16232">
        <ele>1829</ele>
        <time>2015-07-12T12:25:51Z</time>
      </trkpt>
      <trkpt lat="44.80905" lon="6.16228">
        <ele>1823</ele>
        <time>2015-07-12T12:26:01Z</time>
      </trkpt>
      <trkpt lat="44.80917" lon="6.16224">
        <ele>1823</ele>
        <time>2015-07-12T12:26:10Z</time>
      </trkpt>
      <trkpt lat="44.80923" lon="6.16218">
        <ele>1823</ele>
        <time>2015-07-12T12:26:19Z</time>
      </trkpt>
      <trkpt lat="44.80934" lon="6.16207">
        <ele>1823</ele>
        <time>2015-07-12T12:26:29Z</time>
      </trkpt>
      <trkpt lat="44.80942" lon="6.16201">
        <ele>1822</ele>
        <time>2015-07-12T12:26:38Z</time>
      </trkpt>
      <trkpt lat="44.80957" lon="6.16203">
        <ele>1829</ele>
        <time>2015-07-12T12:26:47Z</time>
      </trkpt>
      <trkpt lat="44.80968" lon="6.16189">
        <ele>1832</ele>
        <time>2015-07-12T12:26:57Z</time>
      </trkpt>
      <trkpt lat="44.80979" lon="6.16183">
        <ele>1829</ele>
        <time>2015-07-12T12:27:06Z</time>
      </trkpt>
      <trkpt lat="44.80986" lon="6.16176">
        <ele>1829</ele>
        <time>2015-07-12T12:27:15Z</time>
      </trkpt>
      <trkpt lat="44.80986" lon="6.16162">
        <ele>1829</ele>
        <time>2015-07-12T12:27:24Z</time>
      </trkpt>
      <trkpt lat="44.80981" lon="6.16145">
        <ele>1829</ele>
        <time>2015-07-12T12:27:34Z</time>
      </trkpt>
      <trkpt lat="44.80976" lon="6.16148">
        <ele>1829</ele>
        <time>2015-07-12T12:27:44Z</time>
      </trkpt>
      <trkpt lat="44.80982" lon="6.16153">
        <ele>1823</ele>
        <time>2015-07-12T12:27:53Z</time>
      </trkpt>
      <trkpt lat="44.80983" lon="6.16162">
        <ele>1819</ele>
        <time>2015-07-12T12:28:02Z</time>
      </trkpt>
      <trkpt lat="44.80995" lon="6.1617">
        <ele>1818</ele>
        <time>2015-07-12T12:28:13Z</time>
      </trkpt>
      <trkpt lat="44.81003" lon="6.16176">
        <ele>1811</ele>
        <time>2015-07-12T12:28:23Z</time>
      </trkpt>
      <trkpt lat="44.8101" lon="6.16179">
        <ele>1810</ele>
        <time>2015-07-12T12:28:33Z</time>
      </trkpt>
      <trkpt lat="44.81018" lon="6.16183">
        <ele>1810</ele>
        <time>2015-07-12T12:28:43Z</time>
      </trkpt>
      <trkpt lat="44.81026" lon="6.16186">
        <ele>1810</ele>
        <time>2015-07-12T12:28:52Z</time>
      </trkpt>
      <trkpt lat="44.81031" lon="6.1618">
        <ele>1806</ele>
        <time>2015-07-12T12:29:01Z</time>
      </trkpt>
      <trkpt lat="44.8102" lon="6.1619">
        <ele>1804</ele>
        <time>2015-07-12T12:29:10Z</time>
      </trkpt>
      <trkpt lat="44.81027" lon="6.16187">
        <ele>1809</ele>
        <time>2015-07-12T12:29:20Z</time>
      </trkpt>
      <trkpt lat="44.81026" lon="6.16187">
        <ele>1808</ele>
        <time>2015-07-12T12:29:30Z</time>
      </trkpt>
      <trkpt lat="44.81022" lon="6.16188">
        <ele>1808</ele>
        <time>2015-07-12T12:29:41Z</time>
      </trkpt>
      <trkpt lat="44.81015" lon="6.16193">
        <ele>1806</ele>
        <time>2015-07-12T12:29:50Z</time>
      </trkpt>
      <trkpt lat="44.8101" lon="6.16198">
        <ele>1806</ele>
        <time>2015-07-12T12:30:00Z</time>
      </trkpt>
      <trkpt lat="44.81006" lon="6.16207">
        <ele>1806</ele>
        <time>2015-07-12T12:30:09Z</time>
      </trkpt>
      <trkpt lat="44.81003" lon="6.1621">
        <ele>1807</ele>
        <time>2015-07-12T12:30:18Z</time>
      </trkpt>
      <trkpt lat="44.80997" lon="6.16215">
        <ele>1807</ele>
        <time>2015-07-12T12:30:29Z</time>
      </trkpt>
      <trkpt lat="44.80986" lon="6.16224">
        <ele>1807</ele>
        <time>2015-07-12T12:30:41Z</time>
      </trkpt>
      <trkpt lat="44.80973" lon="6.16235">
        <ele>1809</ele>
        <time>2015-07-12T12:30:50Z</time>
      </trkpt>
      <trkpt lat="44.80973" lon="6.16237">
        <ele>1809</ele>
        <time>2015-07-12T12:30:59Z</time>
      </trkpt>
      <trkpt lat="44.80973" lon="6.16245">
        <ele>1809</ele>
        <time>2015-07-12T12:31:09Z</time>
      </trkpt>
      <trkpt lat="44.80965" lon="6.16246">
        <ele>1805</ele>
        <time>2015-07-12T12:31:19Z</time>
      </trkpt>
      <trkpt lat="44.80965" lon="6.16251">
        <ele>1794</ele>
        <time>2015-07-12T12:31:30Z</time>
      </trkpt>
      <trkpt lat="44.80965" lon="6.1626">
        <ele>1789</ele>
        <time>2015-07-12T12:31:40Z</time>
      </trkpt>
      <trkpt lat="44.80977" lon="6.16263">
        <ele>1792</ele>
        <time>2015-07-12T12:31:49Z</time>
      </trkpt>
      <trkpt lat="44.80985" lon="6.16265">
        <ele>1792</ele>
        <time>2015-07-12T12:31:58Z</time>
      </trkpt>
      <trkpt lat="44.80996" lon="6.16271">
        <ele>1792</ele>
        <time>2015-07-12T12:32:08Z</time>
      </trkpt>
      <trkpt lat="44.81005" lon="6.16276">
        <ele>1794</ele>
        <time>2015-07-12T12:32:18Z</time>
      </trkpt>
      <trkpt lat="44.81012" lon="6.16283">
        <ele>1798</ele>
        <time>2015-07-12T12:32:28Z</time>
      </trkpt>
      <trkpt lat="44.81019" lon="6.16288">
        <ele>1801</ele>
        <time>2015-07-12T12:32:37Z</time>
      </trkpt>
      <trkpt lat="44.81027" lon="6.16296">
        <ele>1802</ele>
        <time>2015-07-12T12:32:46Z</time>
      </trkpt>
      <trkpt lat="44.81035" lon="6.16292">
        <ele>1799</ele>
        <time>2015-07-12T12:32:56Z</time>
      </trkpt>
      <trkpt lat="44.81042" lon="6.16284">
        <ele>1790</ele>
        <time>2015-07-12T12:33:05Z</time>
      </trkpt>
      <trkpt lat="44.81053" lon="6.16282">
        <ele>1787</ele>
        <time>2015-07-12T12:33:19Z</time>
      </trkpt>
      <trkpt lat="44.81056" lon="6.16281">
        <ele>1786</ele>
        <time>2015-07-12T12:33:29Z</time>
      </trkpt>
      <trkpt lat="44.8106" lon="6.1628">
        <ele>1786</ele>
        <time>2015-07-12T12:33:39Z</time>
      </trkpt>
      <trkpt lat="44.81081" lon="6.16285">
        <ele>1790</ele>
        <time>2015-07-12T12:33:48Z</time>
      </trkpt>
      <trkpt lat="44.81088" lon="6.16281">
        <ele>1795</ele>
        <time>2015-07-12T12:33:59Z</time>
      </trkpt>
      <trkpt lat="44.81083" lon="6.16281">
        <ele>1793</ele>
        <time>2015-07-12T12:34:09Z</time>
      </trkpt>
      <trkpt lat="44.81081" lon="6.16289">
        <ele>1802</ele>
        <time>2015-07-12T12:34:18Z</time>
      </trkpt>
      <trkpt lat="44.81097" lon="6.16287">
        <ele>1812</ele>
        <time>2015-07-12T12:34:28Z</time>
      </trkpt>
      <trkpt lat="44.81095" lon="6.16286">
        <ele>1815</ele>
        <time>2015-07-12T12:34:40Z</time>
      </trkpt>
      <trkpt lat="44.81099" lon="6.16283">
        <ele>1815</ele>
        <time>2015-07-12T12:34:51Z</time>
      </trkpt>
      <trkpt lat="44.81096" lon="6.16275">
        <ele>1805</ele>
        <time>2015-07-12T12:35:04Z</time>
      </trkpt>
      <trkpt lat="44.81088" lon="6.16276">
        <ele>1794</ele>
        <time>2015-07-12T12:35:14Z</time>
      </trkpt>
      <trkpt lat="44.81088" lon="6.16276">
        <ele>1788</ele>
        <time>2015-07-12T12:35:23Z</time>
      </trkpt>
      <trkpt lat="44.81091" lon="6.16271">
        <ele>1785</ele>
        <time>2015-07-12T12:35:34Z</time>
      </trkpt>
      <trkpt lat="44.81096" lon="6.16272">
        <ele>1784</ele>
        <time>2015-07-12T12:35:44Z</time>
      </trkpt>
      <trkpt lat="44.81102" lon="6.16271">
        <ele>1783</ele>
        <time>2015-07-12T12:35:57Z</time>
      </trkpt>
      <trkpt lat="44.81101" lon="6.16268">
        <ele>1778</ele>
        <time>2015-07-12T12:36:08Z</time>
      </trkpt>
      <trkpt lat="44.81094" lon="6.16264">
        <ele>1773</ele>
        <time>2015-07-12T12:36:18Z</time>
      </trkpt>
      <trkpt lat="44.81085" lon="6.16267">
        <ele>1766</ele>
        <time>2015-07-12T12:36:28Z</time>
      </trkpt>
      <trkpt lat="44.81092" lon="6.16266">
        <ele>1765</ele>
        <time>2015-07-12T12:36:37Z</time>
      </trkpt>
      <trkpt lat="44.81097" lon="6.16264">
        <ele>1765</ele>
        <time>2015-07-12T12:36:48Z</time>
      </trkpt>
      <trkpt lat="44.81102" lon="6.16261">
        <ele>1765</ele>
        <time>2015-07-12T12:36:58Z</time>
      </trkpt>
      <trkpt lat="44.81102" lon="6.16258">
        <ele>1761</ele>
        <time>2015-07-12T12:37:07Z</time>
      </trkpt>
      <trkpt lat="44.81101" lon="6.16265">
        <ele>1757</ele>
        <time>2015-07-12T12:37:16Z</time>
      </trkpt>
      <trkpt lat="44.81109" lon="6.16271">
        <ele>1753</ele>
        <time>2015-07-12T12:37:25Z</time>
      </trkpt>
      <trkpt lat="44.81106" lon="6.16276">
        <ele>1757</ele>
        <time>2015-07-12T12:37:34Z</time>
      </trkpt>
      <trkpt lat="44.81101" lon="6.16281">
        <ele>1762</ele>
        <time>2015-07-12T12:37:44Z</time>
      </trkpt>
      <trkpt lat="44.81092" lon="6.16285">
        <ele>1762</ele>
        <time>2015-07-12T12:37:54Z</time>
      </trkpt>
      <trkpt lat="44.81084" lon="6.16286">
        <ele>1760</ele>
        <time>2015-07-12T12:38:03Z</time>
      </trkpt>
      <trkpt lat="44.81078" lon="6.1629">
        <ele>1759</ele>
        <time>2015-07-12T12:38:12Z</time>
      </trkpt>
      <trkpt lat="44.81075" lon="6.16297">
        <ele>1759</ele>
        <time>2015-07-12T12:38:21Z</time>
      </trkpt>
      <trkpt lat="44.81068" lon="6.16303">
        <ele>1759</ele>
        <time>2015-07-12T12:38:30Z</time>
      </trkpt>
      <trkpt lat="44.81064" lon="6.16305">
        <ele>1759</ele>
        <time>2015-07-12T12:38:39Z</time>
      </trkpt>
      <trkpt lat="44.81078" lon="6.1631">
        <ele>1763</ele>
        <time>2015-07-12T12:38:48Z</time>
      </trkpt>
      <trkpt lat="44.81092" lon="6.16314">
        <ele>1766</ele>
        <time>2015-07-12T12:38:57Z</time>
      </trkpt>
      <trkpt lat="44.81089" lon="6.16319">
        <ele>1767</ele>
        <time>2015-07-12T12:39:06Z</time>
      </trkpt>
      <trkpt lat="44.81087" lon="6.16321">
        <ele>1767</ele>
        <time>2015-07-12T12:39:15Z</time>
      </trkpt>
      <trkpt lat="44.81079" lon="6.1632">
        <ele>1766</ele>
        <time>2015-07-12T12:39:24Z</time>
      </trkpt>
      <trkpt lat="44.81055" lon="6.16317">
        <ele>1760</ele>
        <time>2015-07-12T12:39:33Z</time>
      </trkpt>
      <trkpt lat="44.81049" lon="6.16318">
        <ele>1753</ele>
        <time>2015-07-12T12:39:42Z</time>
      </trkpt>
      <trkpt lat="44.81057" lon="6.16319">
        <ele>1753</ele>
        <time>2015-07-12T12:39:52Z</time>
      </trkpt>
      <trkpt lat="44.81056" lon="6.16321">
        <ele>1753</ele>
        <time>2015-07-12T12:40:01Z</time>
      </trkpt>
      <trkpt lat="44.81045" lon="6.1633">
        <ele>1761</ele>
        <time>2015-07-12T12:40:11Z</time>
      </trkpt>
      <trkpt lat="44.81056" lon="6.16332">
        <ele>1765</ele>
        <time>2015-07-12T12:40:21Z</time>
      </trkpt>
      <trkpt lat="44.81065" lon="6.16329">
        <ele>1766</ele>
        <time>2015-07-12T12:40:30Z</time>
      </trkpt>
      <trkpt lat="44.8107" lon="6.16325">
        <ele>1770</ele>
        <time>2015-07-12T12:40:39Z</time>
      </trkpt>
      <trkpt lat="44.81062" lon="6.16319">
        <ele>1770</ele>
        <time>2015-07-12T12:40:48Z</time>
      </trkpt>
      <trkpt lat="44.81073" lon="6.16324">
        <ele>1772</ele>
        <time>2015-07-12T12:40:57Z</time>
      </trkpt>
      <trkpt lat="44.81063" lon="6.16318">
        <ele>1772</ele>
        <time>2015-07-12T12:41:07Z</time>
      </trkpt>
      <trkpt lat="44.81057" lon="6.16318">
        <ele>1769</ele>
        <time>2015-07-12T12:41:16Z</time>
      </trkpt>
      <trkpt lat="44.81051" lon="6.1632">
        <ele>1769</ele>
        <time>2015-07-12T12:41:25Z</time>
      </trkpt>
      <trkpt lat="44.81041" lon="6.16321">
        <ele>1766</ele>
        <time>2015-07-12T12:41:35Z</time>
      </trkpt>
      <trkpt lat="44.81029" lon="6.16323">
        <ele>1762</ele>
        <time>2015-07-12T12:41:45Z</time>
      </trkpt>
      <trkpt lat="44.81018" lon="6.16324">
        <ele>1761</ele>
        <time>2015-07-12T12:41:56Z</time>
      </trkpt>
      <trkpt lat="44.8101" lon="6.1633">
        <ele>1757</ele>
        <time>2015-07-12T12:42:05Z</time>
      </trkpt>
      <trkpt lat="44.80993" lon="6.16332">
        <ele>1743</ele>
        <time>2015-07-12T12:42:15Z</time>
      </trkpt>
      <trkpt lat="44.81021" lon="6.16334">
        <ele>1738</ele>
        <time>2015-07-12T12:42:25Z</time>
      </trkpt>
      <trkpt lat="44.81014" lon="6.16341">
        <ele>1738</ele>
        <time>2015-07-12T12:42:34Z</time>
      </trkpt>
      <trkpt lat="44.81027" lon="6.16347">
        <ele>1743</ele>
        <time>2015-07-12T12:42:43Z</time>
      </trkpt>
      <trkpt lat="44.81035" lon="6.16347">
        <ele>1744</ele>
        <time>2015-07-12T12:42:52Z</time>
      </trkpt>
      <trkpt lat="44.81057" lon="6.16353">
        <ele>1747</ele>
        <time>2015-07-12T12:43:02Z</time>
      </trkpt>
      <trkpt lat="44.81074" lon="6.16365">
        <ele>1756</ele>
        <time>2015-07-12T12:43:12Z</time>
      </trkpt>
      <trkpt lat="44.81079" lon="6.16369">
        <ele>1758</ele>
        <time>2015-07-12T12:43:21Z</time>
      </trkpt>
      <trkpt lat="44.81089" lon="6.16381">
        <ele>1763</ele>
        <time>2015-07-12T12:43:31Z</time>
      </trkpt>
      <trkpt lat="44.81108" lon="6.16384">
        <ele>1764</ele>
        <time>2015-07-12T12:43:41Z</time>
      </trkpt>
      <trkpt lat="44.81124" lon="6.16383">
        <ele>1765</ele>
        <time>2015-07-12T12:43:51Z</time>
      </trkpt>
      <trkpt lat="44.81111" lon="6.16388">
        <ele>1766</ele>
        <time>2015-07-12T12:44:01Z</time>
      </trkpt>
      <trkpt lat="44.81133" lon="6.16381">
        <ele>1764</ele>
        <time>2015-07-12T12:44:11Z</time>
      </trkpt>
      <trkpt lat="44.81122" lon="6.16373">
        <ele>1764</ele>
        <time>2015-07-12T12:44:20Z</time>
      </trkpt>
      <trkpt lat="44.81108" lon="6.16368">
        <ele>1759</ele>
        <time>2015-07-12T12:44:30Z</time>
      </trkpt>
      <trkpt lat="44.81096" lon="6.16377">
        <ele>1757</ele>
        <time>2015-07-12T12:44:39Z</time>
      </trkpt>
      <trkpt lat="44.81082" lon="6.16376">
        <ele>1752</ele>
        <time>2015-07-12T12:44:49Z</time>
      </trkpt>
      <trkpt lat="44.81066" lon="6.16374">
        <ele>1740</ele>
        <time>2015-07-12T12:44:59Z</time>
      </trkpt>
      <trkpt lat="44.81043" lon="6.16368">
        <ele>1722</ele>
        <time>2015-07-12T12:45:08Z</time>
      </trkpt>
      <trkpt lat="44.81031" lon="6.16367">
        <ele>1711</ele>
        <time>2015-07-12T12:45:19Z</time>
      </trkpt>
      <trkpt lat="44.81018" lon="6.16369">
        <ele>1705</ele>
        <time>2015-07-12T12:45:31Z</time>
      </trkpt>
      <trkpt lat="44.81006" lon="6.16367">
        <ele>1699</ele>
        <time>2015-07-12T12:45:40Z</time>
      </trkpt>
      <trkpt lat="44.81005" lon="6.16371">
        <ele>1699</ele>
        <time>2015-07-12T12:45:49Z</time>
      </trkpt>
      <trkpt lat="44.81001" lon="6.16393">
        <ele>1699</ele>
        <time>2015-07-12T12:45:59Z</time>
      </trkpt>
      <trkpt lat="44.80997" lon="6.16403">
        <ele>1699</ele>
        <time>2015-07-12T12:46:08Z</time>
      </trkpt>
      <trkpt lat="44.81027" lon="6.1641">
        <ele>1707</ele>
        <time>2015-07-12T12:46:17Z</time>
      </trkpt>
      <trkpt lat="44.81036" lon="6.16412">
        <ele>1712</ele>
        <time>2015-07-12T12:46:27Z</time>
      </trkpt>
      <trkpt lat="44.8105" lon="6.16416">
        <ele>1714</ele>
        <time>2015-07-12T12:46:36Z</time>
      </trkpt>
      <trkpt lat="44.81058" lon="6.16428">
        <ele>1718</ele>
        <time>2015-07-12T12:46:47Z</time>
      </trkpt>
      <trkpt lat="44.81055" lon="6.16433">
        <ele>1715</ele>
        <time>2015-07-12T12:46:57Z</time>
      </trkpt>
      <trkpt lat="44.81051" lon="6.16437">
        <ele>1705</ele>
        <time>2015-07-12T12:47:07Z</time>
      </trkpt>
      <trkpt lat="44.81069" lon="6.16436">
        <ele>1696</ele>
        <time>2015-07-12T12:47:17Z</time>
      </trkpt>
      <trkpt lat="44.81107" lon="6.1644">
        <ele>1698</ele>
        <time>2015-07-12T12:47:27Z</time>
      </trkpt>
      <trkpt lat="44.81098" lon="6.16433">
        <ele>1699</ele>
        <time>2015-07-12T12:47:37Z</time>
      </trkpt>
      <trkpt lat="44.8109" lon="6.16428">
        <ele>1699</ele>
        <time>2015-07-12T12:47:47Z</time>
      </trkpt>
      <trkpt lat="44.81071" lon="6.16427">
        <ele>1694</ele>
        <time>2015-07-12T12:47:57Z</time>
      </trkpt>
      <trkpt lat="44.8106" lon="6.16422">
        <ele>1694</ele>
        <time>2015-07-12T12:48:09Z</time>
      </trkpt>
      <trkpt lat="44.81052" lon="6.16429">
        <ele>1690</ele>
        <time>2015-07-12T12:48:19Z</time>
      </trkpt>
      <trkpt lat="44.81054" lon="6.16428">
        <ele>1688</ele>
        <time>2015-07-12T12:48:28Z</time>
      </trkpt>
      <trkpt lat="44.81036" lon="6.16424">
        <ele>1686</ele>
        <time>2015-07-12T12:48:37Z</time>
      </trkpt>
      <trkpt lat="44.81017" lon="6.16431">
        <ele>1678</ele>
        <time>2015-07-12T12:48:46Z</time>
      </trkpt>
      <trkpt lat="44.81018" lon="6.16444">
        <ele>1675</ele>
        <time>2015-07-12T12:48:55Z</time>
      </trkpt>
      <trkpt lat="44.81026" lon="6.16457">
        <ele>1675</ele>
        <time>2015-07-12T12:49:05Z</time>
      </trkpt>
      <trkpt lat="44.81035" lon="6.16458">
        <ele>1675</ele>
        <time>2015-07-12T12:49:14Z</time>
      </trkpt>
      <trkpt lat="44.81042" lon="6.16466">
        <ele>1675</ele>
        <time>2015-07-12T12:49:23Z</time>
      </trkpt>
      <trkpt lat="44.81039" lon="6.16475">
        <ele>1675</ele>
        <time>2015-07-12T12:49:32Z</time>
      </trkpt>
      <trkpt lat="44.81052" lon="6.16474">
        <ele>1675</ele>
        <time>2015-07-12T12:49:42Z</time>
      </trkpt>
      <trkpt lat="44.8105" lon="6.16461">
        <ele>1674</ele>
        <time>2015-07-12T12:49:52Z</time>
      </trkpt>
      <trkpt lat="44.81041" lon="6.16472">
        <ele>1674</ele>
        <time>2015-07-12T12:50:01Z</time>
      </trkpt>
      <trkpt lat="44.81028" lon="6.16477">
        <ele>1670</ele>
        <time>2015-07-12T12:50:11Z</time>
      </trkpt>
      <trkpt lat="44.81027" lon="6.16481">
        <ele>1664</ele>
        <time>2015-07-12T12:50:22Z</time>
      </trkpt>
      <trkpt lat="44.81015" lon="6.16496">
        <ele>1664</ele>
        <time>2015-07-12T12:50:32Z</time>
      </trkpt>
      <trkpt lat="44.81025" lon="6.16506">
        <ele>1661</ele>
        <time>2015-07-12T12:50:42Z</time>
      </trkpt>
      <trkpt lat="44.81049" lon="6.16512">
        <ele>1661</ele>
        <time>2015-07-12T12:50:51Z</time>
      </trkpt>
      <trkpt lat="44.81054" lon="6.1652">
        <ele>1662</ele>
        <time>2015-07-12T12:51:00Z</time>
      </trkpt>
      <trkpt lat="44.81051" lon="6.16528">
        <ele>1663</ele>
        <time>2015-07-12T12:51:10Z</time>
      </trkpt>
      <trkpt lat="44.81056" lon="6.16533">
        <ele>1663</ele>
        <time>2015-07-12T12:51:20Z</time>
      </trkpt>
      <trkpt lat="44.81049" lon="6.16519">
        <ele>1656</ele>
        <time>2015-07-12T12:51:30Z</time>
      </trkpt>
      <trkpt lat="44.81035" lon="6.16521">
        <ele>1649</ele>
        <time>2015-07-12T12:51:39Z</time>
      </trkpt>
      <trkpt lat="44.81047" lon="6.16537">
        <ele>1649</ele>
        <time>2015-07-12T12:51:48Z</time>
      </trkpt>
      <trkpt lat="44.8103" lon="6.16544">
        <ele>1647</ele>
        <time>2015-07-12T12:51:58Z</time>
      </trkpt>
      <trkpt lat="44.81026" lon="6.16565">
        <ele>1646</ele>
        <time>2015-07-12T12:52:07Z</time>
      </trkpt>
      <trkpt lat="44.81032" lon="6.16572">
        <ele>1649</ele>
        <time>2015-07-12T12:52:16Z</time>
      </trkpt>
      <trkpt lat="44.81041" lon="6.16564">
        <ele>1645</ele>
        <time>2015-07-12T12:52:25Z</time>
      </trkpt>
      <trkpt lat="44.81068" lon="6.1656">
        <ele>1636</ele>
        <time>2015-07-12T12:52:35Z</time>
      </trkpt>
      <trkpt lat="44.81076" lon="6.16569">
        <ele>1635</ele>
        <time>2015-07-12T12:52:44Z</time>
      </trkpt>
      <trkpt lat="44.81067" lon="6.16562">
        <ele>1632</ele>
        <time>2015-07-12T12:52:53Z</time>
      </trkpt>
      <trkpt lat="44.81065" lon="6.16564">
        <ele>1621</ele>
        <time>2015-07-12T12:53:02Z</time>
      </trkpt>
      <trkpt lat="44.81075" lon="6.16568">
        <ele>1616</ele>
        <time>2015-07-12T12:53:12Z</time>
      </trkpt>
      <trkpt lat="44.81102" lon="6.16583">
        <ele>1618</ele>
        <time>2015-07-12T12:53:22Z</time>
      </trkpt>
      <trkpt lat="44.81087" lon="6.16588">
        <ele>1620</ele>
        <time>2015-07-12T12:53:32Z</time>
      </trkpt>
      <trkpt lat="44.81104" lon="6.1659">
        <ele>1622</ele>
        <time>2015-07-12T12:53:42Z</time>
      </trkpt>
      <trkpt lat="44.81104" lon="6.16591">
        <ele>1618</ele>
        <time>2015-07-12T12:53:51Z</time>
      </trkpt>
      <trkpt lat="44.81109" lon="6.16596">
        <ele>1623</ele>
        <time>2015-07-12T12:54:01Z</time>
      </trkpt>
      <trkpt lat="44.81109" lon="6.16597">
        <ele>1614</ele>
        <time>2015-07-12T12:54:11Z</time>
      </trkpt>
      <trkpt lat="44.81124" lon="6.16593">
        <ele>1603</ele>
        <time>2015-07-12T12:54:20Z</time>
      </trkpt>
      <trkpt lat="44.81097" lon="6.16585">
        <ele>1587</ele>
        <time>2015-07-12T12:54:29Z</time>
      </trkpt>
      <trkpt lat="44.81115" lon="6.16581">
        <ele>1573</ele>
        <time>2015-07-12T12:54:42Z</time>
      </trkpt>
      <trkpt lat="44.81094" lon="6.16577">
        <ele>1577</ele>
        <time>2015-07-12T12:54:52Z</time>
      </trkpt>
      <trkpt lat="44.81084" lon="6.16584">
        <ele>1578</ele>
        <time>2015-07-12T12:55:02Z</time>
      </trkpt>
      <trkpt lat="44.81087" lon="6.16594">
        <ele>1578</ele>
        <time>2015-07-12T12:55:12Z</time>
      </trkpt>
      <trkpt lat="44.81087" lon="6.16628">
        <ele>1585</ele>
        <time>2015-07-12T12:55:22Z</time>
      </trkpt>
      <trkpt lat="44.81102" lon="6.16633">
        <ele>1600</ele>
        <time>2015-07-12T12:55:32Z</time>
      </trkpt>
      <trkpt lat="44.81127" lon="6.16638">
        <ele>1606</ele>
        <time>2015-07-12T12:55:43Z</time>
      </trkpt>
      <trkpt lat="44.81128" lon="6.16637">
        <ele>1602</ele>
        <time>2015-07-12T12:55:53Z</time>
      </trkpt>
      <trkpt lat="44.81119" lon="6.16637">
        <ele>1594</ele>
        <time>2015-07-12T12:56:02Z</time>
      </trkpt>
      <trkpt lat="44.81121" lon="6.16642">
        <ele>1582</ele>
        <time>2015-07-12T12:56:12Z</time>
      </trkpt>
      <trkpt lat="44.81123" lon="6.16646">
        <ele>1578</ele>
        <time>2015-07-12T12:56:22Z</time>
      </trkpt>
      <trkpt lat="44.81121" lon="6.16643">
        <ele>1565</ele>
        <time>2015-07-12T12:56:32Z</time>
      </trkpt>
      <trkpt lat="44.81128" lon="6.16651">
        <ele>1568</ele>
        <time>2015-07-12T12:56:42Z</time>
      </trkpt>
      <trkpt lat="44.81123" lon="6.16653">
        <ele>1562</ele>
        <time>2015-07-12T12:56:53Z</time>
      </trkpt>
      <trkpt lat="44.81143" lon="6.1666">
        <ele>1556</ele>
        <time>2015-07-12T12:57:02Z</time>
      </trkpt>
      <trkpt lat="44.81147" lon="6.16675">
        <ele>1563</ele>
        <time>2015-07-12T12:57:12Z</time>
      </trkpt>
      <trkpt lat="44.81149" lon="6.16679">
        <ele>1568</ele>
        <time>2015-07-12T12:57:22Z</time>
      </trkpt>
      <trkpt lat="44.81168" lon="6.16687">
        <ele>1568</ele>
        <time>2015-07-12T12:57:32Z</time>
      </trkpt>
      <trkpt lat="44.81165" lon="6.1669">
        <ele>1570</ele>
        <time>2015-07-12T12:57:42Z</time>
      </trkpt>
      <trkpt lat="44.81164" lon="6.16676">
        <ele>1560</ele>
        <time>2015-07-12T12:57:52Z</time>
      </trkpt>
      <trkpt lat="44.81179" lon="6.16681">
        <ele>1557</ele>
        <time>2015-07-12T12:58:02Z</time>
      </trkpt>
      <trkpt lat="44.81155" lon="6.16683">
        <ele>1554</ele>
        <time>2015-07-12T12:58:12Z</time>
      </trkpt>
      <trkpt lat="44.81132" lon="6.16691">
        <ele>1553</ele>
        <time>2015-07-12T12:58:22Z</time>
      </trkpt>
      <trkpt lat="44.81172" lon="6.16706">
        <ele>1562</ele>
        <time>2015-07-12T12:58:32Z</time>
      </trkpt>
      <trkpt lat="44.81179" lon="6.16703">
        <ele>1575</ele>
        <time>2015-07-12T12:58:42Z</time>
      </trkpt>
      <trkpt lat="44.81181" lon="6.16682">
        <ele>1567</ele>
        <time>2015-07-12T12:58:52Z</time>
      </trkpt>
      <trkpt lat="44.81148" lon="6.16673">
        <ele>1555</ele>
        <time>2015-07-12T12:59:02Z</time>
      </trkpt>
      <trkpt lat="44.81149" lon="6.16661">
        <ele>1543</ele>
        <time>2015-07-12T12:59:13Z</time>
      </trkpt>
      <trkpt lat="44.81151" lon="6.16659">
        <ele>1527</ele>
        <time>2015-07-12T12:59:22Z</time>
      </trkpt>
      <trkpt lat="44.81181" lon="6.16663">
        <ele>1526</ele>
        <time>2015-07-12T12:59:32Z</time>
      </trkpt>
      <trkpt lat="44.81185" lon="6.16656">
        <ele>1528</ele>
        <time>2015-07-12T12:59:45Z</time>
      </trkpt>
      <trkpt lat="44.81173" lon="6.16663">
        <ele>1531</ele>
        <time>2015-07-12T12:59:54Z</time>
      </trkpt>
      <trkpt lat="44.8116" lon="6.16672">
        <ele>1535</ele>
        <time>2015-07-12T13:00:03Z</time>
      </trkpt>
      <trkpt lat="44.81182" lon="6.16673">
        <ele>1538</ele>
        <time>2015-07-12T13:00:12Z</time>
      </trkpt>
      <trkpt lat="44.81183" lon="6.16672">
        <ele>1545</ele>
        <time>2015-07-12T13:00:22Z</time>
      </trkpt>
      <trkpt lat="44.8118" lon="6.16673">
        <ele>1558</ele>
        <time>2015-07-12T13:00:33Z</time>
      </trkpt>
      <trkpt lat="44.81168" lon="6.16679">
        <ele>1558</ele>
        <time>2015-07-12T13:00:42Z</time>
      </trkpt>
      <trkpt lat="44.81171" lon="6.16698">
        <ele>1567</ele>
        <time>2015-07-12T13:00:52Z</time>
      </trkpt>
      <trkpt lat="44.81184" lon="6.16703">
        <ele>1589</ele>
        <time>2015-07-12T13:01:04Z</time>
      </trkpt>
      <trkpt lat="44.81171" lon="6.16703">
        <ele>1594</ele>
        <time>2015-07-12T13:01:13Z</time>
      </trkpt>
      <trkpt lat="44.81158" lon="6.16704">
        <ele>1594</ele>
        <time>2015-07-12T13:01:22Z</time>
      </trkpt>
      <trkpt lat="44.81154" lon="6.16687">
        <ele>1585</ele>
        <time>2015-07-12T13:01:32Z</time>
      </trkpt>
      <trkpt lat="44.81168" lon="6.16662">
        <ele>1563</ele>
        <time>2015-07-12T13:01:42Z</time>
      </trkpt>
      <trkpt lat="44.81169" lon="6.16679">
        <ele>1557</ele>
        <time>2015-07-12T13:01:52Z</time>
      </trkpt>
      <trkpt lat="44.81163" lon="6.1669">
        <ele>1568</ele>
        <time>2015-07-12T13:02:02Z</time>
      </trkpt>
      <trkpt lat="44.81171" lon="6.16712">
        <ele>1578</ele>
        <time>2015-07-12T13:02:12Z</time>
      </trkpt>
      <trkpt lat="44.81167" lon="6.16726">
        <ele>1598</ele>
        <time>2015-07-12T13:02:22Z</time>
      </trkpt>
      <trkpt lat="44.81139" lon="6.1671">
        <ele>1584</ele>
        <time>2015-07-12T13:02:32Z</time>
      </trkpt>
      <trkpt lat="44.81142" lon="6.16696">
        <ele>1566</ele>
        <time>2015-07-12T13:02:42Z</time>
      </trkpt>
      <trkpt lat="44.81173" lon="6.1668">
        <ele>1553</ele>
        <time>2015-07-12T13:02:54Z</time>
      </trkpt>
      <trkpt lat="44.81168" lon="6.1669">
        <ele>1564</ele>
        <time>2015-07-12T13:03:06Z</time>
      </trkpt>
      <trkpt lat="44.8119" lon="6.16702">
        <ele>1574</ele>
        <time>2015-07-12T13:03:16Z</time>
      </trkpt>
      <trkpt lat="44.81192" lon="6.16693">
        <ele>1580</ele>
        <time>2015-07-12T13:03:26Z</time>
      </trkpt>
      <trkpt lat="44.812" lon="6.16699">
        <ele>1575</ele>
        <time>2015-07-12T13:03:36Z</time>
      </trkpt>
      <trkpt lat="44.81211" lon="6.16701">
        <ele>1566</ele>
        <time>2015-07-12T13:03:45Z</time>
      </trkpt>
      <trkpt lat="44.81226" lon="6.16701">
        <ele>1559</ele>
        <time>2015-07-12T13:03:57Z</time>
      </trkpt>
      <trkpt lat="44.81234" lon="6.1671">
        <ele>1556</ele>
        <time>2015-07-12T13:04:07Z</time>
      </trkpt>
      <trkpt lat="44.81246" lon="6.16713">
        <ele>1559</ele>
        <time>2015-07-12T13:04:16Z</time>
      </trkpt>
      <trkpt lat="44.81246" lon="6.16713">
        <ele>1560</ele>
        <time>2015-07-12T13:04:26Z</time>
      </trkpt>
      <trkpt lat="44.81249" lon="6.16711">
        <ele>1556</ele>
        <time>2015-07-12T13:04:35Z</time>
      </trkpt>
      <trkpt lat="44.81261" lon="6.16723">
        <ele>1549</ele>
        <time>2015-07-12T13:04:45Z</time>
      </trkpt>
      <trkpt lat="44.81282" lon="6.16712">
        <ele>1548</ele>
        <time>2015-07-12T13:04:58Z</time>
      </trkpt>
      <trkpt lat="44.81282" lon="6.16711">
        <ele>1540</ele>
        <time>2015-07-12T13:05:07Z</time>
      </trkpt>
      <trkpt lat="44.81294" lon="6.16713">
        <ele>1540</ele>
        <time>2015-07-12T13:05:16Z</time>
      </trkpt>
      <trkpt lat="44.81302" lon="6.16705">
        <ele>1540</ele>
        <time>2015-07-12T13:05:25Z</time>
      </trkpt>
      <trkpt lat="44.81321" lon="6.16696">
        <ele>1540</ele>
        <time>2015-07-12T13:05:35Z</time>
      </trkpt>
      <trkpt lat="44.81323" lon="6.16683">
        <ele>1540</ele>
        <time>2015-07-12T13:05:45Z</time>
      </trkpt>
      <trkpt lat="44.81329" lon="6.16675">
        <ele>1540</ele>
        <time>2015-07-12T13:05:55Z</time>
      </trkpt>
      <trkpt lat="44.81339" lon="6.16662">
        <ele>1539</ele>
        <time>2015-07-12T13:06:05Z</time>
      </trkpt>
      <trkpt lat="44.81334" lon="6.16651">
        <ele>1530</ele>
        <time>2015-07-12T13:06:15Z</time>
      </trkpt>
      <trkpt lat="44.81338" lon="6.16646">
        <ele>1525</ele>
        <time>2015-07-12T13:06:25Z</time>
      </trkpt>
      <trkpt lat="44.81346" lon="6.16649">
        <ele>1526</ele>
        <time>2015-07-12T13:06:36Z</time>
      </trkpt>
      <trkpt lat="44.81351" lon="6.16647">
        <ele>1534</ele>
        <time>2015-07-12T13:06:45Z</time>
      </trkpt>
      <trkpt lat="44.81347" lon="6.16626">
        <ele>1528</ele>
        <time>2015-07-12T13:06:55Z</time>
      </trkpt>
      <trkpt lat="44.81347" lon="6.16625">
        <ele>1523</ele>
        <time>2015-07-12T13:07:05Z</time>
      </trkpt>
      <trkpt lat="44.81365" lon="6.16625">
        <ele>1528</ele>
        <time>2015-07-12T13:07:15Z</time>
      </trkpt>
      <trkpt lat="44.8137" lon="6.16608">
        <ele>1530</ele>
        <time>2015-07-12T13:07:26Z</time>
      </trkpt>
      <trkpt lat="44.81373" lon="6.16597">
        <ele>1530</ele>
        <time>2015-07-12T13:07:35Z</time>
      </trkpt>
      <trkpt lat="44.81368" lon="6.16597">
        <ele>1532</ele>
        <time>2015-07-12T13:07:45Z</time>
      </trkpt>
      <trkpt lat="44.81378" lon="6.1661">
        <ele>1532</ele>
        <time>2015-07-12T13:07:57Z</time>
      </trkpt>
      <trkpt lat="44.81373" lon="6.16612">
        <ele>1531</ele>
        <time>2015-07-12T13:08:06Z</time>
      </trkpt>
      <trkpt lat="44.81371" lon="6.16617">
        <ele>1517</ele>
        <time>2015-07-12T13:08:16Z</time>
      </trkpt>
      <trkpt lat="44.81374" lon="6.16622">
        <ele>1510</ele>
        <time>2015-07-12T13:08:27Z</time>
      </trkpt>
      <trkpt lat="44.81382" lon="6.1661">
        <ele>1509</ele>
        <time>2015-07-12T13:08:37Z</time>
      </trkpt>
      <trkpt lat="44.81393" lon="6.16598">
        <ele>1508</ele>
        <time>2015-07-12T13:08:47Z</time>
      </trkpt>
      <trkpt lat="44.814" lon="6.16589">
        <ele>1502</ele>
        <time>2015-07-12T13:08:57Z</time>
      </trkpt>
      <trkpt lat="44.81398" lon="6.16595">
        <ele>1502</ele>
        <time>2015-07-12T13:09:07Z</time>
      </trkpt>
      <trkpt lat="44.814" lon="6.166">
        <ele>1512</ele>
        <time>2015-07-12T13:09:17Z</time>
      </trkpt>
      <trkpt lat="44.81403" lon="6.16612">
        <ele>1519</ele>
        <time>2015-07-12T13:09:26Z</time>
      </trkpt>
      <trkpt lat="44.81405" lon="6.16619">
        <ele>1520</ele>
        <time>2015-07-12T13:09:35Z</time>
      </trkpt>
      <trkpt lat="44.81416" lon="6.16613">
        <ele>1513</ele>
        <time>2015-07-12T13:09:47Z</time>
      </trkpt>
      <trkpt lat="44.81421" lon="6.16617">
        <ele>1511</ele>
        <time>2015-07-12T13:09:57Z</time>
      </trkpt>
      <trkpt lat="44.81403" lon="6.16621">
        <ele>1504</ele>
        <time>2015-07-12T13:10:06Z</time>
      </trkpt>
      <trkpt lat="44.81414" lon="6.16629">
        <ele>1498</ele>
        <time>2015-07-12T13:10:18Z</time>
      </trkpt>
      <trkpt lat="44.81418" lon="6.16626">
        <ele>1498</ele>
        <time>2015-07-12T13:10:27Z</time>
      </trkpt>
      <trkpt lat="44.81416" lon="6.16629">
        <ele>1495</ele>
        <time>2015-07-12T13:10:36Z</time>
      </trkpt>
      <trkpt lat="44.81419" lon="6.16641">
        <ele>1491</ele>
        <time>2015-07-12T13:10:45Z</time>
      </trkpt>
      <trkpt lat="44.81418" lon="6.16644">
        <ele>1482</ele>
        <time>2015-07-12T13:10:56Z</time>
      </trkpt>
      <trkpt lat="44.81416" lon="6.16645">
        <ele>1482</ele>
        <time>2015-07-12T13:11:05Z</time>
      </trkpt>
      <trkpt lat="44.81416" lon="6.16659">
        <ele>1479</ele>
        <time>2015-07-12T13:11:15Z</time>
      </trkpt>
      <trkpt lat="44.8142" lon="6.16675">
        <ele>1480</ele>
        <time>2015-07-12T13:11:25Z</time>
      </trkpt>
      <trkpt lat="44.81426" lon="6.16668">
        <ele>1483</ele>
        <time>2015-07-12T13:11:36Z</time>
      </trkpt>
      <trkpt lat="44.81421" lon="6.16662">
        <ele>1475</ele>
        <time>2015-07-12T13:11:45Z</time>
      </trkpt>
      <trkpt lat="44.81416" lon="6.1667">
        <ele>1467</ele>
        <time>2015-07-12T13:11:58Z</time>
      </trkpt>
      <trkpt lat="44.81421" lon="6.16686">
        <ele>1466</ele>
        <time>2015-07-12T13:12:07Z</time>
      </trkpt>
      <trkpt lat="44.81419" lon="6.16679">
        <ele>1462</ele>
        <time>2015-07-12T13:12:18Z</time>
      </trkpt>
      <trkpt lat="44.81418" lon="6.16691">
        <ele>1462</ele>
        <time>2015-07-12T13:12:29Z</time>
      </trkpt>
      <trkpt lat="44.8143" lon="6.16696">
        <ele>1462</ele>
        <time>2015-07-12T13:12:40Z</time>
      </trkpt>
      <trkpt lat="44.81421" lon="6.16691">
        <ele>1459</ele>
        <time>2015-07-12T13:12:51Z</time>
      </trkpt>
      <trkpt lat="44.81423" lon="6.16708">
        <ele>1451</ele>
        <time>2015-07-12T13:13:00Z</time>
      </trkpt>
      <trkpt lat="44.81424" lon="6.1672">
        <ele>1454</ele>
        <time>2015-07-12T13:13:10Z</time>
      </trkpt>
      <trkpt lat="44.81434" lon="6.16729">
        <ele>1458</ele>
        <time>2015-07-12T13:13:20Z</time>
      </trkpt>
      <trkpt lat="44.81432" lon="6.16726">
        <ele>1458</ele>
        <time>2015-07-12T13:13:30Z</time>
      </trkpt>
      <trkpt lat="44.81431" lon="6.16733">
        <ele>1452</ele>
        <time>2015-07-12T13:13:40Z</time>
      </trkpt>
      <trkpt lat="44.81428" lon="6.16743">
        <ele>1445</ele>
        <time>2015-07-12T13:13:50Z</time>
      </trkpt>
      <trkpt lat="44.81437" lon="6.16758">
        <ele>1445</ele>
        <time>2015-07-12T13:14:00Z</time>
      </trkpt>
      <trkpt lat="44.81443" lon="6.16757">
        <ele>1445</ele>
        <time>2015-07-12T13:14:14Z</time>
      </trkpt>
      <trkpt lat="44.81433" lon="6.16756">
        <ele>1440</ele>
        <time>2015-07-12T13:14:24Z</time>
      </trkpt>
      <trkpt lat="44.81434" lon="6.1675">
        <ele>1441</ele>
        <time>2015-07-12T13:14:36Z</time>
      </trkpt>
      <trkpt lat="44.8144" lon="6.16757">
        <ele>1445</ele>
        <time>2015-07-12T13:14:45Z</time>
      </trkpt>
      <trkpt lat="44.81447" lon="6.16745">
        <ele>1444</ele>
        <time>2015-07-12T13:14:55Z</time>
      </trkpt>
      <trkpt lat="44.8145" lon="6.16731">
        <ele>1437</ele>
        <time>2015-07-12T13:15:05Z</time>
      </trkpt>
      <trkpt lat="44.81455" lon="6.16738">
        <ele>1431</ele>
        <time>2015-07-12T13:15:15Z</time>
      </trkpt>
      <trkpt lat="44.81466" lon="6.16731">
        <ele>1431</ele>
        <time>2015-07-12T13:15:28Z</time>
      </trkpt>
      <trkpt lat="44.81471" lon="6.1672">
        <ele>1428</ele>
        <time>2015-07-12T13:15:38Z</time>
      </trkpt>
      <trkpt lat="44.81485" lon="6.16707">
        <ele>1423</ele>
        <time>2015-07-12T13:15:47Z</time>
      </trkpt>
      <trkpt lat="44.8149" lon="6.1671">
        <ele>1421</ele>
        <time>2015-07-12T13:15:56Z</time>
      </trkpt>
      <trkpt lat="44.81494" lon="6.16706">
        <ele>1423</ele>
        <time>2015-07-12T13:16:05Z</time>
      </trkpt>
      <trkpt lat="44.81489" lon="6.16689">
        <ele>1416</ele>
        <time>2015-07-12T13:16:15Z</time>
      </trkpt>
      <trkpt lat="44.81494" lon="6.16694">
        <ele>1409</ele>
        <time>2015-07-12T13:16:25Z</time>
      </trkpt>
      <trkpt lat="44.81495" lon="6.16684">
        <ele>1409</ele>
        <time>2015-07-12T13:16:35Z</time>
      </trkpt>
      <trkpt lat="44.81504" lon="6.1668">
        <ele>1404</ele>
        <time>2015-07-12T13:16:47Z</time>
      </trkpt>
      <trkpt lat="44.81501" lon="6.16686">
        <ele>1404</ele>
        <time>2015-07-12T13:16:56Z</time>
      </trkpt>
      <trkpt lat="44.81501" lon="6.16678">
        <ele>1407</ele>
        <time>2015-07-12T13:17:09Z</time>
      </trkpt>
      <trkpt lat="44.81515" lon="6.16668">
        <ele>1404</ele>
        <time>2015-07-12T13:17:18Z</time>
      </trkpt>
      <trkpt lat="44.81524" lon="6.16654">
        <ele>1395</ele>
        <time>2015-07-12T13:17:28Z</time>
      </trkpt>
      <trkpt lat="44.81517" lon="6.16658">
        <ele>1393</ele>
        <time>2015-07-12T13:17:40Z</time>
      </trkpt>
      <trkpt lat="44.8153" lon="6.16649">
        <ele>1395</ele>
        <time>2015-07-12T13:17:50Z</time>
      </trkpt>
      <trkpt lat="44.81535" lon="6.16646">
        <ele>1394</ele>
        <time>2015-07-12T13:18:00Z</time>
      </trkpt>
      <trkpt lat="44.81543" lon="6.16644">
        <ele>1396</ele>
        <time>2015-07-12T13:18:10Z</time>
      </trkpt>
      <trkpt lat="44.81539" lon="6.16638">
        <ele>1396</ele>
        <time>2015-07-12T13:18:20Z</time>
      </trkpt>
      <trkpt lat="44.81544" lon="6.16644">
        <ele>1396</ele>
        <time>2015-07-12T13:18:30Z</time>
      </trkpt>
      <trkpt lat="44.81547" lon="6.16619">
        <ele>1395</ele>
        <time>2015-07-12T13:18:45Z</time>
      </trkpt>
      <trkpt lat="44.81549" lon="6.16618">
        <ele>1395</ele>
        <time>2015-07-12T13:18:55Z</time>
      </trkpt>
      <trkpt lat="44.81557" lon="6.16605">
        <ele>1390</ele>
        <time>2015-07-12T13:19:05Z</time>
      </trkpt>
      <trkpt lat="44.81563" lon="6.16594">
        <ele>1380</ele>
        <time>2015-07-12T13:19:15Z</time>
      </trkpt>
      <trkpt lat="44.81567" lon="6.16592">
        <ele>1378</ele>
        <time>2015-07-12T13:19:25Z</time>
      </trkpt>
      <trkpt lat="44.81559" lon="6.16579">
        <ele>1378</ele>
        <time>2015-07-12T13:19:36Z</time>
      </trkpt>
      <trkpt lat="44.81553" lon="6.16567">
        <ele>1372</ele>
        <time>2015-07-12T13:19:47Z</time>
      </trkpt>
      <trkpt lat="44.81564" lon="6.16581">
        <ele>1369</ele>
        <time>2015-07-12T13:19:56Z</time>
      </trkpt>
      <trkpt lat="44.81572" lon="6.16569">
        <ele>1373</ele>
        <time>2015-07-12T13:20:06Z</time>
      </trkpt>
      <trkpt lat="44.81569" lon="6.16556">
        <ele>1369</ele>
        <time>2015-07-12T13:20:15Z</time>
      </trkpt>
      <trkpt lat="44.81573" lon="6.16554">
        <ele>1360</ele>
        <time>2015-07-12T13:20:25Z</time>
      </trkpt>
      <trkpt lat="44.81574" lon="6.1654">
        <ele>1359</ele>
        <time>2015-07-12T13:20:35Z</time>
      </trkpt>
      <trkpt lat="44.81566" lon="6.16533">
        <ele>1356</ele>
        <time>2015-07-12T13:20:45Z</time>
      </trkpt>
      <trkpt lat="44.81566" lon="6.16508">
        <ele>1349</ele>
        <time>2015-07-12T13:20:55Z</time>
      </trkpt>
      <trkpt lat="44.81568" lon="6.16506">
        <ele>1344</ele>
        <time>2015-07-12T13:21:07Z</time>
      </trkpt>
      <trkpt lat="44.81571" lon="6.16505">
        <ele>1344</ele>
        <time>2015-07-12T13:21:19Z</time>
      </trkpt>
      <trkpt lat="44.81571" lon="6.16506">
        <ele>1349</ele>
        <time>2015-07-12T13:21:30Z</time>
      </trkpt>
      <trkpt lat="44.81571" lon="6.16494">
        <ele>1354</ele>
        <time>2015-07-12T13:21:40Z</time>
      </trkpt>
      <trkpt lat="44.81576" lon="6.1648">
        <ele>1362</ele>
        <time>2015-07-12T13:21:50Z</time>
      </trkpt>
      <trkpt lat="44.81585" lon="6.1647">
        <ele>1355</ele>
        <time>2015-07-12T13:22:01Z</time>
      </trkpt>
      <trkpt lat="44.81583" lon="6.1646">
        <ele>1354</ele>
        <time>2015-07-12T13:22:10Z</time>
      </trkpt>
      <trkpt lat="44.81587" lon="6.16446">
        <ele>1347</ele>
        <time>2015-07-12T13:22:22Z</time>
      </trkpt>
      <trkpt lat="44.81594" lon="6.16435">
        <ele>1349</ele>
        <time>2015-07-12T13:22:31Z</time>
      </trkpt>
      <trkpt lat="44.81598" lon="6.16422">
        <ele>1349</ele>
        <time>2015-07-12T13:22:41Z</time>
      </trkpt>
      <trkpt lat="44.81598" lon="6.16417">
        <ele>1344</ele>
        <time>2015-07-12T13:22:51Z</time>
      </trkpt>
      <trkpt lat="44.81602" lon="6.16416">
        <ele>1342</ele>
        <time>2015-07-12T13:23:03Z</time>
      </trkpt>
      <trkpt lat="44.81603" lon="6.16405">
        <ele>1342</ele>
        <time>2015-07-12T13:23:13Z</time>
      </trkpt>
      <trkpt lat="44.81612" lon="6.16393">
        <ele>1340</ele>
        <time>2015-07-12T13:23:23Z</time>
      </trkpt>
      <trkpt lat="44.81604" lon="6.16395">
        <ele>1344</ele>
        <time>2015-07-12T13:23:32Z</time>
      </trkpt>
      <trkpt lat="44.8161" lon="6.16395">
        <ele>1350</ele>
        <time>2015-07-12T13:23:41Z</time>
      </trkpt>
      <trkpt lat="44.81609" lon="6.16381">
        <ele>1348</ele>
        <time>2015-07-12T13:23:50Z</time>
      </trkpt>
      <trkpt lat="44.816" lon="6.16376">
        <ele>1335</ele>
        <time>2015-07-12T13:24:01Z</time>
      </trkpt>
      <trkpt lat="44.81604" lon="6.16372">
        <ele>1326</ele>
        <time>2015-07-12T13:24:10Z</time>
      </trkpt>
      <trkpt lat="44.81608" lon="6.16377">
        <ele>1326</ele>
        <time>2015-07-12T13:24:20Z</time>
      </trkpt>
      <trkpt lat="44.81607" lon="6.16369">
        <ele>1324</ele>
        <time>2015-07-12T13:24:31Z</time>
      </trkpt>
      <trkpt lat="44.81617" lon="6.1636">
        <ele>1323</ele>
        <time>2015-07-12T13:24:40Z</time>
      </trkpt>
      <trkpt lat="44.81622" lon="6.16356">
        <ele>1319</ele>
        <time>2015-07-12T13:24:50Z</time>
      </trkpt>
      <trkpt lat="44.81628" lon="6.16338">
        <ele>1319</ele>
        <time>2015-07-12T13:25:01Z</time>
      </trkpt>
      <trkpt lat="44.81633" lon="6.16326">
        <ele>1311</ele>
        <time>2015-07-12T13:25:11Z</time>
      </trkpt>
      <trkpt lat="44.81635" lon="6.1633">
        <ele>1307</ele>
        <time>2015-07-12T13:25:21Z</time>
      </trkpt>
      <trkpt lat="44.81641" lon="6.16324">
        <ele>1311</ele>
        <time>2015-07-12T13:25:30Z</time>
      </trkpt>
      <trkpt lat="44.8164" lon="6.16319">
        <ele>1309</ele>
        <time>2015-07-12T13:25:40Z</time>
      </trkpt>
      <trkpt lat="44.81646" lon="6.16303">
        <ele>1297</ele>
        <time>2015-07-12T13:25:50Z</time>
      </trkpt>
      <trkpt lat="44.81653" lon="6.16298">
        <ele>1299</ele>
        <time>2015-07-12T13:26:01Z</time>
      </trkpt>
      <trkpt lat="44.81652" lon="6.16301">
        <ele>1306</ele>
        <time>2015-07-12T13:26:10Z</time>
      </trkpt>
      <trkpt lat="44.81653" lon="6.16297">
        <ele>1306</ele>
        <time>2015-07-12T13:26:20Z</time>
      </trkpt>
      <trkpt lat="44.81656" lon="6.16286">
        <ele>1305</ele>
        <time>2015-07-12T13:26:31Z</time>
      </trkpt>
      <trkpt lat="44.81659" lon="6.16278">
        <ele>1296</ele>
        <time>2015-07-12T13:26:42Z</time>
      </trkpt>
      <trkpt lat="44.81668" lon="6.1628">
        <ele>1296</ele>
        <time>2015-07-12T13:26:51Z</time>
      </trkpt>
      <trkpt lat="44.81672" lon="6.16263">
        <ele>1293</ele>
        <time>2015-07-12T13:27:00Z</time>
      </trkpt>
      <trkpt lat="44.81674" lon="6.16263">
        <ele>1290</ele>
        <time>2015-07-12T13:27:10Z</time>
      </trkpt>
      <trkpt lat="44.81676" lon="6.16258">
        <ele>1298</ele>
        <time>2015-07-12T13:27:21Z</time>
      </trkpt>
      <trkpt lat="44.81686" lon="6.16233">
        <ele>1298</ele>
        <time>2015-07-12T13:27:32Z</time>
      </trkpt>
      <trkpt lat="44.81676" lon="6.16225">
        <ele>1297</ele>
        <time>2015-07-12T13:27:41Z</time>
      </trkpt>
      <trkpt lat="44.81675" lon="6.16226">
        <ele>1289</ele>
        <time>2015-07-12T13:27:50Z</time>
      </trkpt>
      <trkpt lat="44.81678" lon="6.16219">
        <ele>1289</ele>
        <time>2015-07-12T13:28:00Z</time>
      </trkpt>
      <trkpt lat="44.81682" lon="6.16206">
        <ele>1283</ele>
        <time>2015-07-12T13:28:11Z</time>
      </trkpt>
      <trkpt lat="44.81686" lon="6.16195">
        <ele>1280</ele>
        <time>2015-07-12T13:28:20Z</time>
      </trkpt>
      <trkpt lat="44.81691" lon="6.16187">
        <ele>1275</ele>
        <time>2015-07-12T13:28:30Z</time>
      </trkpt>
      <trkpt lat="44.81695" lon="6.16193">
        <ele>1275</ele>
        <time>2015-07-12T13:28:40Z</time>
      </trkpt>
      <trkpt lat="44.81692" lon="6.1618">
        <ele>1273</ele>
        <time>2015-07-12T13:28:53Z</time>
      </trkpt>
      <trkpt lat="44.81694" lon="6.16172">
        <ele>1270</ele>
        <time>2015-07-12T13:29:03Z</time>
      </trkpt>
      <trkpt lat="44.81698" lon="6.16176">
        <ele>1273</ele>
        <time>2015-07-12T13:29:12Z</time>
      </trkpt>
      <trkpt lat="44.81711" lon="6.16171">
        <ele>1273</ele>
        <time>2015-07-12T13:29:23Z</time>
      </trkpt>
      <trkpt lat="44.81712" lon="6.16162">
        <ele>1276</ele>
        <time>2015-07-12T13:29:34Z</time>
      </trkpt>
      <trkpt lat="44.81717" lon="6.16153">
        <ele>1274</ele>
        <time>2015-07-12T13:29:43Z</time>
      </trkpt>
      <trkpt lat="44.81727" lon="6.16138">
        <ele>1267</ele>
        <time>2015-07-12T13:29:52Z</time>
      </trkpt>
      <trkpt lat="44.8173" lon="6.16124">
        <ele>1260</ele>
        <time>2015-07-12T13:30:01Z</time>
      </trkpt>
      <trkpt lat="44.81727" lon="6.16117">
        <ele>1253</ele>
        <time>2015-07-12T13:30:10Z</time>
      </trkpt>
      <trkpt lat="44.81727" lon="6.1611">
        <ele>1252</ele>
        <time>2015-07-12T13:30:21Z</time>
      </trkpt>
      <trkpt lat="44.81736" lon="6.16123">
        <ele>1249</ele>
        <time>2015-07-12T13:30:38Z</time>
      </trkpt>
      <trkpt lat="44.81742" lon="6.16128">
        <ele>1246</ele>
        <time>2015-07-12T13:30:47Z</time>
      </trkpt>
      <trkpt lat="44.8175" lon="6.16124">
        <ele>1246</ele>
        <time>2015-07-12T13:30:58Z</time>
      </trkpt>
      <trkpt lat="44.81752" lon="6.16115">
        <ele>1246</ele>
        <time>2015-07-12T13:31:07Z</time>
      </trkpt>
      <trkpt lat="44.81757" lon="6.16107">
        <ele>1246</ele>
        <time>2015-07-12T13:31:16Z</time>
      </trkpt>
      <trkpt lat="44.81765" lon="6.16096">
        <ele>1246</ele>
        <time>2015-07-12T13:31:27Z</time>
      </trkpt>
      <trkpt lat="44.81763" lon="6.16094">
        <ele>1246</ele>
        <time>2015-07-12T13:31:36Z</time>
      </trkpt>
      <trkpt lat="44.81766" lon="6.16088">
        <ele>1238</ele>
        <time>2015-07-12T13:31:45Z</time>
      </trkpt>
      <trkpt lat="44.81769" lon="6.16094">
        <ele>1242</ele>
        <time>2015-07-12T13:31:55Z</time>
      </trkpt>
      <trkpt lat="44.81773" lon="6.16073">
        <ele>1240</ele>
        <time>2015-07-12T13:32:06Z</time>
      </trkpt>
      <trkpt lat="44.81776" lon="6.16073">
        <ele>1238</ele>
        <time>2015-07-12T13:32:16Z</time>
      </trkpt>
      <trkpt lat="44.81778" lon="6.16086">
        <ele>1237</ele>
        <time>2015-07-12T13:32:25Z</time>
      </trkpt>
      <trkpt lat="44.81782" lon="6.16101">
        <ele>1241</ele>
        <time>2015-07-12T13:32:35Z</time>
      </trkpt>
      <trkpt lat="44.81792" lon="6.16089">
        <ele>1242</ele>
        <time>2015-07-12T13:32:45Z</time>
      </trkpt>
      <trkpt lat="44.81791" lon="6.16082">
        <ele>1242</ele>
        <time>2015-07-12T13:32:55Z</time>
      </trkpt>
      <trkpt lat="44.81797" lon="6.16084">
        <ele>1235</ele>
        <time>2015-07-12T13:33:05Z</time>
      </trkpt>
      <trkpt lat="44.81798" lon="6.1609">
        <ele>1227</ele>
        <time>2015-07-12T13:33:15Z</time>
      </trkpt>
      <trkpt lat="44.81802" lon="6.16082">
        <ele>1218</ele>
        <time>2015-07-12T13:33:28Z</time>
      </trkpt>
      <trkpt lat="44.81807" lon="6.16094">
        <ele>1213</ele>
        <time>2015-07-12T13:33:38Z</time>
      </trkpt>
      <trkpt lat="44.81817" lon="6.16099">
        <ele>1213</ele>
        <time>2015-07-12T13:33:49Z</time>
      </trkpt>
      <trkpt lat="44.81819" lon="6.1611">
        <ele>1215</ele>
        <time>2015-07-12T13:33:58Z</time>
      </trkpt>
      <trkpt lat="44.81826" lon="6.16106">
        <ele>1223</ele>
        <time>2015-07-12T13:34:07Z</time>
      </trkpt>
      <trkpt lat="44.81821" lon="6.16101">
        <ele>1229</ele>
        <time>2015-07-12T13:34:16Z</time>
      </trkpt>
      <trkpt lat="44.81822" lon="6.16105">
        <ele>1220</ele>
        <time>2015-07-12T13:34:26Z</time>
      </trkpt>
      <trkpt lat="44.81833" lon="6.16106">
        <ele>1216</ele>
        <time>2015-07-12T13:34:36Z</time>
      </trkpt>
      <trkpt lat="44.81835" lon="6.16095">
        <ele>1218</ele>
        <time>2015-07-12T13:34:45Z</time>
      </trkpt>
      <trkpt lat="44.81829" lon="6.16113">
        <ele>1213</ele>
        <time>2015-07-12T13:34:55Z</time>
      </trkpt>
      <trkpt lat="44.8183" lon="6.16118">
        <ele>1213</ele>
        <time>2015-07-12T13:35:05Z</time>
      </trkpt>
      <trkpt lat="44.81835" lon="6.16128">
        <ele>1213</ele>
        <time>2015-07-12T13:35:18Z</time>
      </trkpt>
      <trkpt lat="44.81845" lon="6.16128">
        <ele>1205</ele>
        <time>2015-07-12T13:35:28Z</time>
      </trkpt>
      <trkpt lat="44.81844" lon="6.16136">
        <ele>1211</ele>
        <time>2015-07-12T13:35:40Z</time>
      </trkpt>
      <trkpt lat="44.81849" lon="6.16125">
        <ele>1211</ele>
        <time>2015-07-12T13:35:50Z</time>
      </trkpt>
      <trkpt lat="44.81848" lon="6.16113">
        <ele>1202</ele>
        <time>2015-07-12T13:36:01Z</time>
      </trkpt>
      <trkpt lat="44.81846" lon="6.16112">
        <ele>1193</ele>
        <time>2015-07-12T13:36:10Z</time>
      </trkpt>
      <trkpt lat="44.81843" lon="6.16127">
        <ele>1190</ele>
        <time>2015-07-12T13:36:20Z</time>
      </trkpt>
      <trkpt lat="44.81848" lon="6.16127">
        <ele>1190</ele>
        <time>2015-07-12T13:36:30Z</time>
      </trkpt>
      <trkpt lat="44.81849" lon="6.16141">
        <ele>1187</ele>
        <time>2015-07-12T13:36:40Z</time>
      </trkpt>
      <trkpt lat="44.81853" lon="6.16142">
        <ele>1188</ele>
        <time>2015-07-12T13:36:50Z</time>
      </trkpt>
      <trkpt lat="44.81857" lon="6.1614">
        <ele>1194</ele>
        <time>2015-07-12T13:37:02Z</time>
      </trkpt>
      <trkpt lat="44.8186" lon="6.16133">
        <ele>1192</ele>
        <time>2015-07-12T13:37:12Z</time>
      </trkpt>
      <trkpt lat="44.81871" lon="6.16142">
        <ele>1191</ele>
        <time>2015-07-12T13:37:21Z</time>
      </trkpt>
      <trkpt lat="44.81865" lon="6.16146">
        <ele>1190</ele>
        <time>2015-07-12T13:37:30Z</time>
      </trkpt>
      <trkpt lat="44.81863" lon="6.16169">
        <ele>1190</ele>
        <time>2015-07-12T13:37:39Z</time>
      </trkpt>
      <trkpt lat="44.81865" lon="6.16176">
        <ele>1203</ele>
        <time>2015-07-12T13:37:48Z</time>
      </trkpt>
      <trkpt lat="44.81859" lon="6.16164">
        <ele>1206</ele>
        <time>2015-07-12T13:38:00Z</time>
      </trkpt>
      <trkpt lat="44.8187" lon="6.16152">
        <ele>1190</ele>
        <time>2015-07-12T13:38:12Z</time>
      </trkpt>
      <trkpt lat="44.81872" lon="6.16156">
        <ele>1172</ele>
        <time>2015-07-12T13:38:21Z</time>
      </trkpt>
      <trkpt lat="44.81874" lon="6.16161">
        <ele>1166</ele>
        <time>2015-07-12T13:38:30Z</time>
      </trkpt>
      <trkpt lat="44.8188" lon="6.16156">
        <ele>1158</ele>
        <time>2015-07-12T13:38:40Z</time>
      </trkpt>
      <trkpt lat="44.8188" lon="6.16168">
        <ele>1154</ele>
        <time>2015-07-12T13:38:50Z</time>
      </trkpt>
      <trkpt lat="44.81881" lon="6.16194">
        <ele>1157</ele>
        <time>2015-07-12T13:39:00Z</time>
      </trkpt>
      <trkpt lat="44.81886" lon="6.16187">
        <ele>1161</ele>
        <time>2015-07-12T13:39:13Z</time>
      </trkpt>
      <trkpt lat="44.81881" lon="6.162">
        <ele>1165</ele>
        <time>2015-07-12T13:39:22Z</time>
      </trkpt>
      <trkpt lat="44.81886" lon="6.16205">
        <ele>1165</ele>
        <time>2015-07-12T13:39:33Z</time>
      </trkpt>
      <trkpt lat="44.8188" lon="6.16211">
        <ele>1167</ele>
        <time>2015-07-12T13:39:42Z</time>
      </trkpt>
      <trkpt lat="44.81889" lon="6.16203">
        <ele>1151</ele>
        <time>2015-07-12T13:39:54Z</time>
      </trkpt>
      <trkpt lat="44.81887" lon="6.16221">
        <ele>1147</ele>
        <time>2015-07-12T13:40:03Z</time>
      </trkpt>
      <trkpt lat="44.81886" lon="6.16235">
        <ele>1151</ele>
        <time>2015-07-12T13:40:12Z</time>
      </trkpt>
      <trkpt lat="44.81886" lon="6.16242">
        <ele>1156</ele>
        <time>2015-07-12T13:40:22Z</time>
      </trkpt>
      <trkpt lat="44.81881" lon="6.16252">
        <ele>1153</ele>
        <time>2015-07-12T13:40:31Z</time>
      </trkpt>
      <trkpt lat="44.81882" lon="6.16259">
        <ele>1153</ele>
        <time>2015-07-12T13:40:41Z</time>
      </trkpt>
      <trkpt lat="44.81886" lon="6.16259">
        <ele>1154</ele>
        <time>2015-07-12T13:40:50Z</time>
      </trkpt>
      <trkpt lat="44.81889" lon="6.16246">
        <ele>1153</ele>
        <time>2015-07-12T13:41:00Z</time>
      </trkpt>
      <trkpt lat="44.81893" lon="6.16246">
        <ele>1142</ele>
        <time>2015-07-12T13:41:12Z</time>
      </trkpt>
      <trkpt lat="44.8189" lon="6.16258">
        <ele>1145</ele>
        <time>2015-07-12T13:41:21Z</time>
      </trkpt>
      <trkpt lat="44.81893" lon="6.16275">
        <ele>1150</ele>
        <time>2015-07-12T13:41:30Z</time>
      </trkpt>
      <trkpt lat="44.81894" lon="6.16293">
        <ele>1172</ele>
        <time>2015-07-12T13:41:39Z</time>
      </trkpt>
      <trkpt lat="44.81894" lon="6.16299">
        <ele>1180</ele>
        <time>2015-07-12T13:41:49Z</time>
      </trkpt>
      <trkpt lat="44.81894" lon="6.16289">
        <ele>1174</ele>
        <time>2015-07-12T13:42:00Z</time>
      </trkpt>
      <trkpt lat="44.819" lon="6.16295">
        <ele>1172</ele>
        <time>2015-07-12T13:42:10Z</time>
      </trkpt>
      <trkpt lat="44.81902" lon="6.1631">
        <ele>1174</ele>
        <time>2015-07-12T13:42:25Z</time>
      </trkpt>
      <trkpt lat="44.81903" lon="6.16314">
        <ele>1165</ele>
        <time>2015-07-12T13:42:38Z</time>
      </trkpt>
      <trkpt lat="44.81904" lon="6.16307">
        <ele>1156</ele>
        <time>2015-07-12T13:42:47Z</time>
      </trkpt>
      <trkpt lat="44.8191" lon="6.163">
        <ele>1146</ele>
        <time>2015-07-12T13:42:56Z</time>
      </trkpt>
      <trkpt lat="44.81916" lon="6.16296">
        <ele>1139</ele>
        <time>2015-07-12T13:43:06Z</time>
      </trkpt>
      <trkpt lat="44.81918" lon="6.16292">
        <ele>1138</ele>
        <time>2015-07-12T13:43:17Z</time>
      </trkpt>
      <trkpt lat="44.81923" lon="6.16295">
        <ele>1143</ele>
        <time>2015-07-12T13:43:26Z</time>
      </trkpt>
      <trkpt lat="44.81932" lon="6.16322">
        <ele>1148</ele>
        <time>2015-07-12T13:44:00Z</time>
      </trkpt>
      <trkpt lat="44.81932" lon="6.16328">
        <ele>1134</ele>
        <time>2015-07-12T13:44:10Z</time>
      </trkpt>
      <trkpt lat="44.81936" lon="6.16336">
        <ele>1116</ele>
        <time>2015-07-12T13:44:20Z</time>
      </trkpt>
      <trkpt lat="44.81942" lon="6.16341">
        <ele>1108</ele>
        <time>2015-07-12T13:44:29Z</time>
      </trkpt>
      <trkpt lat="44.81941" lon="6.16335">
        <ele>1089</ele>
        <time>2015-07-12T13:44:39Z</time>
      </trkpt>
      <trkpt lat="44.81943" lon="6.16338">
        <ele>1080</ele>
        <time>2015-07-12T13:44:51Z</time>
      </trkpt>
      <trkpt lat="44.81947" lon="6.1635">
        <ele>1089</ele>
        <time>2015-07-12T13:45:01Z</time>
      </trkpt>
      <trkpt lat="44.81944" lon="6.16359">
        <ele>1091</ele>
        <time>2015-07-12T13:45:11Z</time>
      </trkpt>
      <trkpt lat="44.8194" lon="6.16368">
        <ele>1088</ele>
        <time>2015-07-12T13:45:21Z</time>
      </trkpt>
      <trkpt lat="44.81934" lon="6.16379">
        <ele>1078</ele>
        <time>2015-07-12T13:45:30Z</time>
      </trkpt>
      <trkpt lat="44.81931" lon="6.16393">
        <ele>1061</ele>
        <time>2015-07-12T13:45:40Z</time>
      </trkpt>
      <trkpt lat="44.81933" lon="6.16403">
        <ele>1058</ele>
        <time>2015-07-12T13:45:51Z</time>
      </trkpt>
      <trkpt lat="44.81937" lon="6.16415">
        <ele>1066</ele>
        <time>2015-07-12T13:46:01Z</time>
      </trkpt>
      <trkpt lat="44.81939" lon="6.16423">
        <ele>1076</ele>
        <time>2015-07-12T13:46:10Z</time>
      </trkpt>
      <trkpt lat="44.81941" lon="6.16431">
        <ele>1082</ele>
        <time>2015-07-12T13:46:20Z</time>
      </trkpt>
      <trkpt lat="44.8194" lon="6.16442">
        <ele>1082</ele>
        <time>2015-07-12T13:46:32Z</time>
      </trkpt>
      <trkpt lat="44.81943" lon="6.16452">
        <ele>1084</ele>
        <time>2015-07-12T13:46:42Z</time>
      </trkpt>
      <trkpt lat="44.81942" lon="6.16454">
        <ele>1082</ele>
        <time>2015-07-12T13:46:51Z</time>
      </trkpt>
      <trkpt lat="44.81947" lon="6.16467">
        <ele>1080</ele>
        <time>2015-07-12T13:47:01Z</time>
      </trkpt>
      <trkpt lat="44.8195" lon="6.16475">
        <ele>1078</ele>
        <time>2015-07-12T13:47:10Z</time>
      </trkpt>
      <trkpt lat="44.81953" lon="6.16491">
        <ele>1075</ele>
        <time>2015-07-12T13:47:19Z</time>
      </trkpt>
      <trkpt lat="44.81956" lon="6.16495">
        <ele>1075</ele>
        <time>2015-07-12T13:47:29Z</time>
      </trkpt>
      <trkpt lat="44.81965" lon="6.16505">
        <ele>1086</ele>
        <time>2015-07-12T13:47:43Z</time>
      </trkpt>
      <trkpt lat="44.81969" lon="6.16508">
        <ele>1084</ele>
        <time>2015-07-12T13:47:53Z</time>
      </trkpt>
      <trkpt lat="44.81975" lon="6.16519">
        <ele>1076</ele>
        <time>2015-07-12T13:48:02Z</time>
      </trkpt>
      <trkpt lat="44.81984" lon="6.16524">
        <ele>1076</ele>
        <time>2015-07-12T13:48:12Z</time>
      </trkpt>
      <trkpt lat="44.81991" lon="6.16528">
        <ele>1074</ele>
        <time>2015-07-12T13:48:22Z</time>
      </trkpt>
      <trkpt lat="44.81995" lon="6.1653">
        <ele>1064</ele>
        <time>2015-07-12T13:48:34Z</time>
      </trkpt>
      <trkpt lat="44.82" lon="6.16533">
        <ele>1064</ele>
        <time>2015-07-12T13:48:44Z</time>
      </trkpt>
      <trkpt lat="44.82004" lon="6.16535">
        <ele>1064</ele>
        <time>2015-07-12T13:48:58Z</time>
      </trkpt>
      <trkpt lat="44.82006" lon="6.16533">
        <ele>1072</ele>
        <time>2015-07-12T13:49:13Z</time>
      </trkpt>
      <trkpt lat="44.82001" lon="6.16532">
        <ele>1068</ele>
        <time>2015-07-12T13:49:22Z</time>
      </trkpt>
      <trkpt lat="44.81994" lon="6.16538">
        <ele>1054</ele>
        <time>2015-07-12T13:49:33Z</time>
      </trkpt>
      <trkpt lat="44.81992" lon="6.16552">
        <ele>1045</ele>
        <time>2015-07-12T13:49:42Z</time>
      </trkpt>
      <trkpt lat="44.81987" lon="6.16564">
        <ele>1042</ele>
        <time>2015-07-12T13:49:51Z</time>
      </trkpt>
      <trkpt lat="44.81979" lon="6.16573">
        <ele>1033</ele>
        <time>2015-07-12T13:50:00Z</time>
      </trkpt>
      <trkpt lat="44.81983" lon="6.16581">
        <ele>1033</ele>
        <time>2015-07-12T13:50:09Z</time>
      </trkpt>
      <trkpt lat="44.81987" lon="6.16584">
        <ele>1038</ele>
        <time>2015-07-12T13:50:18Z</time>
      </trkpt>
      <trkpt lat="44.82009" lon="6.1661">
        <ele>1054</ele>
        <time>2015-07-12T13:50:27Z</time>
      </trkpt>
      <trkpt lat="44.82021" lon="6.16616">
        <ele>1065</ele>
        <time>2015-07-12T13:50:36Z</time>
      </trkpt>
      <trkpt lat="44.82027" lon="6.16612">
        <ele>1062</ele>
        <time>2015-07-12T13:50:45Z</time>
      </trkpt>
      <trkpt lat="44.82036" lon="6.1661">
        <ele>1053</ele>
        <time>2015-07-12T13:50:55Z</time>
      </trkpt>
      <trkpt lat="44.82044" lon="6.16623">
        <ele>1061</ele>
        <time>2015-07-12T13:51:06Z</time>
      </trkpt>
      <trkpt lat="44.82048" lon="6.16616">
        <ele>1071</ele>
        <time>2015-07-12T13:51:16Z</time>
      </trkpt>
      <trkpt lat="44.82051" lon="6.16608">
        <ele>1069</ele>
        <time>2015-07-12T13:51:25Z</time>
      </trkpt>
      <trkpt lat="44.82053" lon="6.16607">
        <ele>1059</ele>
        <time>2015-07-12T13:51:35Z</time>
      </trkpt>
      <trkpt lat="44.82058" lon="6.16607">
        <ele>1092</ele>
        <time>2015-07-12T13:51:46Z</time>
      </trkpt>
      <trkpt lat="44.82055" lon="6.16609">
        <ele>1087</ele>
        <time>2015-07-12T13:51:55Z</time>
      </trkpt>
      <trkpt lat="44.82048" lon="6.16611">
        <ele>1073</ele>
        <time>2015-07-12T13:52:04Z</time>
      </trkpt>
      <trkpt lat="44.82044" lon="6.16621">
        <ele>1063</ele>
        <time>2015-07-12T13:52:14Z</time>
      </trkpt>
      <trkpt lat="44.8205" lon="6.1664">
        <ele>1058</ele>
        <time>2015-07-12T13:52:24Z</time>
      </trkpt>
      <trkpt lat="44.82061" lon="6.16652">
        <ele>1055</ele>
        <time>2015-07-12T13:52:33Z</time>
      </trkpt>
      <trkpt lat="44.82068" lon="6.16662">
        <ele>1060</ele>
        <time>2015-07-12T13:52:43Z</time>
      </trkpt>
      <trkpt lat="44.82059" lon="6.16676">
        <ele>1059</ele>
        <time>2015-07-12T13:52:53Z</time>
      </trkpt>
      <trkpt lat="44.82055" lon="6.16687">
        <ele>1054</ele>
        <time>2015-07-12T13:53:02Z</time>
      </trkpt>
      <trkpt lat="44.82055" lon="6.16702">
        <ele>1049</ele>
        <time>2015-07-12T13:53:11Z</time>
      </trkpt>
      <trkpt lat="44.82055" lon="6.16714">
        <ele>1042</ele>
        <time>2015-07-12T13:53:20Z</time>
      </trkpt>
      <trkpt lat="44.82058" lon="6.16726">
        <ele>1035</ele>
        <time>2015-07-12T13:53:30Z</time>
      </trkpt>
      <trkpt lat="44.82057" lon="6.16739">
        <ele>1024</ele>
        <time>2015-07-12T13:53:41Z</time>
      </trkpt>
      <trkpt lat="44.82057" lon="6.16753">
        <ele>1031</ele>
        <time>2015-07-12T13:53:50Z</time>
      </trkpt>
      <trkpt lat="44.82053" lon="6.16763">
        <ele>1040</ele>
        <time>2015-07-12T13:53:59Z</time>
      </trkpt>
      <trkpt lat="44.8205" lon="6.16772">
        <ele>1048</ele>
        <time>2015-07-12T13:54:09Z</time>
      </trkpt>
      <trkpt lat="44.82049" lon="6.16784">
        <ele>1049</ele>
        <time>2015-07-12T13:54:18Z</time>
      </trkpt>
      <trkpt lat="44.8205" lon="6.16798">
        <ele>1049</ele>
        <time>2015-07-12T13:54:27Z</time>
      </trkpt>
      <trkpt lat="44.82048" lon="6.16812">
        <ele>1049</ele>
        <time>2015-07-12T13:54:36Z</time>
      </trkpt>
      <trkpt lat="44.82044" lon="6.16819">
        <ele>1049</ele>
        <time>2015-07-12T13:54:47Z</time>
      </trkpt>
      <trkpt lat="44.8204" lon="6.16826">
        <ele>1049</ele>
        <time>2015-07-12T13:54:56Z</time>
      </trkpt>
      <trkpt lat="44.8204" lon="6.16826">
        <ele>1049</ele>
        <time>2015-07-12T13:54:57Z</time>
      </trkpt>
    </trkseg>
  </trk>
</gpx>